Wetterdaten: Freitag, 30.12.2016
Datum Zeit Temp. A. Feuchte A. Luftdruck Regen Wind Richtung Richtung Sonnenschein ET UV Solar Taupunkt Windchill Windben Empfang
30.12.2016 00:00 -3,1 C 97 % 1041,0 hPa 0,0 l/m 5,1 km/h (1 Bft) O-NO 64 0 min 0,000 mm 0,0 UV-I 0 W/m -3,5 C -3,1 C 8,0 km/h (2 Bft) 100,00 %
30.12.2016 00:02 -3,1 C 97 % 1041,0 hPa 0,0 l/m 7,5 km/h (2 Bft) O-NO 63 0 min 0,000 mm 0,0 UV-I 0 W/m -3,5 C -4,4 C 12,9 km/h (3 Bft) 100,00 %
30.12.2016 00:04 -3,1 C 97 % 1041,0 hPa 0,0 l/m 6,5 km/h (2 Bft) O-NO 57 0 min 0,000 mm 0,0 UV-I 0 W/m -3,5 C -3,2 C 9,7 km/h (2 Bft) 100,00 %
30.12.2016 00:06 -3,1 C 97 % 1041,0 hPa 0,0 l/m 8,5 km/h (2 Bft) O 80 0 min 0,000 mm 0,0 UV-I 0 W/m -3,5 C -5,4 C 16,1 km/h (3 Bft) 100,00 %
30.12.2016 00:08 -3,1 C 97 % 1041,0 hPa 0,0 l/m 7,7 km/h (2 Bft) O 81 0 min 0,000 mm 0,0 UV-I 0 W/m -3,5 C -4,6 C 12,9 km/h (3 Bft) 100,00 %
30.12.2016 00:10 -3,2 C 97 % 1041,0 hPa 0,0 l/m 9,2 km/h (2 Bft) NO 56 0 min 0,000 mm 0,0 UV-I 0 W/m -3,6 C -6,2 C 14,5 km/h (3 Bft) 97,37 %
30.12.2016 00:12 -3,2 C 97 % 1041,0 hPa 0,0 l/m 7,8 km/h (2 Bft) O-SO 107 0 min 0,000 mm 0,0 UV-I 0 W/m -3,6 C -4,8 C 12,9 km/h (3 Bft) 98,00 %
30.12.2016 00:14 -3,2 C 97 % 1041,0 hPa 0,0 l/m 4,5 km/h (1 Bft) SO 130 0 min 0,000 mm 0,0 UV-I 0 W/m -3,6 C -3,2 C 8,0 km/h (2 Bft) 97,87 %
30.12.2016 00:16 -3,2 C 97 % 1041,0 hPa 0,0 l/m 4,6 km/h (1 Bft) SO 126 0 min 0,000 mm 0,0 UV-I 0 W/m -3,6 C -3,2 C 8,0 km/h (2 Bft) 97,87 %
30.12.2016 00:18 -3,2 C 97 % 1041,0 hPa 0,0 l/m 3,3 km/h (1 Bft) O-SO 112 0 min 0,000 mm 0,0 UV-I 0 W/m -3,6 C -3,2 C 6,4 km/h (2 Bft) 97,87 %
30.12.2016 00:20 -3,2 C 97 % 1041,0 hPa 0,0 l/m 4,8 km/h (1 Bft) O 88 0 min 0,000 mm 0,0 UV-I 0 W/m -3,6 C -3,2 C 6,4 km/h (2 Bft) 100,00 %
30.12.2016 00:22 -3,1 C 97 % 1041,0 hPa 0,0 l/m 5,2 km/h (1 Bft) O 80 0 min 0,000 mm 0,0 UV-I 0 W/m -3,5 C -3,1 C 8,0 km/h (2 Bft) 98,00 %
30.12.2016 00:24 -3,1 C 97 % 1041,0 hPa 0,0 l/m 6,1 km/h (2 Bft) NO 52 0 min 0,000 mm 0,0 UV-I 0 W/m -3,5 C -3,1 C 8,0 km/h (2 Bft) 97,87 %
30.12.2016 00:26 -3,1 C 97 % 1041,0 hPa 0,0 l/m 7,5 km/h (2 Bft) O-NO 61 0 min 0,000 mm 0,0 UV-I 0 W/m -3,5 C -4,4 C 9,7 km/h (2 Bft) 100,00 %
30.12.2016 00:28 -3,1 C 97 % 1041,0 hPa 0,0 l/m 7,1 km/h (2 Bft) NO 52 0 min 0,000 mm 0,0 UV-I 0 W/m -3,5 C -3,9 C 9,7 km/h (2 Bft) 100,00 %
30.12.2016 00:30 -3,1 C 97 % 1041,0 hPa 0,0 l/m 4,6 km/h (1 Bft) NO 51 0 min 0,000 mm 0,0 UV-I 0 W/m -3,5 C -3,1 C 8,0 km/h (2 Bft) 100,00 %
30.12.2016 00:32 -3,1 C 97 % 1041,0 hPa 0,0 l/m 4,9 km/h (1 Bft) O-NO 57 0 min 0,000 mm 0,0 UV-I 0 W/m -3,5 C -3,1 C 8,0 km/h (2 Bft) 100,00 %
30.12.2016 00:34 -3,1 C 97 % 1041,1 hPa 0,0 l/m 5,2 km/h (1 Bft) O-SO 115 0 min 0,000 mm 0,0 UV-I 0 W/m -3,5 C -3,1 C 8,0 km/h (2 Bft) 100,00 %
30.12.2016 00:36 -3,1 C 97 % 1041,0 hPa 0,0 l/m 3,0 km/h (1 Bft) O-SO 122 0 min 0,000 mm 0,0 UV-I 0 W/m -3,5 C -3,1 C 4,8 km/h (1 Bft) 100,00 %
30.12.2016 00:38 -3,1 C 97 % 1040,9 hPa 0,0 l/m 3,4 km/h (1 Bft) SO 135 0 min 0,000 mm 0,0 UV-I 0 W/m -3,5 C -3,1 C 6,4 km/h (2 Bft) 100,00 %
30.12.2016 00:40 -3,0 C 97 % 1040,9 hPa 0,0 l/m 3,7 km/h (1 Bft) SO 125 0 min 0,000 mm 0,0 UV-I 0 W/m -3,4 C -3,0 C 4,8 km/h (1 Bft) 97,87 %
30.12.2016 00:42 -3,1 C 97 % 1040,9 hPa 0,0 l/m 4,2 km/h (1 Bft) O-SO 117 0 min 0,000 mm 0,0 UV-I 0 W/m -3,5 C -3,1 C 6,4 km/h (2 Bft) 100,00 %
30.12.2016 00:44 -3,0 C 97 % 1040,9 hPa 0,0 l/m 2,7 km/h (1 Bft) O-SO 117 0 min 0,000 mm 0,0 UV-I 0 W/m -3,4 C -3,0 C 4,8 km/h (1 Bft) 100,00 %
30.12.2016 00:46 -3,0 C 97 % 1040,9 hPa 0,0 l/m 5,4 km/h (1 Bft) O-NO 69 0 min 0,000 mm 0,0 UV-I 0 W/m -3,4 C -3,0 C 8,0 km/h (2 Bft) 97,87 %
30.12.2016 00:48 -3,0 C 97 % 1040,9 hPa 0,0 l/m 5,8 km/h (2 Bft) NO 53 0 min 0,000 mm 0,0 UV-I 0 W/m -3,4 C -3,0 C 8,0 km/h (2 Bft) 100,00 %
30.12.2016 00:50 -3,0 C 97 % 1040,9 hPa 0,0 l/m 5,9 km/h (2 Bft) O-NO 69 0 min 0,000 mm 0,0 UV-I 0 W/m -3,4 C -3,0 C 8,0 km/h (2 Bft) 100,00 %
30.12.2016 00:52 -3,1 C 97 % 1040,8 hPa 0,0 l/m 5,2 km/h (1 Bft) O-NO 74 0 min 0,000 mm 0,0 UV-I 0 W/m -3,5 C -3,1 C 8,0 km/h (2 Bft) 97,87 %
30.12.2016 00:54 -3,0 C 97 % 1040,8 hPa 0,0 l/m 4,4 km/h (1 Bft) O 92 0 min 0,000 mm 0,0 UV-I 0 W/m -3,4 C -3,0 C 6,4 km/h (2 Bft) 97,87 %
30.12.2016 00:56 -3,0 C 97 % 1040,8 hPa 0,0 l/m 3,7 km/h (1 Bft) O-NO 69 0 min 0,000 mm 0,0 UV-I 0 W/m -3,4 C -3,0 C 6,4 km/h (2 Bft) 100,00 %
30.12.2016 00:58 -3,0 C 97 % 1040,8 hPa 0,0 l/m 7,5 km/h (2 Bft) O-SO 111 0 min 0,000 mm 0,0 UV-I 0 W/m -3,4 C -4,2 C 12,9 km/h (3 Bft) 97,87 %
30.12.2016 01:00 -3,0 C 97 % 1040,8 hPa 0,0 l/m 8,3 km/h (2 Bft) O-SO 105 0 min 0,000 mm 0,0 UV-I 0 W/m -3,4 C -5,1 C 11,3 km/h (2 Bft) 100,00 %
30.12.2016 01:02 -3,0 C 97 % 1040,8 hPa 0,0 l/m 5,2 km/h (1 Bft) O-NO 68 0 min 0,000 mm 0,0 UV-I 0 W/m -3,4 C -3,0 C 9,7 km/h (2 Bft) 100,00 %
30.12.2016 01:04 -3,1 C 97 % 1040,7 hPa 0,0 l/m 4,8 km/h (1 Bft) O-NO 61 0 min 0,000 mm 0,0 UV-I 0 W/m -3,5 C -3,1 C 8,0 km/h (2 Bft) 100,00 %
30.12.2016 01:06 -3,1 C 97 % 1040,7 hPa 0,0 l/m 5,9 km/h (2 Bft) O-NO 57 0 min 0,000 mm 0,0 UV-I 0 W/m -3,5 C -3,1 C 9,7 km/h (2 Bft) 100,00 %
30.12.2016 01:08 -3,1 C 97 % 1040,7 hPa 0,0 l/m 5,5 km/h (1 Bft) NO 56 0 min 0,000 mm 0,0 UV-I 0 W/m -3,5 C -3,1 C 8,0 km/h (2 Bft) 100,00 %
30.12.2016 01:10 -3,1 C 97 % 1040,7 hPa 0,0 l/m 7,3 km/h (2 Bft) NO 52 0 min 0,000 mm 0,0 UV-I 0 W/m -3,5 C -4,1 C 9,7 km/h (2 Bft) 97,87 %
30.12.2016 01:12 -3,1 C 97 % 1040,7 hPa 0,0 l/m 7,5 km/h (2 Bft) O-NO 65 0 min 0,000 mm 0,0 UV-I 0 W/m -3,5 C -4,4 C 11,3 km/h (2 Bft) 95,74 %
30.12.2016 01:14 -3,2 C 97 % 1040,6 hPa 0,0 l/m 10,0 km/h (2 Bft) O-NO 59 0 min 0,000 mm 0,0 UV-I 0 W/m -3,6 C -7,0 C 12,9 km/h (3 Bft) 98,00 %
30.12.2016 01:16 -3,2 C 97 % 1040,6 hPa 0,0 l/m 8,7 km/h (2 Bft) O 81 0 min 0,000 mm 0,0 UV-I 0 W/m -3,6 C -5,7 C 12,9 km/h (3 Bft) 97,87 %
30.12.2016 01:18 -3,2 C 97 % 1040,6 hPa 0,0 l/m 9,1 km/h (2 Bft) O 82 0 min 0,000 mm 0,0 UV-I 0 W/m -3,6 C -6,1 C 14,5 km/h (3 Bft) 97,87 %
30.12.2016 01:20 -3,3 C 97 % 1040,6 hPa 0,0 l/m 7,4 km/h (2 Bft) O 98 0 min 0,000 mm 0,0 UV-I 0 W/m -3,7 C -4,4 C 11,3 km/h (2 Bft) 97,87 %
30.12.2016 01:22 -3,3 C 97 % 1040,6 hPa 0,0 l/m 5,9 km/h (2 Bft) O-SO 121 0 min 0,000 mm 0,0 UV-I 0 W/m -3,7 C -3,3 C 11,3 km/h (2 Bft) 97,87 %
30.12.2016 01:24 -3,3 C 97 % 1040,6 hPa 0,0 l/m 2,6 km/h (1 Bft) O-SO 121 0 min 0,000 mm 0,0 UV-I 0 W/m -3,7 C -3,3 C 4,8 km/h (1 Bft) 93,62 %
30.12.2016 01:26 -3,3 C 97 % 1040,6 hPa 0,0 l/m 4,4 km/h (1 Bft) O-SO 107 0 min 0,000 mm 0,0 UV-I 0 W/m -3,7 C -3,3 C 6,4 km/h (2 Bft) 96,00 %
30.12.2016 01:28 -3,3 C 97 % 1040,6 hPa 0,0 l/m 4,1 km/h (1 Bft) O-NO 78 0 min 0,000 mm 0,0 UV-I 0 W/m -3,7 C -3,3 C 9,7 km/h (2 Bft) 97,87 %
30.12.2016 01:30 -3,3 C 97 % 1040,5 hPa 0,0 l/m 7,0 km/h (2 Bft) NO 55 0 min 0,000 mm 0,0 UV-I 0 W/m -3,7 C -4,0 C 11,3 km/h (2 Bft) 93,62 %
30.12.2016 01:32 -3,3 C 97 % 1040,6 hPa 0,0 l/m 6,6 km/h (2 Bft) O-NO 63 0 min 0,000 mm 0,0 UV-I 0 W/m -3,7 C -3,5 C 9,7 km/h (2 Bft) 95,74 %
30.12.2016 01:34 -3,3 C 97 % 1040,6 hPa 0,0 l/m 8,6 km/h (2 Bft) NO 55 0 min 0,000 mm 0,0 UV-I 0 W/m -3,7 C -5,7 C 12,9 km/h (3 Bft) 97,87 %
30.12.2016 01:36 -3,3 C 97 % 1040,7 hPa 0,0 l/m 6,1 km/h (2 Bft) O-SO 104 0 min 0,000 mm 0,0 UV-I 0 W/m -3,7 C -3,3 C 9,7 km/h (2 Bft) 97,87 %
30.12.2016 01:38 -3,3 C 97 % 1040,7 hPa 0,0 l/m 7,1 km/h (2 Bft) O-SO 103 0 min 0,000 mm 0,0 UV-I 0 W/m -3,7 C -4,1 C 11,3 km/h (2 Bft) 95,74 %
30.12.2016 01:40 -3,3 C 97 % 1040,7 hPa 0,0 l/m 4,9 km/h (1 Bft) O-NO 74 0 min 0,000 mm 0,0 UV-I 0 W/m -3,7 C -3,3 C 6,4 km/h (2 Bft) 97,87 %
30.12.2016 01:42 -3,3 C 97 % 1040,7 hPa 0,0 l/m 3,0 km/h (1 Bft) O-NO 74 0 min 0,000 mm 0,0 UV-I 0 W/m -3,7 C -3,3 C 4,8 km/h (1 Bft) 97,87 %
30.12.2016 01:44 -3,3 C 97 % 1040,8 hPa 0,0 l/m 3,3 km/h (1 Bft) O-NO 74 0 min 0,000 mm 0,0 UV-I 0 W/m -3,7 C -3,3 C 4,8 km/h (1 Bft) 97,22 %
30.12.2016 01:46 -3,3 C 97 % 1040,8 hPa 0,0 l/m 4,4 km/h (1 Bft) O-NO 76 0 min 0,000 mm 0,0 UV-I 0 W/m -3,7 C -3,3 C 6,4 km/h (2 Bft) 96,00 %
30.12.2016 01:48 -3,3 C 97 % 1040,8 hPa 0,0 l/m 4,3 km/h (1 Bft) N-NO 30 0 min 0,000 mm 0,0 UV-I 0 W/m -3,7 C -3,3 C 6,4 km/h (2 Bft) 98,00 %
30.12.2016 01:50 -3,3 C 97 % 1040,8 hPa 0,0 l/m 8,5 km/h (2 Bft) N-NO 27 0 min 0,000 mm 0,0 UV-I 0 W/m -3,7 C -5,6 C 14,5 km/h (3 Bft) 100,00 %
30.12.2016 01:52 -3,3 C 97 % 1040,7 hPa 0,0 l/m 6,7 km/h (2 Bft) N 10 0 min 0,000 mm 0,0 UV-I 0 W/m -3,7 C -3,6 C 11,3 km/h (2 Bft) 98,00 %
30.12.2016 01:54 -3,2 C 97 % 1040,7 hPa 0,0 l/m 7,8 km/h (2 Bft) N-NO 17 0 min 0,000 mm 0,0 UV-I 0 W/m -3,6 C -4,8 C 12,9 km/h (3 Bft) 97,37 %
30.12.2016 01:56 -3,2 C 97 % 1040,7 hPa 0,0 l/m 4,7 km/h (1 Bft) N-NO 29 0 min 0,000 mm 0,0 UV-I 0 W/m -3,6 C -3,2 C 6,4 km/h (2 Bft) 97,87 %
30.12.2016 01:58 -3,2 C 97 % 1040,8 hPa 0,0 l/m 5,7 km/h (1 Bft) N-NO 28 0 min 0,000 mm 0,0 UV-I 0 W/m -3,6 C -3,2 C 9,7 km/h (2 Bft) 100,00 %
30.12.2016 02:00 -3,2 C 97 % 1040,8 hPa 0,0 l/m 3,5 km/h (1 Bft) N-NO 28 0 min 0,000 mm 0,0 UV-I 0 W/m -3,6 C -3,2 C 8,0 km/h (2 Bft) 100,00 %
30.12.2016 02:02 -3,2 C 97 % 1040,7 hPa 0,0 l/m 4,9 km/h (1 Bft) NO 42 0 min 0,000 mm 0,0 UV-I 0 W/m -3,6 C -3,2 C 8,0 km/h (2 Bft) 100,00 %
30.12.2016 02:04 -3,2 C 97 % 1040,7 hPa 0,0 l/m 5,6 km/h (1 Bft) NO 46 0 min 0,000 mm 0,0 UV-I 0 W/m -3,6 C -3,2 C 11,3 km/h (2 Bft) 100,00 %
30.12.2016 02:06 -3,3 C 97 % 1040,7 hPa 0,0 l/m 7,5 km/h (2 Bft) O-NO 65 0 min 0,000 mm 0,0 UV-I 0 W/m -3,7 C -4,6 C 9,7 km/h (2 Bft) 96,00 %
30.12.2016 02:08 -3,3 C 97 % 1040,7 hPa 0,0 l/m 5,4 km/h (1 Bft) O-NO 76 0 min 0,000 mm 0,0 UV-I 0 W/m -3,7 C -3,3 C 8,0 km/h (2 Bft) 95,74 %
30.12.2016 02:10 -3,3 C 97 % 1040,7 hPa 0,0 l/m 3,3 km/h (1 Bft) O 92 0 min 0,000 mm 0,0 UV-I 0 W/m -3,7 C -3,3 C 6,4 km/h (2 Bft) 100,00 %
30.12.2016 02:12 -3,4 C 97 % 1040,7 hPa 0,0 l/m 6,7 km/h (2 Bft) O-NO 74 0 min 0,000 mm 0,0 UV-I 0 W/m -3,8 C -3,7 C 11,3 km/h (2 Bft) 100,00 %
30.12.2016 02:14 -3,4 C 97 % 1040,7 hPa 0,0 l/m 5,2 km/h (1 Bft) O-NO 71 0 min 0,000 mm 0,0 UV-I 0 W/m -3,8 C -3,4 C 8,0 km/h (2 Bft) 97,87 %
30.12.2016 02:16 -3,4 C 97 % 1040,6 hPa 0,0 l/m 4,2 km/h (1 Bft) O-NO 71 0 min 0,000 mm 0,0 UV-I 0 W/m -3,8 C -3,4 C 8,0 km/h (2 Bft) 100,00 %
30.12.2016 02:18 -3,4 C 97 % 1040,6 hPa 0,0 l/m 6,9 km/h (2 Bft) NO 56 0 min 0,000 mm 0,0 UV-I 0 W/m -3,8 C -4,0 C 11,3 km/h (2 Bft) 100,00 %
30.12.2016 02:20 -3,4 C 97 % 1040,6 hPa 0,0 l/m 6,1 km/h (2 Bft) O-NO 65 0 min 0,000 mm 0,0 UV-I 0 W/m -3,8 C -3,4 C 8,0 km/h (2 Bft) 100,00 %
30.12.2016 02:22 -3,3 C 97 % 1040,6 hPa 0,0 l/m 5,0 km/h (1 Bft) O-NO 77 0 min 0,000 mm 0,0 UV-I 0 W/m -3,7 C -3,3 C 6,4 km/h (2 Bft) 100,00 %
30.12.2016 02:24 -3,4 C 97 % 1040,6 hPa 0,0 l/m 5,2 km/h (1 Bft) O-SO 107 0 min 0,000 mm 0,0 UV-I 0 W/m -3,8 C -3,4 C 9,7 km/h (2 Bft) 100,00 %
30.12.2016 02:26 -3,3 C 97 % 1040,6 hPa 0,0 l/m 5,4 km/h (1 Bft) O-NO 59 0 min 0,000 mm 0,0 UV-I 0 W/m -3,7 C -3,3 C 6,4 km/h (2 Bft) 100,00 %
30.12.2016 02:28 -3,3 C 97 % 1040,6 hPa 0,0 l/m 3,8 km/h (1 Bft) O-NO 64 0 min 0,000 mm 0,0 UV-I 0 W/m -3,7 C -3,3 C 6,4 km/h (2 Bft) 100,00 %
30.12.2016 02:30 -3,3 C 97 % 1040,6 hPa 0,0 l/m 6,5 km/h (2 Bft) NO 44 0 min 0,000 mm 0,0 UV-I 0 W/m -3,7 C -3,4 C 9,7 km/h (2 Bft) 100,00 %
30.12.2016 02:32 -3,3 C 97 % 1040,5 hPa 0,0 l/m 6,2 km/h (2 Bft) NO 36 0 min 0,000 mm 0,0 UV-I 0 W/m -3,7 C -3,3 C 9,7 km/h (2 Bft) 100,00 %
30.12.2016 02:34 -3,3 C 97 % 1040,5 hPa 0,0 l/m 3,4 km/h (1 Bft) NO 54 0 min 0,000 mm 0,0 UV-I 0 W/m -3,7 C -3,3 C 8,0 km/h (2 Bft) 100,00 %
30.12.2016 02:36 -3,3 C 97 % 1040,5 hPa 0,0 l/m 6,1 km/h (2 Bft) O-NO 60 0 min 0,000 mm 0,0 UV-I 0 W/m -3,7 C -3,3 C 8,0 km/h (2 Bft) 100,00 %
30.12.2016 02:38 -3,3 C 97 % 1040,5 hPa 0,0 l/m 7,4 km/h (2 Bft) NO 46 0 min 0,000 mm 0,0 UV-I 0 W/m -3,7 C -4,4 C 11,3 km/h (2 Bft) 97,87 %
30.12.2016 02:40 -3,2 C 97 % 1040,5 hPa 0,0 l/m 6,4 km/h (2 Bft) O-NO 75 0 min 0,000 mm 0,0 UV-I 0 W/m -3,6 C -3,2 C 11,3 km/h (2 Bft) 100,00 %
30.12.2016 02:42 -3,2 C 97 % 1040,6 hPa 0,0 l/m 6,5 km/h (2 Bft) O-NO 74 0 min 0,000 mm 0,0 UV-I 0 W/m -3,6 C -3,3 C 11,3 km/h (2 Bft) 97,87 %
30.12.2016 02:44 -3,2 C 97 % 1040,5 hPa 0,0 l/m 6,4 km/h (2 Bft) O-NO 70 0 min 0,000 mm 0,0 UV-I 0 W/m -3,6 C -3,2 C 9,7 km/h (2 Bft) 100,00 %
30.12.2016 02:46 -3,2 C 97 % 1040,5 hPa 0,0 l/m 6,9 km/h (2 Bft) O 82 0 min 0,000 mm 0,0 UV-I 0 W/m -3,6 C -3,8 C 12,9 km/h (3 Bft) 97,87 %
30.12.2016 02:48 -3,3 C 97 % 1040,6 hPa 0,0 l/m 8,3 km/h (2 Bft) O-NO 76 0 min 0,000 mm 0,0 UV-I 0 W/m -3,7 C -5,4 C 12,9 km/h (3 Bft) 100,00 %
30.12.2016 02:50 -3,3 C 97 % 1040,6 hPa 0,0 l/m 7,2 km/h (2 Bft) O-NO 78 0 min 0,000 mm 0,0 UV-I 0 W/m -3,7 C -4,2 C 11,3 km/h (2 Bft) 97,87 %
30.12.2016 02:52 -3,3 C 97 % 1040,5 hPa 0,0 l/m 7,2 km/h (2 Bft) O-NO 67 0 min 0,000 mm 0,0 UV-I 0 W/m -3,7 C -4,2 C 11,3 km/h (2 Bft) 100,00 %
30.12.2016 02:54 -3,3 C 97 % 1040,5 hPa 0,0 l/m 6,2 km/h (2 Bft) NO 49 0 min 0,000 mm 0,0 UV-I 0 W/m -3,7 C -3,3 C 9,7 km/h (2 Bft) 100,00 %
30.12.2016 02:56 -3,3 C 97 % 1040,5 hPa 0,0 l/m 5,3 km/h (1 Bft) O-NO 67 0 min 0,000 mm 0,0 UV-I 0 W/m -3,7 C -3,3 C 8,0 km/h (2 Bft) 96,23 %
30.12.2016 02:58 -3,4 C 97 % 1040,4 hPa 0,0 l/m 3,6 km/h (1 Bft) NO 39 0 min 0,000 mm 0,0 UV-I 0 W/m -3,8 C -3,4 C 6,4 km/h (2 Bft) 100,00 %
30.12.2016 03:00 -3,4 C 97 % 1040,4 hPa 0,0 l/m 3,9 km/h (1 Bft) NO 38 0 min 0,000 mm 0,0 UV-I 0 W/m -3,8 C -3,4 C 6,4 km/h (2 Bft) 100,00 %
30.12.2016 03:02 -3,4 C 97 % 1040,3 hPa 0,0 l/m 3,0 km/h (1 Bft) O 81 0 min 0,000 mm 0,0 UV-I 0 W/m -3,8 C -3,4 C 6,4 km/h (2 Bft) 97,87 %
30.12.2016 03:04 -3,4 C 97 % 1040,4 hPa 0,0 l/m 5,9 km/h (2 Bft) NO 52 0 min 0,000 mm 0,0 UV-I 0 W/m -3,8 C -3,4 C 8,0 km/h (2 Bft) 100,00 %
30.12.2016 03:06 -3,4 C 97 % 1040,3 hPa 0,0 l/m 5,4 km/h (1 Bft) O-NO 73 0 min 0,000 mm 0,0 UV-I 0 W/m -3,8 C -3,4 C 6,4 km/h (2 Bft) 98,00 %
30.12.2016 03:08 -3,4 C 97 % 1040,3 hPa 0,0 l/m 3,8 km/h (1 Bft) O-NO 68 0 min 0,000 mm 0,0 UV-I 0 W/m -3,8 C -3,4 C 6,4 km/h (2 Bft) 100,00 %
30.12.2016 03:10 -3,5 C 97 % 1040,3 hPa 0,0 l/m 4,3 km/h (1 Bft) O-NO 74 0 min 0,000 mm 0,0 UV-I 0 W/m -3,9 C -3,5 C 6,4 km/h (2 Bft) 95,74 %
30.12.2016 03:12 -3,5 C 97 % 1040,3 hPa 0,0 l/m 3,5 km/h (1 Bft) O-NO 71 0 min 0,000 mm 0,0 UV-I 0 W/m -3,9 C -3,5 C 6,4 km/h (2 Bft) 95,74 %
30.12.2016 03:14 -3,5 C 97 % 1040,3 hPa 0,0 l/m 4,2 km/h (1 Bft) N-NO 30 0 min 0,000 mm 0,0 UV-I 0 W/m -3,9 C -3,5 C 6,4 km/h (2 Bft) 93,62 %
30.12.2016 03:16 -3,5 C 97 % 1040,3 hPa 0,0 l/m 2,3 km/h (1 Bft) N-NO 30 0 min 0,000 mm 0,0 UV-I 0 W/m -3,9 C -3,5 C 4,8 km/h (1 Bft) 98,04 %
30.12.2016 03:18 -3,5 C 97 % 1040,3 hPa 0,0 l/m 1,2 km/h (1 Bft) N-NO 26 0 min 0,000 mm 0,0 UV-I 0 W/m -3,9 C -3,5 C 4,8 km/h (1 Bft) 97,87 %
30.12.2016 03:20 -3,5 C 97 % 1040,4 hPa 0,0 l/m 3,9 km/h (1 Bft) NO 56 0 min 0,000 mm 0,0 UV-I 0 W/m -3,9 C -3,5 C 9,7 km/h (2 Bft) 95,74 %
30.12.2016 03:22 -3,4 C 97 % 1040,4 hPa 0,0 l/m 3,3 km/h (1 Bft) NO 49 0 min 0,000 mm 0,0 UV-I 0 W/m -3,8 C -3,4 C 6,4 km/h (2 Bft) 97,87 %
30.12.2016 03:24 -3,4 C 97 % 1040,4 hPa 0,0 l/m 4,4 km/h (1 Bft) NO 45 0 min 0,000 mm 0,0 UV-I 0 W/m -3,8 C -3,4 C 8,0 km/h (2 Bft) 97,87 %
30.12.2016 03:26 -3,4 C 97 % 1040,4 hPa 0,0 l/m 5,9 km/h (2 Bft) N-NO 29 0 min 0,000 mm 0,0 UV-I 0 W/m -3,8 C -3,4 C 8,0 km/h (2 Bft) 97,87 %
30.12.2016 03:28 -3,4 C 97 % 1040,4 hPa 0,0 l/m 5,3 km/h (1 Bft) NO 42 0 min 0,000 mm 0,0 UV-I 0 W/m -3,8 C -3,4 C 8,0 km/h (2 Bft) 95,74 %
30.12.2016 03:30 -3,4 C 97 % 1040,4 hPa 0,0 l/m 5,5 km/h (1 Bft) NO 48 0 min 0,000 mm 0,0 UV-I 0 W/m -3,8 C -3,4 C 11,3 km/h (2 Bft) 97,87 %
30.12.2016 03:32 -3,4 C 97 % 1040,5 hPa 0,0 l/m 8,2 km/h (2 Bft) NO 44 0 min 0,000 mm 0,0 UV-I 0 W/m -3,8 C -5,4 C 14,5 km/h (3 Bft) 97,87 %
30.12.2016 03:34 -3,4 C 97 % 1040,5 hPa 0,0 l/m 7,9 km/h (2 Bft) NO 40 0 min 0,000 mm 0,0 UV-I 0 W/m -3,8 C -5,1 C 12,9 km/h (3 Bft) 97,87 %
30.12.2016 03:36 -3,4 C 97 % 1040,5 hPa 0,0 l/m 7,2 km/h (2 Bft) NO 48 0 min 0,000 mm 0,0 UV-I 0 W/m -3,8 C -4,3 C 9,7 km/h (2 Bft) 97,87 %
30.12.2016 03:38 -3,4 C 97 % 1040,5 hPa 0,0 l/m 6,3 km/h (2 Bft) NO 40 0 min 0,000 mm 0,0 UV-I 0 W/m -3,8 C -3,4 C 9,7 km/h (2 Bft) 97,87 %
30.12.2016 03:40 -3,4 C 97 % 1040,5 hPa 0,0 l/m 8,0 km/h (2 Bft) NO 50 0 min 0,000 mm 0,0 UV-I 0 W/m -3,8 C -5,2 C 11,3 km/h (2 Bft) 95,74 %
30.12.2016 03:42 -3,4 C 97 % 1040,5 hPa 0,0 l/m 5,1 km/h (1 Bft) O 82 0 min 0,000 mm 0,0 UV-I 0 W/m -3,8 C -3,4 C 11,3 km/h (2 Bft) 97,44 %
30.12.2016 03:44 -3,4 C 97 % 1040,5 hPa 0,0 l/m 7,5 km/h (2 Bft) O-SO 117 0 min 0,000 mm 0,0 UV-I 0 W/m -3,8 C -4,7 C 11,3 km/h (2 Bft) 98,00 %
30.12.2016 03:46 -3,4 C 97 % 1040,5 hPa 0,0 l/m 4,4 km/h (1 Bft) O-SO 113 0 min 0,000 mm 0,0 UV-I 0 W/m -3,8 C -3,4 C 6,4 km/h (2 Bft) 95,74 %
30.12.2016 03:48 -3,4 C 97 % 1040,4 hPa 0,0 l/m 4,9 km/h (1 Bft) SO 138 0 min 0,000 mm 0,0 UV-I 0 W/m -3,8 C -3,4 C 6,4 km/h (2 Bft) 98,00 %
30.12.2016 03:50 -3,4 C 97 % 1040,4 hPa 0,0 l/m 5,0 km/h (1 Bft) O 87 0 min 0,000 mm 0,0 UV-I 0 W/m -3,8 C -3,4 C 6,4 km/h (2 Bft) 100,00 %
30.12.2016 03:52 -3,4 C 97 % 1040,4 hPa 0,0 l/m 4,3 km/h (1 Bft) O 87 0 min 0,000 mm 0,0 UV-I 0 W/m -3,8 C -3,4 C 8,0 km/h (2 Bft) 100,00 %
30.12.2016 03:54 -3,4 C 97 % 1040,3 hPa 0,0 l/m 4,4 km/h (1 Bft) SO 130 0 min 0,000 mm 0,0 UV-I 0 W/m -3,8 C -3,4 C 6,4 km/h (2 Bft) 100,00 %
30.12.2016 03:56 -3,4 C 97 % 1040,3 hPa 0,0 l/m 1,4 km/h (1 Bft) SO 145 0 min 0,000 mm 0,0 UV-I 0 W/m -3,8 C -3,4 C 3,2 km/h (1 Bft) 100,00 %
30.12.2016 03:58 -3,4 C 97 % 1040,3 hPa 0,0 l/m 1,6 km/h (1 Bft) S-SO 150 0 min 0,000 mm 0,0 UV-I 0 W/m -3,8 C -3,4 C 4,8 km/h (1 Bft) 97,87 %
30.12.2016 04:00 -3,4 C 97 % 1040,4 hPa 0,0 l/m 3,6 km/h (1 Bft) O-SO 116 0 min 0,000 mm 0,0 UV-I 0 W/m -3,8 C -3,4 C 6,4 km/h (2 Bft) 100,00 %
30.12.2016 04:02 -3,4 C 97 % 1040,4 hPa 0,0 l/m 5,1 km/h (1 Bft) SO 129 0 min 0,000 mm 0,0 UV-I 0 W/m -3,8 C -3,4 C 8,0 km/h (2 Bft) 100,00 %
30.12.2016 04:04 -3,4 C 97 % 1040,3 hPa 0,0 l/m 4,8 km/h (1 Bft) SO 124 0 min 0,000 mm 0,0 UV-I 0 W/m -3,8 C -3,4 C 9,7 km/h (2 Bft) 97,87 %
30.12.2016 04:06 -3,4 C 97 % 1040,4 hPa 0,0 l/m 4,9 km/h (1 Bft) O-NO 69 0 min 0,000 mm 0,0 UV-I 0 W/m -3,8 C -3,4 C 8,0 km/h (2 Bft) 100,00 %
30.12.2016 04:08 -3,4 C 97 % 1040,4 hPa 0,0 l/m 4,6 km/h (1 Bft) O-NO 63 0 min 0,000 mm 0,0 UV-I 0 W/m -3,8 C -3,4 C 8,0 km/h (2 Bft) 100,00 %
30.12.2016 04:10 -3,4 C 97 % 1040,4 hPa 0,0 l/m 4,2 km/h (1 Bft) O-NO 65 0 min 0,000 mm 0,0 UV-I 0 W/m -3,8 C -3,4 C 6,4 km/h (2 Bft) 97,87 %
30.12.2016 04:12 -3,4 C 97 % 1040,4 hPa 0,0 l/m 3,8 km/h (1 Bft) O-NO 66 0 min 0,000 mm 0,0 UV-I 0 W/m -3,8 C -3,4 C 6,4 km/h (2 Bft) 98,00 %
30.12.2016 04:14 -3,4 C 97 % 1040,4 hPa 0,0 l/m 0,4 km/h (0 Bft) O-NO 66 0 min 0,000 mm 0,0 UV-I 0 W/m -3,8 C -3,4 C 3,2 km/h (1 Bft) 100,00 %
30.12.2016 04:16 -3,4 C 97 % 1040,4 hPa 0,0 l/m 1,4 km/h (1 Bft) O-NO 66 0 min 0,000 mm 0,0 UV-I 0 W/m -3,8 C -3,4 C 4,8 km/h (1 Bft) 97,87 %
30.12.2016 04:18 -3,4 C 97 % 1040,4 hPa 0,0 l/m 1,8 km/h (1 Bft) O-NO 66 0 min 0,000 mm 0,0 UV-I 0 W/m -3,8 C -3,4 C 3,2 km/h (1 Bft) 97,87 %
30.12.2016 04:20 -3,4 C 97 % 1040,4 hPa 0,0 l/m 2,4 km/h (1 Bft) O-NO 66 0 min 0,000 mm 0,0 UV-I 0 W/m -3,8 C -3,4 C 4,8 km/h (1 Bft) 100,00 %
30.12.2016 04:22 -3,4 C 97 % 1040,4 hPa 0,0 l/m 3,5 km/h (1 Bft) O-NO 67 0 min 0,000 mm 0,0 UV-I 0 W/m -3,8 C -3,4 C 4,8 km/h (1 Bft) 100,00 %
30.12.2016 04:24 -3,4 C 97 % 1040,4 hPa 0,0 l/m 7,0 km/h (2 Bft) O-NO 62 0 min 0,000 mm 0,0 UV-I 0 W/m -3,8 C -4,1 C 9,7 km/h (2 Bft) 100,00 %
30.12.2016 04:26 -3,4 C 97 % 1040,4 hPa 0,0 l/m 8,8 km/h (2 Bft) O-NO 57 0 min 0,000 mm 0,0 UV-I 0 W/m -3,8 C -6,1 C 14,5 km/h (3 Bft) 100,00 %
30.12.2016 04:28 -3,4 C 97 % 1040,4 hPa 0,0 l/m 10,3 km/h (2 Bft) O-NO 68 0 min 0,000 mm 0,0 UV-I 0 W/m -3,8 C -7,5 C 16,1 km/h (3 Bft) 100,00 %
30.12.2016 04:30 -3,5 C 97 % 1040,4 hPa 0,0 l/m 8,1 km/h (2 Bft) O-NO 65 0 min 0,000 mm 0,0 UV-I 0 W/m -3,9 C -5,4 C 12,9 km/h (3 Bft) 100,00 %
30.12.2016 04:32 -3,5 C 97 % 1040,3 hPa 0,0 l/m 6,2 km/h (2 Bft) O 84 0 min 0,000 mm 0,0 UV-I 0 W/m -3,9 C -3,5 C 9,7 km/h (2 Bft) 97,50 %
30.12.2016 04:34 -3,6 C 97 % 1040,3 hPa 0,0 l/m 4,1 km/h (1 Bft) O-SO 105 0 min 0,000 mm 0,0 UV-I 0 W/m -4,0 C -3,6 C 6,4 km/h (2 Bft) 100,00 %
30.12.2016 04:36 -3,6 C 97 % 1040,3 hPa 0,0 l/m 1,7 km/h (1 Bft) O-SO 104 0 min 0,000 mm 0,0 UV-I 0 W/m -4,0 C -3,6 C 4,8 km/h (1 Bft) 100,00 %
30.12.2016 04:38 -3,6 C 97 % 1040,3 hPa 0,0 l/m 2,2 km/h (1 Bft) O-SO 103 0 min 0,000 mm 0,0 UV-I 0 W/m -4,0 C -3,6 C 6,4 km/h (2 Bft) 97,87 %
30.12.2016 04:40 -3,6 C 97 % 1040,3 hPa 0,0 l/m 4,0 km/h (1 Bft) O 86 0 min 0,000 mm 0,0 UV-I 0 W/m -4,0 C -3,6 C 6,4 km/h (2 Bft) 97,87 %
30.12.2016 04:42 -3,6 C 97 % 1040,3 hPa 0,0 l/m 3,2 km/h (1 Bft) O-NO 77 0 min 0,000 mm 0,0 UV-I 0 W/m -4,0 C -3,6 C 4,8 km/h (1 Bft) 100,00 %
30.12.2016 04:44 -3,6 C 97 % 1040,4 hPa 0,0 l/m 2,5 km/h (1 Bft) O-SO 121 0 min 0,000 mm 0,0 UV-I 0 W/m -4,0 C -3,6 C 4,8 km/h (1 Bft) 100,00 %
30.12.2016 04:46 -3,6 C 97 % 1040,4 hPa 0,0 l/m 1,6 km/h (1 Bft) O 101 0 min 0,000 mm 0,0 UV-I 0 W/m -4,0 C -3,6 C 4,8 km/h (1 Bft) 100,00 %
30.12.2016 04:48 -3,6 C 97 % 1040,4 hPa 0,0 l/m 2,9 km/h (1 Bft) O-SO 104 0 min 0,000 mm 0,0 UV-I 0 W/m -4,0 C -3,6 C 4,8 km/h (1 Bft) 98,00 %
30.12.2016 04:50 -3,6 C 97 % 1040,4 hPa 0,0 l/m 2,9 km/h (1 Bft) O-SO 104 0 min 0,000 mm 0,0 UV-I 0 W/m -4,0 C -3,6 C 4,8 km/h (1 Bft) 100,00 %
30.12.2016 04:52 -3,6 C 97 % 1040,5 hPa 0,0 l/m 2,0 km/h (1 Bft) O-SO 104 0 min 0,000 mm 0,0 UV-I 0 W/m -4,0 C -3,6 C 4,8 km/h (1 Bft) 100,00 %
30.12.2016 04:54 -3,6 C 97 % 1040,5 hPa 0,0 l/m 2,7 km/h (1 Bft) O-NO 64 0 min 0,000 mm 0,0 UV-I 0 W/m -4,0 C -3,6 C 4,8 km/h (1 Bft) 100,00 %
30.12.2016 04:56 -3,6 C 97 % 1040,4 hPa 0,0 l/m 4,2 km/h (1 Bft) O-NO 60 0 min 0,000 mm 0,0 UV-I 0 W/m -4,0 C -3,6 C 8,0 km/h (2 Bft) 100,00 %
30.12.2016 04:58 -3,6 C 97 % 1040,4 hPa 0,0 l/m 5,9 km/h (2 Bft) O-NO 63 0 min 0,000 mm 0,0 UV-I 0 W/m -4,0 C -3,6 C 9,7 km/h (2 Bft) 100,00 %
30.12.2016 05:00 -3,6 C 97 % 1040,4 hPa 0,0 l/m 5,5 km/h (1 Bft) O-NO 69 0 min 0,000 mm 0,0 UV-I 0 W/m -4,0 C -3,6 C 8,0 km/h (2 Bft) 100,00 %
30.12.2016 05:02 -3,6 C 97 % 1040,3 hPa 0,0 l/m 5,6 km/h (1 Bft) NO 42 0 min 0,000 mm 0,0 UV-I 0 W/m -4,0 C -3,6 C 8,0 km/h (2 Bft) 100,00 %
30.12.2016 05:04 -3,6 C 97 % 1040,3 hPa 0,0 l/m 2,3 km/h (1 Bft) N-NO 32 0 min 0,000 mm 0,0 UV-I 0 W/m -4,0 C -3,6 C 4,8 km/h (1 Bft) 97,87 %
30.12.2016 05:06 -3,6 C 97 % 1040,3 hPa 0,0 l/m 1,2 km/h (1 Bft) N-NO 32 0 min 0,000 mm 0,0 UV-I 0 W/m -4,0 C -3,6 C 4,8 km/h (1 Bft) 95,74 %
30.12.2016 05:08 -3,6 C 97 % 1040,3 hPa 0,0 l/m 1,3 km/h (1 Bft) N-NO 32 0 min 0,000 mm 0,0 UV-I 0 W/m -4,0 C -3,6 C 3,2 km/h (1 Bft) 97,87 %
30.12.2016 05:10 -3,6 C 97 % 1040,3 hPa 0,0 l/m 3,5 km/h (1 Bft) NO 34 0 min 0,000 mm 0,0 UV-I 0 W/m -4,0 C -3,6 C 8,0 km/h (2 Bft) 100,00 %
30.12.2016 05:12 -3,6 C 97 % 1040,2 hPa 0,0 l/m 4,1 km/h (1 Bft) NO 45 0 min 0,000 mm 0,0 UV-I 0 W/m -4,0 C -3,6 C 6,4 km/h (2 Bft) 97,87 %
30.12.2016 05:14 -3,6 C 97 % 1040,2 hPa 0,0 l/m 3,1 km/h (1 Bft) O-NO 72 0 min 0,000 mm 0,0 UV-I 0 W/m -4,0 C -3,6 C 4,8 km/h (1 Bft) 95,74 %
30.12.2016 05:16 -3,6 C 97 % 1040,2 hPa 0,0 l/m 0,9 km/h (0 Bft) O 90 0 min 0,000 mm 0,0 UV-I 0 W/m -4,0 C -3,6 C 3,2 km/h (1 Bft) 94,74 %
30.12.2016 05:18 -3,6 C 97 % 1040,2 hPa 0,0 l/m 2,3 km/h (1 Bft) O-NO 69 0 min 0,000 mm 0,0 UV-I 0 W/m -4,0 C -3,6 C 4,8 km/h (1 Bft) 95,74 %
30.12.2016 05:20 -3,6 C 97 % 1040,2 hPa 0,0 l/m 2,8 km/h (1 Bft) O 80 0 min 0,000 mm 0,0 UV-I 0 W/m -4,0 C -3,6 C 6,4 km/h (2 Bft) 97,87 %
30.12.2016 05:22 -3,6 C 97 % 1040,2 hPa 0,0 l/m 6,4 km/h (2 Bft) O-NO 74 0 min 0,000 mm 0,0 UV-I 0 W/m -4,0 C -3,5 C 9,7 km/h (2 Bft) 97,87 %
30.12.2016 05:24 -3,6 C 97 % 1040,2 hPa 0,0 l/m 2,8 km/h (1 Bft) O-NO 74 0 min 0,000 mm 0,0 UV-I 0 W/m -4,0 C -3,6 C 6,4 km/h (2 Bft) 96,00 %
30.12.2016 05:26 -3,6 C 97 % 1040,2 hPa 0,0 l/m 0,8 km/h (0 Bft) O-NO 74 0 min 0,000 mm 0,0 UV-I 0 W/m -4,0 C -3,6 C 4,8 km/h (1 Bft) 95,74 %
30.12.2016 05:28 -3,6 C 97 % 1040,1 hPa 0,0 l/m 3,9 km/h (1 Bft) O-NO 67 0 min 0,000 mm 0,0 UV-I 0 W/m -4,0 C -3,6 C 6,4 km/h (2 Bft) 95,74 %
30.12.2016 05:30 -3,6 C 97 % 1040,1 hPa 0,0 l/m 4,2 km/h (1 Bft) O-NO 77 0 min 0,000 mm 0,0 UV-I 0 W/m -4,0 C -3,6 C 8,0 km/h (2 Bft) 96,00 %
30.12.2016 05:32 -3,6 C 97 % 1040,2 hPa 0,0 l/m 4,9 km/h (1 Bft) O-NO 77 0 min 0,000 mm 0,0 UV-I 0 W/m -4,0 C -3,6 C 8,0 km/h (2 Bft) 97,87 %
30.12.2016 05:34 -3,6 C 97 % 1040,2 hPa 0,0 l/m 5,0 km/h (1 Bft) O-NO 65 0 min 0,000 mm 0,0 UV-I 0 W/m -4,0 C -3,6 C 8,0 km/h (2 Bft) 97,87 %
30.12.2016 05:36 -3,6 C 97 % 1040,2 hPa 0,0 l/m 4,5 km/h (1 Bft) NO 40 0 min 0,000 mm 0,0 UV-I 0 W/m -4,0 C -3,6 C 6,4 km/h (2 Bft) 95,74 %
30.12.2016 05:38 -3,6 C 97 % 1040,2 hPa 0,0 l/m 3,7 km/h (1 Bft) NO 40 0 min 0,000 mm 0,0 UV-I 0 W/m -4,0 C -3,6 C 4,8 km/h (1 Bft) 93,62 %
30.12.2016 05:40 -3,6 C 97 % 1040,2 hPa 0,0 l/m 3,4 km/h (1 Bft) NO 46 0 min 0,000 mm 0,0 UV-I 0 W/m -4,0 C -3,6 C 6,4 km/h (2 Bft) 97,87 %
30.12.2016 05:42 -3,6 C 97 % 1040,1 hPa 0,0 l/m 5,7 km/h (1 Bft) O-NO 71 0 min 0,000 mm 0,0 UV-I 0 W/m -4,0 C -3,6 C 9,7 km/h (2 Bft) 95,74 %
30.12.2016 05:44 -3,6 C 97 % 1040,2 hPa 0,0 l/m 5,6 km/h (1 Bft) O 101 0 min 0,000 mm 0,0 UV-I 0 W/m -4,0 C -3,6 C 9,7 km/h (2 Bft) 97,92 %
30.12.2016 05:46 -3,6 C 97 % 1040,1 hPa 0,0 l/m 3,6 km/h (1 Bft) O-NO 76 0 min 0,000 mm 0,0 UV-I 0 W/m -4,0 C -3,6 C 4,8 km/h (1 Bft) 94,74 %
30.12.2016 05:48 -3,6 C 97 % 1040,1 hPa 0,0 l/m 4,1 km/h (1 Bft) NO 37 0 min 0,000 mm 0,0 UV-I 0 W/m -4,0 C -3,6 C 8,0 km/h (2 Bft) 96,00 %
30.12.2016 05:50 -3,6 C 97 % 1040,1 hPa 0,0 l/m 7,6 km/h (2 Bft) O 95 0 min 0,000 mm 0,0 UV-I 0 W/m -4,0 C -5,0 C 12,9 km/h (3 Bft) 100,00 %
30.12.2016 05:52 -3,6 C 97 % 1040,1 hPa 0,0 l/m 5,4 km/h (1 Bft) O-SO 106 0 min 0,000 mm 0,0 UV-I 0 W/m -4,0 C -3,6 C 9,7 km/h (2 Bft) 100,00 %
30.12.2016 05:54 -3,6 C 97 % 1040,0 hPa 0,0 l/m 1,1 km/h (1 Bft) O-SO 115 0 min 0,000 mm 0,0 UV-I 0 W/m -4,0 C -3,6 C 3,2 km/h (1 Bft) 97,87 %
30.12.2016 05:56 -3,6 C 97 % 1040,1 hPa 0,0 l/m 1,0 km/h (0 Bft) O-SO 115 0 min 0,000 mm 0,0 UV-I 0 W/m -4,0 C -3,6 C 3,2 km/h (1 Bft) 97,87 %
30.12.2016 05:58 -3,6 C 97 % 1040,1 hPa 0,0 l/m 1,7 km/h (1 Bft) O-SO 115 0 min 0,000 mm 0,0 UV-I 0 W/m -4,0 C -3,6 C 3,2 km/h (1 Bft) 95,74 %
30.12.2016 06:00 -3,6 C 97 % 1040,2 hPa 0,0 l/m 2,7 km/h (1 Bft) O 92 0 min 0,000 mm 0,0 UV-I 0 W/m -4,0 C -3,6 C 4,8 km/h (1 Bft) 100,00 %
30.12.2016 06:02 -3,6 C 97 % 1040,2 hPa 0,0 l/m 6,4 km/h (2 Bft) O 82 0 min 0,000 mm 0,0 UV-I 0 W/m -4,0 C -3,5 C 11,3 km/h (2 Bft) 100,00 %
30.12.2016 06:04 -3,6 C 97 % 1040,2 hPa 0,0 l/m 3,4 km/h (1 Bft) O-NO 59 0 min 0,000 mm 0,0 UV-I 0 W/m -4,0 C -3,6 C 6,4 km/h (2 Bft) 97,87 %
30.12.2016 06:06 -3,6 C 97 % 1040,1 hPa 0,0 l/m 3,2 km/h (1 Bft) O-NO 59 0 min 0,000 mm 0,0 UV-I 0 W/m -4,0 C -3,6 C 4,8 km/h (1 Bft) 97,87 %
30.12.2016 06:08 -3,7 C 97 % 1040,1 hPa 0,0 l/m 4,8 km/h (1 Bft) NO 53 0 min 0,000 mm 0,0 UV-I 0 W/m -4,1 C -3,7 C 6,4 km/h (2 Bft) 100,00 %
30.12.2016 06:10 -3,7 C 97 % 1040,1 hPa 0,0 l/m 4,5 km/h (1 Bft) O-NO 59 0 min 0,000 mm 0,0 UV-I 0 W/m -4,1 C -3,7 C 6,4 km/h (2 Bft) 100,00 %
30.12.2016 06:12 -3,7 C 97 % 1040,1 hPa 0,0 l/m 4,0 km/h (1 Bft) O-NO 59 0 min 0,000 mm 0,0 UV-I 0 W/m -4,1 C -3,7 C 6,4 km/h (2 Bft) 97,92 %
30.12.2016 06:14 -3,7 C 97 % 1040,1 hPa 0,0 l/m 3,6 km/h (1 Bft) O-NO 68 0 min 0,000 mm 0,0 UV-I 0 W/m -4,1 C -3,7 C 8,0 km/h (2 Bft) 100,00 %
30.12.2016 06:16 -3,7 C 96 % 1040,1 hPa 0,0 l/m 5,2 km/h (1 Bft) O 83 0 min 0,000 mm 0,0 UV-I 0 W/m -4,2 C -3,7 C 8,0 km/h (2 Bft) 100,00 %
30.12.2016 06:18 -3,7 C 96 % 1040,1 hPa 0,0 l/m 5,1 km/h (1 Bft) O-NO 74 0 min 0,000 mm 0,0 UV-I 0 W/m -4,2 C -3,7 C 11,3 km/h (2 Bft) 100,00 %
30.12.2016 06:20 -3,8 C 96 % 1040,1 hPa 0,0 l/m 5,5 km/h (1 Bft) O-NO 65 0 min 0,000 mm 0,0 UV-I 0 W/m -4,3 C -3,8 C 6,4 km/h (2 Bft) 97,87 %
30.12.2016 06:22 -3,8 C 96 % 1040,1 hPa 0,0 l/m 3,7 km/h (1 Bft) O-NO 67 0 min 0,000 mm 0,0 UV-I 0 W/m -4,3 C -3,8 C 6,4 km/h (2 Bft) 100,00 %
30.12.2016 06:24 -3,8 C 96 % 1040,0 hPa 0,0 l/m 1,8 km/h (1 Bft) O-NO 67 0 min 0,000 mm 0,0 UV-I 0 W/m -4,3 C -3,8 C 4,8 km/h (1 Bft) 100,00 %
30.12.2016 06:26 -3,8 C 96 % 1040,1 hPa 0,0 l/m 0,2 km/h (0 Bft) O-NO 67 0 min 0,000 mm 0,0 UV-I 0 W/m -4,3 C -3,8 C 1,6 km/h (1 Bft) 100,00 %
30.12.2016 06:28 -3,8 C 97 % 1040,1 hPa 0,0 l/m 2,0 km/h (1 Bft) SO 126 0 min 0,000 mm 0,0 UV-I 0 W/m -4,2 C -3,8 C 4,8 km/h (1 Bft) 100,00 %
30.12.2016 06:30 -3,8 C 97 % 1040,1 hPa 0,0 l/m 0,3 km/h (0 Bft) SO 126 0 min 0,000 mm 0,0 UV-I 0 W/m -4,2 C -3,8 C 3,2 km/h (1 Bft) 100,00 %
30.12.2016 06:32 -3,8 C 97 % 1040,1 hPa 0,0 l/m 0,0 km/h (0 Bft) SO 126 0 min 0,000 mm 0,0 UV-I 0 W/m -4,2 C -3,8 C 0,0 km/h (0 Bft) 100,00 %
30.12.2016 06:34 -3,8 C 97 % 1040,1 hPa 0,0 l/m 0,0 km/h (0 Bft) SO 126 0 min 0,000 mm 0,0 UV-I 0 W/m -4,2 C -3,8 C 0,0 km/h (0 Bft) 100,00 %
30.12.2016 06:36 -3,8 C 97 % 1040,1 hPa 0,0 l/m 1,7 km/h (1 Bft) O 86 0 min 0,000 mm 0,0 UV-I 0 W/m -4,2 C -3,8 C 4,8 km/h (1 Bft) 100,00 %
30.12.2016 06:38 -3,8 C 97 % 1040,1 hPa 0,0 l/m 4,9 km/h (1 Bft) NO 51 0 min 0,000 mm 0,0 UV-I 0 W/m -4,2 C -3,8 C 6,4 km/h (2 Bft) 100,00 %
30.12.2016 06:40 -3,8 C 97 % 1040,1 hPa 0,0 l/m 5,2 km/h (1 Bft) O-NO 74 0 min 0,000 mm 0,0 UV-I 0 W/m -4,2 C -3,8 C 6,4 km/h (2 Bft) 100,00 %
30.12.2016 06:42 -3,8 C 97 % 1040,0 hPa 0,0 l/m 5,9 km/h (2 Bft) O-NO 78 0 min 0,000 mm 0,0 UV-I 0 W/m -4,2 C -3,8 C 8,0 km/h (2 Bft) 97,87 %
30.12.2016 06:44 -3,8 C 97 % 1040,0 hPa 0,0 l/m 3,6 km/h (1 Bft) O 82 0 min 0,000 mm 0,0 UV-I 0 W/m -4,2 C -3,8 C 6,4 km/h (2 Bft) 95,74 %
30.12.2016 06:46 -3,8 C 97 % 1040,0 hPa 0,0 l/m 5,1 km/h (1 Bft) O 101 0 min 0,000 mm 0,0 UV-I 0 W/m -4,2 C -3,8 C 6,4 km/h (2 Bft) 100,00 %
30.12.2016 06:48 -3,8 C 97 % 1040,0 hPa 0,0 l/m 4,9 km/h (1 Bft) O-SO 102 0 min 0,000 mm 0,0 UV-I 0 W/m -4,2 C -3,8 C 9,7 km/h (2 Bft) 100,00 %
30.12.2016 06:50 -3,8 C 96 % 1040,1 hPa 0,0 l/m 4,6 km/h (1 Bft) O 92 0 min 0,000 mm 0,0 UV-I 0 W/m -4,3 C -3,8 C 9,7 km/h (2 Bft) 100,00 %
30.12.2016 06:52 -3,8 C 96 % 1040,1 hPa 0,0 l/m 2,8 km/h (1 Bft) O 96 0 min 0,000 mm 0,0 UV-I 0 W/m -4,3 C -3,8 C 4,8 km/h (1 Bft) 100,00 %
30.12.2016 06:54 -3,8 C 96 % 1040,1 hPa 0,0 l/m 2,4 km/h (1 Bft) O 96 0 min 0,000 mm 0,0 UV-I 0 W/m -4,3 C -3,8 C 4,8 km/h (1 Bft) 97,87 %
30.12.2016 06:56 -3,9 C 97 % 1040,2 hPa 0,0 l/m 4,1 km/h (1 Bft) O 100 0 min 0,000 mm 0,0 UV-I 0 W/m -4,3 C -3,9 C 6,4 km/h (2 Bft) 100,00 %
30.12.2016 06:58 -3,9 C 96 % 1040,2 hPa 0,0 l/m 5,9 km/h (2 Bft) O 88 0 min 0,000 mm 0,0 UV-I 0 W/m -4,4 C -3,9 C 9,7 km/h (2 Bft) 100,00 %
30.12.2016 07:00 -3,9 C 96 % 1040,2 hPa 0,0 l/m 4,1 km/h (1 Bft) O-SO 104 0 min 0,000 mm 0,0 UV-I 0 W/m -4,4 C -3,9 C 4,8 km/h (1 Bft) 100,00 %
30.12.2016 07:02 -3,9 C 97 % 1040,1 hPa 0,0 l/m 3,2 km/h (1 Bft) O-SO 113 0 min 0,000 mm 0,0 UV-I 0 W/m -4,3 C -3,9 C 4,8 km/h (1 Bft) 100,00 %
30.12.2016 07:04 -3,9 C 97 % 1040,1 hPa 0,0 l/m 1,5 km/h (1 Bft) O-SO 105 0 min 0,000 mm 0,0 UV-I 0 W/m -4,3 C -3,9 C 4,8 km/h (1 Bft) 97,87 %
30.12.2016 07:06 -3,9 C 97 % 1040,2 hPa 0,0 l/m 3,2 km/h (1 Bft) O 98 0 min 0,000 mm 0,0 UV-I 0 W/m -4,3 C -3,9 C 4,8 km/h (1 Bft) 100,00 %
30.12.2016 07:08 -3,9 C 96 % 1040,1 hPa 0,0 l/m 2,7 km/h (1 Bft) O 96 0 min 0,000 mm 0,0 UV-I 0 W/m -4,4 C -3,9 C 4,8 km/h (1 Bft) 97,87 %
30.12.2016 07:10 -3,9 C 96 % 1040,1 hPa 0,0 l/m 0,7 km/h (0 Bft) O 96 0 min 0,000 mm 0,0 UV-I 0 W/m -4,4 C -3,9 C 1,6 km/h (1 Bft) 95,83 %
30.12.2016 07:12 -4,0 C 97 % 1040,2 hPa 0,0 l/m 4,2 km/h (1 Bft) NO 49 0 min 0,000 mm 0,0 UV-I 0 W/m -4,4 C -4,0 C 6,4 km/h (2 Bft) 98,00 %
30.12.2016 07:14 -3,9 C 97 % 1040,1 hPa 0,0 l/m 2,1 km/h (1 Bft) NO 49 0 min 0,000 mm 0,0 UV-I 0 W/m -4,3 C -3,9 C 4,8 km/h (1 Bft) 100,00 %
30.12.2016 07:16 -3,9 C 97 % 1040,1 hPa 0,0 l/m 0,0 km/h (0 Bft) NO 46 0 min 0,000 mm 0,0 UV-I 0 W/m -4,3 C -3,9 C 1,6 km/h (1 Bft) 100,00 %
30.12.2016 07:18 -4,0 C 97 % 1040,1 hPa 0,0 l/m 2,0 km/h (1 Bft) NO 46 0 min 0,000 mm 0,0 UV-I 0 W/m -4,4 C -4,0 C 4,8 km/h (1 Bft) 95,74 %
30.12.2016 07:20 -4,0 C 97 % 1040,1 hPa 0,0 l/m 3,2 km/h (1 Bft) O-NO 69 0 min 0,000 mm 0,0 UV-I 0 W/m -4,4 C -4,0 C 4,8 km/h (1 Bft) 95,74 %
30.12.2016 07:22 -4,0 C 96 % 1040,2 hPa 0,0 l/m 4,9 km/h (1 Bft) O 84 0 min 0,000 mm 0,0 UV-I 0 W/m -4,5 C -4,0 C 8,0 km/h (2 Bft) 97,87 %
30.12.2016 07:24 -4,1 C 96 % 1040,2 hPa 0,0 l/m 4,0 km/h (1 Bft) O 93 0 min 0,000 mm 0,0 UV-I 0 W/m -4,6 C -4,1 C 6,4 km/h (2 Bft) 97,87 %
30.12.2016 07:26 -4,1 C 96 % 1040,2 hPa 0,0 l/m 1,9 km/h (1 Bft) O-SO 106 0 min 0,000 mm 0,0 UV-I 0 W/m -4,6 C -4,1 C 4,8 km/h (1 Bft) 95,74 %
30.12.2016 07:28 -4,1 C 96 % 1040,2 hPa 0,0 l/m 3,7 km/h (1 Bft) SO 124 0 min 0,000 mm 0,0 UV-I 0 W/m -4,6 C -4,1 C 8,0 km/h (2 Bft) 95,74 %
30.12.2016 07:30 -4,1 C 96 % 1040,2 hPa 0,0 l/m 2,6 km/h (1 Bft) O-SO 113 0 min 0,000 mm 0,0 UV-I 0 W/m -4,6 C -4,1 C 6,4 km/h (2 Bft) 94,74 %
30.12.2016 07:32 -4,1 C 96 % 1040,2 hPa 0,0 l/m 0,3 km/h (0 Bft) O-SO 113 0 min 0,000 mm 0,0 UV-I 0 W/m -4,6 C -4,1 C 1,6 km/h (1 Bft) 96,00 %
30.12.2016 07:34 -4,1 C 96 % 1040,2 hPa 0,0 l/m 1,2 km/h (1 Bft) O-SO 113 0 min 0,000 mm 0,0 UV-I 0 W/m -4,6 C -4,1 C 3,2 km/h (1 Bft) 97,87 %
30.12.2016 07:36 -4,1 C 96 % 1040,1 hPa 0,0 l/m 4,5 km/h (1 Bft) O-NO 75 0 min 0,000 mm 0,0 UV-I 0 W/m -4,6 C -4,1 C 8,0 km/h (2 Bft) 95,74 %
30.12.2016 07:38 -4,1 C 96 % 1040,1 hPa 0,0 l/m 6,8 km/h (2 Bft) NO 44 0 min 0,000 mm 0,0 UV-I 0 W/m -4,6 C -4,6 C 11,3 km/h (2 Bft) 95,74 %
30.12.2016 07:40 -4,0 C 96 % 1040,1 hPa 0,0 l/m 6,4 km/h (2 Bft) N-NO 32 0 min 0,000 mm 0,0 UV-I 0 W/m -4,5 C -3,9 C 9,7 km/h (2 Bft) 97,92 %
30.12.2016 07:42 -4,0 C 96 % 1040,2 hPa 0,0 l/m 2,8 km/h (1 Bft) N-NO 32 0 min 0,000 mm 0,0 UV-I 0 W/m -4,5 C -4,0 C 6,4 km/h (2 Bft) 97,87 %
30.12.2016 07:44 -4,0 C 97 % 1040,2 hPa 0,0 l/m 3,3 km/h (1 Bft) NO 42 0 min 0,000 mm 0,0 UV-I 0 W/m -4,4 C -4,0 C 4,8 km/h (1 Bft) 98,00 %
30.12.2016 07:46 -4,0 C 97 % 1040,3 hPa 0,0 l/m 3,3 km/h (1 Bft) NO 42 0 min 0,000 mm 0,0 UV-I 2 W/m -4,4 C -4,0 C 4,8 km/h (1 Bft) 97,87 %
30.12.2016 07:48 -4,0 C 97 % 1040,3 hPa 0,0 l/m 4,7 km/h (1 Bft) NO 51 0 min 0,000 mm 0,0 UV-I 5 W/m -4,4 C -4,0 C 8,0 km/h (2 Bft) 93,62 %
30.12.2016 07:50 -4,0 C 97 % 1040,3 hPa 0,0 l/m 4,7 km/h (1 Bft) NO 51 0 min 0,000 mm 0,0 UV-I 5 W/m -4,4 C -4,0 C 6,4 km/h (2 Bft) 97,87 %
30.12.2016 07:52 -4,0 C 97 % 1040,2 hPa 0,0 l/m 3,0 km/h (1 Bft) NO 42 0 min 0,000 mm 0,0 UV-I 5 W/m -4,4 C -4,0 C 6,4 km/h (2 Bft) 95,74 %
30.12.2016 07:54 -4,0 C 97 % 1040,2 hPa 0,0 l/m 3,8 km/h (1 Bft) N-NO 27 0 min 0,000 mm 0,0 UV-I 5 W/m -4,4 C -4,0 C 6,4 km/h (2 Bft) 100,00 %
30.12.2016 07:56 -4,0 C 97 % 1040,1 hPa 0,0 l/m 2,6 km/h (1 Bft) NO 39 0 min 0,000 mm 0,0 UV-I 5 W/m -4,4 C -4,0 C 6,4 km/h (2 Bft) 97,87 %
30.12.2016 07:58 -4,0 C 97 % 1040,1 hPa 0,0 l/m 0,4 km/h (0 Bft) N-NO 31 0 min 0,000 mm 0,0 UV-I 5 W/m -4,4 C -4,0 C 1,6 km/h (1 Bft) 97,14 %
30.12.2016 08:00 -4,0 C 97 % 1040,1 hPa 0,0 l/m 0,2 km/h (0 Bft) N-NO 31 0 min 0,000 mm 0,0 UV-I 6 W/m -4,4 C -4,0 C 1,6 km/h (1 Bft) 98,00 %
30.12.2016 08:02 -4,0 C 97 % 1040,0 hPa 0,0 l/m 1,2 km/h (1 Bft) N-NO 31 0 min 0,000 mm 0,0 UV-I 7 W/m -4,4 C -4,0 C 3,2 km/h (1 Bft) 100,00 %
30.12.2016 08:04 -4,0 C 97 % 1040,0 hPa 0,0 l/m 0,2 km/h (0 Bft) N-NO 31 0 min 0,000 mm 0,0 UV-I 9 W/m -4,4 C -4,0 C 1,6 km/h (1 Bft) 97,87 %
30.12.2016 08:06 -4,0 C 97 % 1040,1 hPa 0,0 l/m 2,1 km/h (1 Bft) O-NO 59 0 min 0,000 mm 0,0 UV-I 9 W/m -4,4 C -4,0 C 6,4 km/h (2 Bft) 100,00 %
30.12.2016 08:08 -4,0 C 97 % 1040,1 hPa 0,0 l/m 3,2 km/h (1 Bft) NO 53 0 min 0,000 mm 0,0 UV-I 10 W/m -4,4 C -4,0 C 4,8 km/h (1 Bft) 100,00 %
30.12.2016 08:10 -4,0 C 97 % 1040,2 hPa 0,0 l/m 1,6 km/h (1 Bft) NO 53 0 min 0,000 mm 0,0 UV-I 11 W/m -4,4 C -4,0 C 4,8 km/h (1 Bft) 93,62 %
30.12.2016 08:12 -4,0 C 97 % 1040,2 hPa 0,0 l/m 1,1 km/h (1 Bft) NO 42 0 min 0,000 mm 0,0 UV-I 10 W/m -4,4 C -4,0 C 4,8 km/h (1 Bft) 100,00 %
30.12.2016 08:14 -4,0 C 97 % 1040,2 hPa 0,0 l/m 3,3 km/h (1 Bft) NO 42 0 min 0,000 mm 0,0 UV-I 11 W/m -4,4 C -4,0 C 4,8 km/h (1 Bft) 98,00 %
30.12.2016 08:16 -4,0 C 97 % 1040,2 hPa 0,0 l/m 2,1 km/h (1 Bft) NO 42 0 min 0,000 mm 0,0 UV-I 11 W/m -4,4 C -4,0 C 4,8 km/h (1 Bft) 100,00 %
30.12.2016 08:18 -4,0 C 97 % 1040,2 hPa 0,0 l/m 1,8 km/h (1 Bft) NO 39 0 min 0,000 mm 0,0 UV-I 12 W/m -4,4 C -4,0 C 4,8 km/h (1 Bft) 100,00 %
30.12.2016 08:20 -4,0 C 97 % 1040,3 hPa 0,0 l/m 1,0 km/h (0 Bft) NO 39 0 min 0,000 mm 0,0 UV-I 12 W/m -4,4 C -4,0 C 4,8 km/h (1 Bft) 97,87 %
30.12.2016 08:22 -3,9 C 97 % 1040,2 hPa 0,0 l/m 2,1 km/h (1 Bft) NO 39 0 min 0,000 mm 0,0 UV-I 13 W/m -4,3 C -3,9 C 3,2 km/h (1 Bft) 97,92 %
30.12.2016 08:24 -3,9 C 97 % 1040,2 hPa 0,0 l/m 0,4 km/h (0 Bft) NO 39 0 min 0,000 mm 0,0 UV-I 16 W/m -4,3 C -3,9 C 1,6 km/h (1 Bft) 100,00 %
30.12.2016 08:26 -3,9 C 97 % 1040,1 hPa 0,0 l/m 0,2 km/h (0 Bft) NO 39 0 min 0,000 mm 0,0 UV-I 18 W/m -4,3 C -3,9 C 1,6 km/h (1 Bft) 100,00 %
30.12.2016 08:28 -3,9 C 97 % 1040,2 hPa 0,0 l/m 1,6 km/h (1 Bft) O-NO 71 0 min 0,000 mm 0,0 UV-I 18 W/m -4,3 C -3,9 C 4,8 km/h (1 Bft) 100,00 %
30.12.2016 08:30 -3,9 C 97 % 1040,2 hPa 0,0 l/m 3,5 km/h (1 Bft) O-SO 120 0 min 0,000 mm 0,0 UV-I 18 W/m -4,3 C -3,9 C 4,8 km/h (1 Bft) 100,00 %
30.12.2016 08:32 -3,9 C 97 % 1040,2 hPa 0,0 l/m 3,0 km/h (1 Bft) O-SO 115 0 min 0,000 mm 0,0 UV-I 18 W/m -4,3 C -3,9 C 4,8 km/h (1 Bft) 100,00 %
30.12.2016 08:34 -3,9 C 97 % 1040,2 hPa 0,0 l/m 0,3 km/h (0 Bft) O-SO 115 0 min 0,000 mm 0,0 UV-I 19 W/m -4,3 C -3,9 C 3,2 km/h (1 Bft) 97,87 %
30.12.2016 08:36 -3,9 C 97 % 1040,2 hPa 0,0 l/m 1,7 km/h (1 Bft) O-SO 115 0 min 0,000 mm 0,0 UV-I 21 W/m -4,3 C -3,9 C 3,2 km/h (1 Bft) 100,00 %
30.12.2016 08:38 -3,9 C 97 % 1040,2 hPa 0,0 l/m 0,4 km/h (0 Bft) O-SO 115 0 min 0,000 mm 0,0 UV-I 21 W/m -4,3 C -3,9 C 1,6 km/h (1 Bft) 97,87 %
30.12.2016 08:40 -3,9 C 97 % 1040,3 hPa 0,0 l/m 1,0 km/h (0 Bft) O-SO 115 0 min 0,000 mm 0,0 UV-I 21 W/m -4,3 C -3,9 C 3,2 km/h (1 Bft) 97,87 %
30.12.2016 08:42 -3,9 C 97 % 1040,3 hPa 0,0 l/m 3,6 km/h (1 Bft) O-NO 63 0 min 0,000 mm 0,0 UV-I 21 W/m -4,3 C -3,9 C 6,4 km/h (2 Bft) 100,00 %
30.12.2016 08:44 -3,9 C 97 % 1040,3 hPa 0,0 l/m 0,7 km/h (0 Bft) O-NO 60 0 min 0,000 mm 0,0 UV-I 23 W/m -4,3 C -3,9 C 3,2 km/h (1 Bft) 100,00 %
30.12.2016 08:46 -3,9 C 97 % 1040,3 hPa 0,0 l/m 0,9 km/h (0 Bft) NO 55 0 min 0,000 mm 0,0 UV-I 21 W/m -4,3 C -3,9 C 3,2 km/h (1 Bft) 97,87 %
30.12.2016 08:48 -3,9 C 97 % 1040,4 hPa 0,0 l/m 3,7 km/h (1 Bft) N-NO 30 0 min 0,000 mm 0,0 UV-I 23 W/m -4,3 C -3,9 C 6,4 km/h (2 Bft) 100,00 %
30.12.2016 08:50 -3,9 C 97 % 1040,4 hPa 0,0 l/m 1,7 km/h (1 Bft) N-NO 32 0 min 0,000 mm 0,0 UV-I 25 W/m -4,3 C -3,9 C 4,8 km/h (1 Bft) 97,87 %
30.12.2016 08:52 -3,9 C 97 % 1040,4 hPa 0,0 l/m 3,1 km/h (1 Bft) N-NO 29 0 min 0,000 mm 0,0 UV-I 24 W/m -4,3 C -3,9 C 6,4 km/h (2 Bft) 100,00 %
30.12.2016 08:54 -3,9 C 97 % 1040,4 hPa 0,0 l/m 3,8 km/h (1 Bft) NO 46 0 min 0,000 mm 0,0 UV-I 25 W/m -4,3 C -3,9 C 4,8 km/h (1 Bft) 100,00 %
30.12.2016 08:56 -3,9 C 97 % 1040,4 hPa 0,0 l/m 3,6 km/h (1 Bft) NO 36 0 min 0,000 mm 0,0 UV-I 26 W/m -4,3 C -3,9 C 6,4 km/h (2 Bft) 100,00 %
30.12.2016 08:58 -3,8 C 97 % 1040,4 hPa 0,0 l/m 4,9 km/h (1 Bft) NO 36 0 min 0,000 mm 0,0 UV-I 28 W/m -4,2 C -3,8 C 8,0 km/h (2 Bft) 100,00 %
30.12.2016 09:00 -3,8 C 97 % 1040,4 hPa 0,0 l/m 4,9 km/h (1 Bft) NO 43 0 min 0,000 mm 0,0 UV-I 29 W/m -4,2 C -3,8 C 8,0 km/h (2 Bft) 100,00 %
30.12.2016 09:02 -3,8 C 97 % 1040,4 hPa 0,0 l/m 5,2 km/h (1 Bft) NO 42 0 min 0,000 mm 0,0 UV-I 30 W/m -4,2 C -3,8 C 8,0 km/h (2 Bft) 97,92 %
30.12.2016 09:04 -3,8 C 97 % 1040,4 hPa 0,0 l/m 5,1 km/h (1 Bft) NO 54 0 min 0,000 mm 0,0 UV-I 32 W/m -4,2 C -3,8 C 8,0 km/h (2 Bft) 100,00 %
30.12.2016 09:06 -3,8 C 97 % 1040,4 hPa 0,0 l/m 5,7 km/h (1 Bft) NO 46 0 min 0,000 mm 0,0 UV-I 33 W/m -4,2 C -3,8 C 8,0 km/h (2 Bft) 100,00 %
30.12.2016 09:08 -3,8 C 97 % 1040,5 hPa 0,0 l/m 7,0 km/h (2 Bft) NO 52 0 min 0,000 mm 0,0 UV-I 32 W/m -4,2 C -4,5 C 9,7 km/h (2 Bft) 100,00 %
30.12.2016 09:10 -3,9 C 97 % 1040,5 hPa 0,0 l/m 4,9 km/h (1 Bft) NO 53 0 min 0,000 mm 0,0 UV-I 32 W/m -4,3 C -3,9 C 6,4 km/h (2 Bft) 97,87 %
30.12.2016 09:12 -3,9 C 96 % 1040,5 hPa 0,0 l/m 5,2 km/h (1 Bft) O-NO 63 0 min 0,000 mm 0,0 UV-I 31 W/m -4,4 C -3,9 C 6,4 km/h (2 Bft) 97,87 %
30.12.2016 09:14 -4,0 C 96 % 1040,5 hPa 0,0 l/m 4,1 km/h (1 Bft) O-NO 61 0 min 0,000 mm 0,0 UV-I 32 W/m -4,5 C -4,0 C 6,4 km/h (2 Bft) 100,00 %
30.12.2016 09:16 -4,0 C 96 % 1040,5 hPa 0,0 l/m 2,5 km/h (1 Bft) O-NO 61 0 min 0,000 mm 0,0 UV-I 36 W/m -4,5 C -4,0 C 4,8 km/h (1 Bft) 100,00 %
30.12.2016 09:18 -4,1 C 96 % 1040,5 hPa 0,0 l/m 0,3 km/h (0 Bft) O-NO 61 0 min 0,000 mm 0,0 UV-I 35 W/m -4,6 C -4,1 C 1,6 km/h (1 Bft) 100,00 %
30.12.2016 09:20 -4,1 C 96 % 1040,5 hPa 0,0 l/m 0,1 km/h (0 Bft) O-NO 61 0 min 0,000 mm 0,0 UV-I 36 W/m -4,6 C -4,1 C 1,6 km/h (1 Bft) 100,00 %
30.12.2016 09:22 -4,1 C 96 % 1040,5 hPa 0,0 l/m 0,8 km/h (0 Bft) NO 49 0 min 0,000 mm 0,0 UV-I 40 W/m -4,6 C -4,1 C 3,2 km/h (1 Bft) 96,23 %
30.12.2016 09:24 -4,1 C 96 % 1040,4 hPa 0,0 l/m 0,3 km/h (0 Bft) NO 48 0 min 0,000 mm 0,0 UV-I 44 W/m -4,6 C -4,1 C 1,6 km/h (1 Bft) 97,14 %
30.12.2016 09:26 -4,1 C 96 % 1040,4 hPa 0,0 l/m 0,4 km/h (0 Bft) NO 46 0 min 0,000 mm 0,0 UV-I 49 W/m -4,6 C -4,1 C 1,6 km/h (1 Bft) 98,00 %
30.12.2016 09:28 -4,1 C 96 % 1040,4 hPa 0,0 l/m 0,8 km/h (0 Bft) NO 44 0 min 0,000 mm 0,0 UV-I 55 W/m -4,6 C -4,1 C 3,2 km/h (1 Bft) 97,87 %
30.12.2016 09:30 -4,1 C 96 % 1040,4 hPa 0,0 l/m 0,0 km/h (0 Bft) NO 44 0 min 0,000 mm 0,0 UV-I 57 W/m -4,6 C -4,1 C 0,0 km/h (0 Bft) 95,74 %
30.12.2016 09:32 -4,1 C 96 % 1040,4 hPa 0,0 l/m 0,9 km/h (0 Bft) NO 44 0 min 0,000 mm 0,0 UV-I 58 W/m -4,6 C -4,1 C 4,8 km/h (1 Bft) 95,74 %
30.12.2016 09:34 -4,1 C 96 % 1040,5 hPa 0,0 l/m 3,1 km/h (1 Bft) O-SO 119 0 min 0,000 mm 0,0 UV-I 59 W/m -4,6 C -4,1 C 6,4 km/h (2 Bft) 95,74 %
30.12.2016 09:36 -4,1 C 96 % 1040,5 hPa 0,0 l/m 4,8 km/h (1 Bft) O-SO 113 0 min 0,000 mm 0,0 UV-I 58 W/m -4,6 C -4,1 C 6,4 km/h (2 Bft) 95,74 %
30.12.2016 09:38 -4,1 C 96 % 1040,5 hPa 0,0 l/m 1,5 km/h (1 Bft) O-SO 113 0 min 0,000 mm 0,0 UV-I 60 W/m -4,6 C -4,1 C 4,8 km/h (1 Bft) 97,87 %
30.12.2016 09:40 -4,1 C 96 % 1040,4 hPa 0,0 l/m 0,9 km/h (0 Bft) O-SO 113 0 min 0,000 mm 0,0 UV-I 58 W/m -4,6 C -4,1 C 3,2 km/h (1 Bft) 97,92 %
30.12.2016 09:42 -4,1 C 97 % 1040,4 hPa 0,0 l/m 0,1 km/h (0 Bft) O-SO 113 0 min 0,000 mm 0,0 UV-I 54 W/m -4,5 C -4,1 C 1,6 km/h (1 Bft) 98,00 %
30.12.2016 09:44 -4,0 C 97 % 1040,4 hPa 0,0 l/m 0,8 km/h (0 Bft) O-SO 113 0 min 0,000 mm 0,0 UV-I 55 W/m -4,4 C -4,0 C 1,6 km/h (1 Bft) 97,87 %
30.12.2016 09:46 -4,0 C 97 % 1040,4 hPa 0,0 l/m 0,0 km/h (0 Bft) O-SO 113 0 min 0,000 mm 0,0 UV-I 58 W/m -4,4 C -4,0 C 0,0 km/h (0 Bft) 97,87 %
30.12.2016 09:48 -4,0 C 97 % 1040,4 hPa 0,0 l/m 0,7 km/h (0 Bft) O-SO 113 0 min 0,000 mm 0,0 UV-I 60 W/m -4,4 C -4,0 C 3,2 km/h (1 Bft) 93,62 %
30.12.2016 09:50 -4,0 C 97 % 1040,3 hPa 0,0 l/m 0,0 km/h (0 Bft) O-SO 113 0 min 0,000 mm 0,0 UV-I 60 W/m -4,4 C -4,0 C 0,0 km/h (0 Bft) 93,62 %
30.12.2016 09:52 -4,0 C 97 % 1040,4 hPa 0,0 l/m 0,0 km/h (0 Bft) O-SO 113 0 min 0,000 mm 0,0 UV-I 61 W/m -4,4 C -4,0 C 0,0 km/h (0 Bft) 97,87 %
30.12.2016 09:54 -3,9 C 97 % 1040,5 hPa 0,0 l/m 1,2 km/h (1 Bft) O-SO 113 0 min 0,000 mm 0,0 UV-I 62 W/m -4,3 C -3,9 C 3,2 km/h (1 Bft) 97,37 %
30.12.2016 09:56 -3,9 C 97 % 1040,5 hPa 0,0 l/m 2,1 km/h (1 Bft) SO 130 0 min 0,000 mm 0,0 UV-I 64 W/m -4,3 C -3,9 C 4,8 km/h (1 Bft) 100,00 %
30.12.2016 09:58 -3,9 C 97 % 1040,4 hPa 0,0 l/m 0,7 km/h (0 Bft) SO 134 0 min 0,000 mm 0,0 UV-I 68 W/m -4,3 C -3,9 C 3,2 km/h (1 Bft) 97,87 %
30.12.2016 10:00 -3,9 C 97 % 1040,4 hPa 0,0 l/m 0,4 km/h (0 Bft) S-SO 155 0 min 0,025 mm 0,0 UV-I 74 W/m -4,3 C -3,9 C 3,2 km/h (1 Bft) 98,00 %
30.12.2016 10:02 -3,9 C 97 % 1040,3 hPa 0,0 l/m 1,4 km/h (1 Bft) S-SO 157 0 min 0,000 mm 0,0 UV-I 80 W/m -4,3 C -3,9 C 3,2 km/h (1 Bft) 100,00 %
30.12.2016 10:04 -3,8 C 97 % 1040,3 hPa 0,0 l/m 2,2 km/h (1 Bft) SW 226 0 min 0,000 mm 0,0 UV-I 75 W/m -4,2 C -3,8 C 6,4 km/h (2 Bft) 100,00 %
30.12.2016 10:06 -3,9 C 97 % 1040,4 hPa 0,0 l/m 0,3 km/h (0 Bft) SW 226 0 min 0,000 mm 0,0 UV-I 72 W/m -4,3 C -3,9 C 1,6 km/h (1 Bft) 100,00 %
30.12.2016 10:08 -3,9 C 97 % 1040,4 hPa 0,0 l/m 0,0 km/h (0 Bft) SW 226 0 min 0,000 mm 0,0 UV-I 68 W/m -4,3 C -3,9 C 0,0 km/h (0 Bft) 97,87 %
30.12.2016 10:10 -3,9 C 97 % 1040,4 hPa 0,0 l/m 0,0 km/h (0 Bft) SW 226 0 min 0,000 mm 0,0 UV-I 66 W/m -4,3 C -3,9 C 1,6 km/h (1 Bft) 100,00 %
30.12.2016 10:12 -3,9 C 97 % 1040,3 hPa 0,0 l/m 1,2 km/h (1 Bft) SW 226 0 min 0,000 mm 0,0 UV-I 66 W/m -4,3 C -3,9 C 4,8 km/h (1 Bft) 98,00 %
30.12.2016 10:14 -3,9 C 97 % 1040,3 hPa 0,0 l/m 3,3 km/h (1 Bft) W-SW 251 0 min 0,000 mm 0,0 UV-I 65 W/m -4,3 C -3,9 C 4,8 km/h (1 Bft) 100,00 %
30.12.2016 10:16 -3,9 C 97 % 1040,4 hPa 0,0 l/m 1,5 km/h (1 Bft) W 259 0 min 0,000 mm 0,0 UV-I 66 W/m -4,3 C -3,9 C 3,2 km/h (1 Bft) 93,75 %
30.12.2016 10:18 -3,9 C 97 % 1040,4 hPa 0,0 l/m 3,5 km/h (1 Bft) W-NW 283 0 min 0,000 mm 0,0 UV-I 67 W/m -4,3 C -3,9 C 4,8 km/h (1 Bft) 97,87 %
30.12.2016 10:20 -3,9 C 97 % 1040,3 hPa 0,0 l/m 2,5 km/h (1 Bft) W-NW 290 0 min 0,000 mm 0,0 UV-I 65 W/m -4,3 C -3,9 C 4,8 km/h (1 Bft) 100,00 %
30.12.2016 10:22 -3,9 C 97 % 1040,3 hPa 0,0 l/m 1,6 km/h (1 Bft) W-NW 290 0 min 0,000 mm 0,0 UV-I 66 W/m -4,3 C -3,9 C 3,2 km/h (1 Bft) 97,87 %
30.12.2016 10:24 -3,9 C 97 % 1040,3 hPa 0,0 l/m 0,7 km/h (0 Bft) W-NW 290 0 min 0,000 mm 0,0 UV-I 63 W/m -4,3 C -3,9 C 1,6 km/h (1 Bft) 100,00 %
30.12.2016 10:26 -3,9 C 97 % 1040,3 hPa 0,0 l/m 0,0 km/h (0 Bft) W-NW 290 0 min 0,000 mm 0,0 UV-I 68 W/m -4,3 C -3,9 C 0,0 km/h (0 Bft) 97,92 %
30.12.2016 10:28 -3,9 C 97 % 1040,3 hPa 0,0 l/m 0,5 km/h (0 Bft) W-NW 290 0 min 0,000 mm 0,0 UV-I 73 W/m -4,3 C -3,9 C 3,2 km/h (1 Bft) 100,00 %
30.12.2016 10:30 -3,9 C 97 % 1040,3 hPa 0,0 l/m 0,4 km/h (0 Bft) W-NW 290 0 min 0,000 mm 0,0 UV-I 76 W/m -4,3 C -3,9 C 1,6 km/h (1 Bft) 98,00 %
30.12.2016 10:32 -3,9 C 97 % 1040,3 hPa 0,0 l/m 1,2 km/h (1 Bft) W-NW 292 0 min 0,000 mm 0,0 UV-I 82 W/m -4,3 C -3,9 C 3,2 km/h (1 Bft) 100,00 %
30.12.2016 10:34 -3,9 C 97 % 1040,3 hPa 0,0 l/m 0,9 km/h (0 Bft) W-NW 297 0 min 0,000 mm 0,0 UV-I 85 W/m -4,3 C -3,9 C 4,8 km/h (1 Bft) 97,87 %
30.12.2016 10:36 -3,9 C 97 % 1040,2 hPa 0,0 l/m 0,0 km/h (0 Bft) W-NW 297 0 min 0,000 mm 0,0 UV-I 85 W/m -4,3 C -3,9 C 0,0 km/h (0 Bft) 97,87 %
30.12.2016 10:38 -3,9 C 97 % 1040,2 hPa 0,0 l/m 1,7 km/h (1 Bft) W-NW 297 0 min 0,000 mm 0,0 UV-I 85 W/m -4,3 C -3,9 C 3,2 km/h (1 Bft) 100,00 %
30.12.2016 10:40 -3,9 C 97 % 1040,2 hPa 0,0 l/m 2,5 km/h (1 Bft) W-NW 294 0 min 0,000 mm 0,0 UV-I 90 W/m -4,3 C -3,9 C 6,4 km/h (2 Bft) 97,87 %
30.12.2016 10:42 -3,9 C 97 % 1040,3 hPa 0,0 l/m 0,7 km/h (0 Bft) W-NW 294 0 min 0,000 mm 0,0 UV-I 88 W/m -4,3 C -3,9 C 3,2 km/h (1 Bft) 100,00 %
30.12.2016 10:44 -3,9 C 97 % 1040,3 hPa 0,0 l/m 0,9 km/h (0 Bft) W-NW 295 0 min 0,000 mm 0,0 UV-I 85 W/m -4,3 C -3,9 C 3,2 km/h (1 Bft) 100,00 %
30.12.2016 10:46 -3,9 C 97 % 1040,3 hPa 0,0 l/m 1,7 km/h (1 Bft) W-NW 295 0 min 0,000 mm 0,0 UV-I 85 W/m -4,3 C -3,9 C 3,2 km/h (1 Bft) 100,00 %
30.12.2016 10:48 -3,9 C 97 % 1040,3 hPa 0,0 l/m 2,0 km/h (1 Bft) W-NW 295 0 min 0,000 mm 0,0 UV-I 83 W/m -4,3 C -3,9 C 3,2 km/h (1 Bft) 100,00 %
30.12.2016 10:50 -3,9 C 96 % 1040,4 hPa 0,0 l/m 2,0 km/h (1 Bft) W-NW 302 0 min 0,000 mm 0,0 UV-I 85 W/m -4,4 C -3,9 C 3,2 km/h (1 Bft) 100,00 %
30.12.2016 10:52 -3,9 C 97 % 1040,3 hPa 0,0 l/m 1,7 km/h (1 Bft) NW 308 0 min 0,000 mm 0,0 UV-I 85 W/m -4,3 C -3,9 C 4,8 km/h (1 Bft) 100,00 %
30.12.2016 10:54 -3,9 C 97 % 1040,3 hPa 0,0 l/m 0,9 km/h (0 Bft) NW 308 0 min 0,000 mm 0,0 UV-I 82 W/m -4,3 C -3,9 C 3,2 km/h (1 Bft) 100,00 %
30.12.2016 10:56 -3,9 C 97 % 1040,4 hPa 0,0 l/m 0,2 km/h (0 Bft) NW 308 0 min 0,000 mm 0,0 UV-I 80 W/m -4,3 C -3,9 C 1,6 km/h (1 Bft) 97,87 %
30.12.2016 10:58 -3,8 C 97 % 1040,3 hPa 0,0 l/m 1,3 km/h (1 Bft) W-NW 298 0 min 0,000 mm 0,0 UV-I 83 W/m -4,2 C -3,8 C 4,8 km/h (1 Bft) 100,00 %
30.12.2016 11:00 -3,9 C 97 % 1040,4 hPa 0,0 l/m 2,9 km/h (1 Bft) W-NW 293 0 min 0,026 mm 0,0 UV-I 92 W/m -4,3 C -3,9 C 4,8 km/h (1 Bft) 97,92 %
30.12.2016 11:02 -3,9 C 97 % 1040,4 hPa 0,0 l/m 1,8 km/h (1 Bft) W-NW 293 0 min 0,000 mm 0,0 UV-I 97 W/m -4,3 C -3,9 C 3,2 km/h (1 Bft) 100,00 %
30.12.2016 11:04 -3,8 C 97 % 1040,4 hPa 0,0 l/m 2,8 km/h (1 Bft) W-NW 284 0 min 0,000 mm 0,0 UV-I 97 W/m -4,2 C -3,8 C 4,8 km/h (1 Bft) 100,00 %
30.12.2016 11:06 -3,9 C 97 % 1040,3 hPa 0,0 l/m 2,7 km/h (1 Bft) W-NW 284 0 min 0,000 mm 0,0 UV-I 95 W/m -4,3 C -3,9 C 4,8 km/h (1 Bft) 98,00 %
30.12.2016 11:08 -3,9 C 97 % 1040,3 hPa 0,0 l/m 1,8 km/h (1 Bft) W-NW 286 0 min 0,000 mm 0,0 UV-I 96 W/m -4,3 C -3,9 C 4,8 km/h (1 Bft) 100,00 %
30.12.2016 11:10 -3,9 C 97 % 1040,3 hPa 0,0 l/m 2,9 km/h (1 Bft) W 271 0 min 0,000 mm 0,0 UV-I 99 W/m -4,3 C -3,9 C 4,8 km/h (1 Bft) 100,00 %
30.12.2016 11:12 -3,9 C 97 % 1040,3 hPa 0,0 l/m 3,7 km/h (1 Bft) W 265 0 min 0,000 mm 0,0 UV-I 99 W/m -4,3 C -3,9 C 6,4 km/h (2 Bft) 100,00 %
30.12.2016 11:14 -3,9 C 97 % 1040,3 hPa 0,0 l/m 3,2 km/h (1 Bft) W 265 0 min 0,000 mm 0,0 UV-I 103 W/m -4,3 C -3,9 C 4,8 km/h (1 Bft) 100,00 %
30.12.2016 11:16 -3,9 C 97 % 1040,3 hPa 0,0 l/m 2,3 km/h (1 Bft) W 265 0 min 0,000 mm 0,0 UV-I 98 W/m -4,3 C -3,9 C 4,8 km/h (1 Bft) 97,83 %
30.12.2016 11:18 -3,9 C 97 % 1040,3 hPa 0,0 l/m 3,6 km/h (1 Bft) W 277 0 min 0,000 mm 0,0 UV-I 106 W/m -4,3 C -3,9 C 6,4 km/h (2 Bft) 100,00 %
30.12.2016 11:20 -4,0 C 96 % 1040,3 hPa 0,0 l/m 1,7 km/h (1 Bft) W 277 0 min 0,000 mm 0,0 UV-I 125 W/m -4,5 C -4,0 C 4,8 km/h (1 Bft) 100,00 %
30.12.2016 11:22 -4,0 C 96 % 1040,2 hPa 0,0 l/m 1,9 km/h (1 Bft) W 278 0 min 0,000 mm 0,0 UV-I 136 W/m -4,5 C -4,0 C 4,8 km/h (1 Bft) 97,87 %
30.12.2016 11:24 -3,9 C 97 % 1040,2 hPa 0,0 l/m 0,1 km/h (0 Bft) W 278 0 min 0,000 mm 0,0 UV-I 131 W/m -4,3 C -3,9 C 1,6 km/h (1 Bft) 100,00 %
30.12.2016 11:26 -3,9 C 97 % 1040,1 hPa 0,0 l/m 1,1 km/h (1 Bft) W 278 0 min 0,000 mm 0,0 UV-I 146 W/m -4,3 C -3,9 C 3,2 km/h (1 Bft) 97,87 %
30.12.2016 11:28 -3,9 C 97 % 1040,0 hPa 0,0 l/m 3,9 km/h (1 Bft) W 261 0 min 0,000 mm 0,0 UV-I 162 W/m -4,3 C -3,9 C 4,8 km/h (1 Bft) 97,87 %
30.12.2016 11:30 -3,9 C 97 % 1040,0 hPa 0,0 l/m 4,0 km/h (1 Bft) W 261 2 min 0,000 mm 0,0 UV-I 181 W/m -4,3 C -3,9 C 6,4 km/h (2 Bft) 97,87 %
30.12.2016 11:32 -3,8 C 97 % 1040,1 hPa 0,0 l/m 3,1 km/h (1 Bft) W-SW 250 2 min 0,000 mm 0,0 UV-I 192 W/m -4,2 C -3,8 C 6,4 km/h (2 Bft) 97,87 %
30.12.2016 11:34 -3,9 C 96 % 1040,1 hPa 0,0 l/m 1,6 km/h (1 Bft) W-SW 238 2 min 0,000 mm 0,0 UV-I 193 W/m -4,4 C -3,9 C 3,2 km/h (1 Bft) 97,87 %
30.12.2016 11:36 -3,9 C 96 % 1040,1 hPa 0,0 l/m 0,1 km/h (0 Bft) W-SW 238 2 min 0,000 mm 0,0 UV-I 198 W/m -4,4 C -3,9 C 1,6 km/h (1 Bft) 91,49 %
30.12.2016 11:38 -3,8 C 96 % 1040,1 hPa 0,0 l/m 0,7 km/h (0 Bft) W-SW 238 2 min 0,000 mm 0,0 UV-I 186 W/m -4,3 C -3,8 C 1,6 km/h (1 Bft) 95,83 %
30.12.2016 11:40 -3,7 C 97 % 1040,0 hPa 0,0 l/m 0,6 km/h (0 Bft) W-SW 238 0 min 0,000 mm 0,0 UV-I 174 W/m -4,1 C -3,7 C 3,2 km/h (1 Bft) 97,87 %
30.12.2016 11:42 -3,7 C 97 % 1040,1 hPa 0,0 l/m 1,4 km/h (1 Bft) W-SW 238 0 min 0,000 mm 0,0 UV-I 163 W/m -4,1 C -3,7 C 3,2 km/h (1 Bft) 97,87 %
30.12.2016 11:44 -3,6 C 97 % 1040,1 hPa 0,0 l/m 1,5 km/h (1 Bft) W-NW 288 0 min 0,000 mm 0,0 UV-I 167 W/m -4,0 C -3,6 C 4,8 km/h (1 Bft) 96,00 %
30.12.2016 11:46 -3,6 C 97 % 1040,1 hPa 0,0 l/m 1,8 km/h (1 Bft) W-NW 288 2 min 0,000 mm 0,0 UV-I 188 W/m -4,0 C -3,6 C 4,8 km/h (1 Bft) 95,74 %
30.12.2016 11:48 -3,6 C 97 % 1040,1 hPa 0,0 l/m 0,9 km/h (0 Bft) W-NW 288 2 min 0,000 mm 0,0 UV-I 197 W/m -4,0 C -3,6 C 3,2 km/h (1 Bft) 98,00 %
30.12.2016 11:50 -3,6 C 97 % 1040,0 hPa 0,0 l/m 0,4 km/h (0 Bft) W-NW 288 2 min 0,000 mm 0,0 UV-I 183 W/m -4,0 C -3,6 C 1,6 km/h (1 Bft) 93,62 %
30.12.2016 11:52 -3,6 C 97 % 1040,0 hPa 0,0 l/m 0,3 km/h (0 Bft) W-NW 288 0 min 0,000 mm 0,0 UV-I 168 W/m -4,0 C -3,6 C 1,6 km/h (1 Bft) 97,87 %
30.12.2016 11:54 -3,5 C 97 % 1039,9 hPa 0,0 l/m 1,4 km/h (1 Bft) W-NW 288 0 min 0,000 mm 0,0 UV-I 171 W/m -3,9 C -3,5 C 3,2 km/h (1 Bft) 95,74 %
30.12.2016 11:56 -3,5 C 97 % 1039,9 hPa 0,0 l/m 0,6 km/h (0 Bft) W-NW 288 0 min 0,000 mm 0,0 UV-I 172 W/m -3,9 C -3,5 C 3,2 km/h (1 Bft) 95,74 %
30.12.2016 11:58 -3,5 C 97 % 1039,9 hPa 0,0 l/m 0,0 km/h (0 Bft) W-NW 288 0 min 0,000 mm 0,0 UV-I 166 W/m -3,9 C -3,5 C 0,0 km/h (0 Bft) 93,62 %
30.12.2016 12:00 -3,3 C 97 % 1039,9 hPa 0,0 l/m 0,4 km/h (0 Bft) W-NW 288 0 min 0,051 mm 0,0 UV-I 172 W/m -3,7 C -3,3 C 1,6 km/h (1 Bft) 97,87 %
30.12.2016 12:02 -3,3 C 97 % 1039,9 hPa 0,0 l/m 1,5 km/h (1 Bft) W-NW 288 0 min 0,000 mm 0,0 UV-I 167 W/m -3,7 C -3,3 C 3,2 km/h (1 Bft) 100,00 %
30.12.2016 12:04 -3,4 C 97 % 1039,9 hPa 0,0 l/m 0,0 km/h (0 Bft) W-NW 288 0 min 0,000 mm 0,0 UV-I 157 W/m -3,8 C -3,4 C 1,6 km/h (1 Bft) 100,00 %
30.12.2016 12:06 -3,4 C 97 % 1039,9 hPa 0,0 l/m 2,0 km/h (1 Bft) NW 305 0 min 0,000 mm 0,0 UV-I 152 W/m -3,8 C -3,4 C 3,2 km/h (1 Bft) 100,00 %
30.12.2016 12:08 -3,4 C 97 % 1039,9 hPa 0,0 l/m 1,3 km/h (1 Bft) NW 305 0 min 0,000 mm 0,0 UV-I 170 W/m -3,8 C -3,4 C 3,2 km/h (1 Bft) 97,87 %
30.12.2016 12:10 -3,4 C 97 % 1039,9 hPa 0,0 l/m 0,1 km/h (0 Bft) NW 305 2 min 0,000 mm 0,0 UV-I 185 W/m -3,8 C -3,4 C 1,6 km/h (1 Bft) 100,00 %
30.12.2016 12:12 -3,4 C 97 % 1039,9 hPa 0,0 l/m 1,0 km/h (0 Bft) NW 309 0 min 0,000 mm 0,0 UV-I 159 W/m -3,8 C -3,4 C 3,2 km/h (1 Bft) 100,00 %
30.12.2016 12:14 -3,3 C 97 % 1039,9 hPa 0,0 l/m 2,0 km/h (1 Bft) S-SW 205 0 min 0,000 mm 0,0 UV-I 150 W/m -3,7 C -3,3 C 3,2 km/h (1 Bft) 100,00 %
30.12.2016 12:16 -3,3 C 97 % 1039,8 hPa 0,0 l/m 0,8 km/h (0 Bft) S 191 0 min 0,000 mm 0,0 UV-I 164 W/m -3,7 C -3,3 C 3,2 km/h (1 Bft) 98,11 %
30.12.2016 12:18 -3,4 C 96 % 1039,8 hPa 0,0 l/m 1,0 km/h (0 Bft) S 191 0 min 0,000 mm 0,0 UV-I 180 W/m -3,9 C -3,4 C 3,2 km/h (1 Bft) 100,00 %
30.12.2016 12:20 -3,3 C 97 % 1039,8 hPa 0,0 l/m 0,9 km/h (0 Bft) S 191 0 min 0,000 mm 0,0 UV-I 171 W/m -3,7 C -3,3 C 3,2 km/h (1 Bft) 97,87 %
30.12.2016 12:22 -3,4 C 97 % 1039,8 hPa 0,0 l/m 2,0 km/h (1 Bft) S 177 0 min 0,000 mm 0,0 UV-I 172 W/m -3,8 C -3,4 C 4,8 km/h (1 Bft) 100,00 %
30.12.2016 12:24 -3,3 C 97 % 1039,7 hPa 0,0 l/m 3,8 km/h (1 Bft) S-SO 165 2 min 0,000 mm 0,1 UV-I 231 W/m -3,7 C -3,3 C 6,4 km/h (2 Bft) 100,00 %
30.12.2016 12:26 -3,2 C 97 % 1039,7 hPa 0,0 l/m 2,7 km/h (1 Bft) S-SO 149 2 min 0,000 mm 0,2 UV-I 291 W/m -3,6 C -3,2 C 6,4 km/h (2 Bft) 97,14 %
30.12.2016 12:28 -3,1 C 97 % 1039,6 hPa 0,0 l/m 4,7 km/h (1 Bft) S-SW 208 2 min 0,000 mm 0,0 UV-I 240 W/m -3,5 C -3,1 C 8,0 km/h (2 Bft) 98,00 %
30.12.2016 12:30 -3,1 C 97 % 1039,6 hPa 0,0 l/m 2,9 km/h (1 Bft) S-SW 192 2 min 0,000 mm 0,0 UV-I 219 W/m -3,5 C -3,1 C 6,4 km/h (2 Bft) 97,87 %
30.12.2016 12:32 -3,2 C 96 % 1039,6 hPa 0,0 l/m 2,5 km/h (1 Bft) S 170 2 min 0,000 mm 0,0 UV-I 215 W/m -3,7 C -3,2 C 6,4 km/h (2 Bft) 95,74 %
30.12.2016 12:34 -3,2 C 96 % 1039,6 hPa 0,0 l/m 3,7 km/h (1 Bft) S 191 2 min 0,000 mm 0,0 UV-I 208 W/m -3,7 C -3,2 C 8,0 km/h (2 Bft) 100,00 %
30.12.2016 12:36 -3,1 C 97 % 1039,5 hPa 0,0 l/m 4,0 km/h (1 Bft) SW 216 2 min 0,000 mm 0,0 UV-I 209 W/m -3,5 C -3,1 C 9,7 km/h (2 Bft) 95,74 %
30.12.2016 12:38 -3,0 C 97 % 1039,5 hPa 0,0 l/m 4,2 km/h (1 Bft) W-SW 248 0 min 0,000 mm 0,0 UV-I 178 W/m -3,4 C -3,0 C 6,4 km/h (2 Bft) 100,00 %
30.12.2016 12:40 -3,0 C 97 % 1039,4 hPa 0,0 l/m 5,0 km/h (1 Bft) W 267 0 min 0,000 mm 0,0 UV-I 151 W/m -3,4 C -3,0 C 6,4 km/h (2 Bft) 97,87 %
30.12.2016 12:42 -3,0 C 97 % 1039,4 hPa 0,0 l/m 3,2 km/h (1 Bft) W-SW 242 0 min 0,000 mm 0,0 UV-I 138 W/m -3,4 C -3,0 C 6,4 km/h (2 Bft) 96,00 %
30.12.2016 12:44 -3,1 C 97 % 1039,3 hPa 0,0 l/m 1,4 km/h (1 Bft) W-SW 242 0 min 0,000 mm 0,0 UV-I 152 W/m -3,5 C -3,1 C 4,8 km/h (1 Bft) 100,00 %
30.12.2016 12:46 -3,2 C 96 % 1039,4 hPa 0,0 l/m 4,4 km/h (1 Bft) W-SW 247 0 min 0,000 mm 0,0 UV-I 140 W/m -3,7 C -3,2 C 6,4 km/h (2 Bft) 100,00 %
30.12.2016 12:48 -3,2 C 96 % 1039,4 hPa 0,0 l/m 6,1 km/h (2 Bft) W 273 0 min 0,000 mm 0,0 UV-I 132 W/m -3,7 C -3,2 C 9,7 km/h (2 Bft) 100,00 %
30.12.2016 12:50 -3,3 C 96 % 1039,4 hPa 0,0 l/m 3,7 km/h (1 Bft) W 277 0 min 0,000 mm 0,0 UV-I 131 W/m -3,8 C -3,3 C 4,8 km/h (1 Bft) 100,00 %
30.12.2016 12:52 -3,2 C 96 % 1039,3 hPa 0,0 l/m 4,6 km/h (1 Bft) W 261 0 min 0,000 mm 0,0 UV-I 124 W/m -3,7 C -3,2 C 9,7 km/h (2 Bft) 100,00 %
30.12.2016 12:54 -3,3 C 96 % 1039,3 hPa 0,0 l/m 3,3 km/h (1 Bft) W 259 0 min 0,000 mm 0,0 UV-I 129 W/m -3,8 C -3,3 C 4,8 km/h (1 Bft) 97,87 %
30.12.2016 12:56 -3,3 C 96 % 1039,3 hPa 0,0 l/m 1,9 km/h (1 Bft) W-SW 257 0 min 0,000 mm 0,0 UV-I 149 W/m -3,8 C -3,3 C 4,8 km/h (1 Bft) 100,00 %
30.12.2016 12:58 -3,3 C 96 % 1039,2 hPa 0,0 l/m 1,1 km/h (1 Bft) W-SW 257 0 min 0,000 mm 0,0 UV-I 164 W/m -3,8 C -3,3 C 1,6 km/h (1 Bft) 100,00 %
30.12.2016 13:00 -3,3 C 96 % 1039,2 hPa 0,0 l/m 2,3 km/h (1 Bft) W-SW 257 0 min 0,050 mm 0,0 UV-I 157 W/m -3,8 C -3,3 C 6,4 km/h (2 Bft) 100,00 %
30.12.2016 13:02 -3,2 C 96 % 1039,2 hPa 0,0 l/m 5,2 km/h (1 Bft) W-SW 249 0 min 0,000 mm 0,0 UV-I 149 W/m -3,7 C -3,2 C 8,0 km/h (2 Bft) 95,74 %
30.12.2016 13:04 -3,2 C 96 % 1039,2 hPa 0,0 l/m 3,4 km/h (1 Bft) W-SW 249 0 min 0,000 mm 0,0 UV-I 126 W/m -3,7 C -3,2 C 4,8 km/h (1 Bft) 100,00 %
30.12.2016 13:06 -3,2 C 96 % 1039,2 hPa 0,0 l/m 2,4 km/h (1 Bft) W-SW 249 0 min 0,000 mm 0,0 UV-I 122 W/m -3,7 C -3,2 C 4,8 km/h (1 Bft) 100,00 %
30.12.2016 13:08 -3,2 C 96 % 1039,1 hPa 0,0 l/m 1,7 km/h (1 Bft) W-SW 249 0 min 0,000 mm 0,0 UV-I 117 W/m -3,7 C -3,2 C 3,2 km/h (1 Bft) 100,00 %
30.12.2016 13:10 -3,2 C 96 % 1039,2 hPa 0,0 l/m 1,4 km/h (1 Bft) W-SW 249 0 min 0,000 mm 0,0 UV-I 117 W/m -3,7 C -3,2 C 3,2 km/h (1 Bft) 97,87 %
30.12.2016 13:12 -3,2 C 96 % 1039,2 hPa 0,0 l/m 0,2 km/h (0 Bft) W-SW 249 0 min 0,000 mm 0,0 UV-I 110 W/m -3,7 C -3,2 C 1,6 km/h (1 Bft) 100,00 %
30.12.2016 13:14 -3,2 C 96 % 1039,1 hPa 0,0 l/m 0,0 km/h (0 Bft) W-SW 249 0 min 0,000 mm 0,0 UV-I 113 W/m -3,7 C -3,2 C 0,0 km/h (0 Bft) 100,00 %
30.12.2016 13:16 -3,2 C 96 % 1039,1 hPa 0,0 l/m 0,0 km/h (0 Bft) W-SW 249 0 min 0,000 mm 0,0 UV-I 106 W/m -3,7 C -3,2 C 0,0 km/h (0 Bft) 100,00 %
30.12.2016 13:18 -3,2 C 96 % 1039,1 hPa 0,0 l/m 0,3 km/h (0 Bft) W-SW 249 0 min 0,000 mm 0,0 UV-I 99 W/m -3,7 C -3,2 C 1,6 km/h (1 Bft) 97,87 %
30.12.2016 13:20 -3,1 C 96 % 1039,0 hPa 0,0 l/m 0,3 km/h (0 Bft) W-SW 249 0 min 0,000 mm 0,0 UV-I 108 W/m -3,6 C -3,1 C 1,6 km/h (1 Bft) 93,62 %
30.12.2016 13:22 -3,1 C 96 % 1039,0 hPa 0,0 l/m 0,0 km/h (0 Bft) W-SW 249 2 min 0,000 mm 0,0 UV-I 206 W/m -3,6 C -3,1 C 0,0 km/h (0 Bft) 95,74 %
30.12.2016 13:24 -3,1 C 96 % 1039,0 hPa 0,0 l/m 0,0 km/h (0 Bft) W-SW 249 0 min 0,000 mm 0,0 UV-I 127 W/m -3,6 C -3,1 C 1,6 km/h (1 Bft) 95,74 %
30.12.2016 13:26 -3,1 C 96 % 1039,1 hPa 0,0 l/m 0,0 km/h (0 Bft) W-SW 249 0 min 0,000 mm 0,0 UV-I 88 W/m -3,6 C -3,1 C 0,0 km/h (0 Bft) 98,11 %
30.12.2016 13:28 -3,1 C 96 % 1039,0 hPa 0,0 l/m 0,0 km/h (0 Bft) W-SW 249 0 min 0,000 mm 0,0 UV-I 98 W/m -3,6 C -3,1 C 0,0 km/h (0 Bft) 97,87 %
30.12.2016 13:30 -3,0 C 96 % 1039,1 hPa 0,0 l/m 0,0 km/h (0 Bft) W-SW 249 0 min 0,000 mm 0,0 UV-I 103 W/m -3,5 C -3,0 C 0,0 km/h (0 Bft) 97,87 %
30.12.2016 13:32 -3,0 C 96 % 1039,2 hPa 0,0 l/m 0,0 km/h (0 Bft) W-SW 249 0 min 0,000 mm 0,0 UV-I 96 W/m -3,5 C -3,0 C 0,0 km/h (0 Bft) 95,74 %
30.12.2016 13:34 -3,0 C 96 % 1039,1 hPa 0,0 l/m 0,0 km/h (0 Bft) W-SW 249 0 min 0,000 mm 0,0 UV-I 93 W/m -3,5 C -3,0 C 0,0 km/h (0 Bft) 95,74 %
30.12.2016 13:36 -2,9 C 96 % 1039,1 hPa 0,0 l/m 0,0 km/h (0 Bft) W-SW 249 0 min 0,000 mm 0,0 UV-I 91 W/m -3,4 C -2,9 C 0,0 km/h (0 Bft) 93,62 %
30.12.2016 13:38 -2,9 C 96 % 1039,1 hPa 0,0 l/m 0,0 km/h (0 Bft) W-SW 249 0 min 0,000 mm 0,0 UV-I 89 W/m -3,4 C -2,9 C 0,0 km/h (0 Bft) 95,74 %
30.12.2016 13:40 -2,8 C 96 % 1039,1 hPa 0,0 l/m 0,0 km/h (0 Bft) W-SW 249 0 min 0,000 mm 0,0 UV-I 90 W/m -3,3 C -2,8 C 0,0 km/h (0 Bft) 97,87 %
30.12.2016 13:42 -2,8 C 95 % 1039,0 hPa 0,0 l/m 0,0 km/h (0 Bft) W-SW 249 0 min 0,000 mm 0,0 UV-I 90 W/m -3,5 C -2,8 C 0,0 km/h (0 Bft) 97,87 %
30.12.2016 13:44 -2,8 C 96 % 1039,0 hPa 0,0 l/m 0,0 km/h (0 Bft) W-SW 249 0 min 0,000 mm 0,0 UV-I 133 W/m -3,3 C -2,8 C 0,0 km/h (0 Bft) 95,83 %
30.12.2016 13:46 -2,8 C 96 % 1039,0 hPa 0,0 l/m 0,0 km/h (0 Bft) W-SW 249 2 min 0,000 mm 0,0 UV-I 214 W/m -3,3 C -2,8 C 0,0 km/h (0 Bft) 97,87 %
30.12.2016 13:48 -2,7 C 96 % 1039,0 hPa 0,0 l/m 0,0 km/h (0 Bft) W-SW 249 2 min 0,000 mm 0,0 UV-I 156 W/m -3,2 C -2,7 C 0,0 km/h (0 Bft) 97,87 %
30.12.2016 13:50 -2,6 C 95 % 1039,0 hPa 0,0 l/m 0,0 km/h (0 Bft) W-SW 249 0 min 0,000 mm 0,0 UV-I 117 W/m -3,3 C -2,6 C 0,0 km/h (0 Bft) 95,74 %
30.12.2016 13:52 -2,6 C 95 % 1039,0 hPa 0,0 l/m 0,0 km/h (0 Bft) W-SW 249 0 min 0,000 mm 0,0 UV-I 127 W/m -3,3 C -2,6 C 1,6 km/h (1 Bft) 95,74 %
30.12.2016 13:54 -2,4 C 96 % 1039,0 hPa 0,0 l/m 0,0 km/h (0 Bft) W-SW 249 2 min 0,000 mm 0,0 UV-I 160 W/m -2,9 C -2,4 C 0,0 km/h (0 Bft) 97,14 %
30.12.2016 13:56 -2,4 C 95 % 1039,0 hPa 0,0 l/m 0,2 km/h (0 Bft) W-SW 249 2 min 0,000 mm 0,0 UV-I 180 W/m -3,1 C -2,4 C 1,6 km/h (1 Bft) 100,00 %
30.12.2016 13:58 -2,2 C 95 % 1039,0 hPa 0,0 l/m 1,3 km/h (1 Bft) W-SW 249 2 min 0,000 mm 0,0 UV-I 299 W/m -2,9 C -2,2 C 3,2 km/h (1 Bft) 100,00 %
30.12.2016 14:00 -2,1 C 95 % 1039,0 hPa 0,0 l/m 0,0 km/h (0 Bft) W-SW 249 2 min 0,000 mm 0,0 UV-I 328 W/m -2,8 C -2,1 C 1,6 km/h (1 Bft) 97,96 %
30.12.2016 14:02 -2,1 C 95 % 1038,9 hPa 0,0 l/m 0,0 km/h (0 Bft) W-SW 249 2 min 0,051 mm 0,0 UV-I 320 W/m -2,8 C -2,1 C 0,0 km/h (0 Bft) 97,87 %
30.12.2016 14:04 -2,1 C 95 % 1038,9 hPa 0,0 l/m 0,0 km/h (0 Bft) W-SW 249 2 min 0,000 mm 0,0 UV-I 279 W/m -2,8 C -2,1 C 0,0 km/h (0 Bft) 100,00 %
30.12.2016 14:06 -2,1 C 94 % 1038,9 hPa 0,0 l/m 0,0 km/h (0 Bft) W-SW 249 2 min 0,000 mm 0,0 UV-I 173 W/m -2,9 C -2,1 C 0,0 km/h (0 Bft) 97,87 %
30.12.2016 14:08 -2,0 C 94 % 1039,0 hPa 0,0 l/m 0,0 km/h (0 Bft) W-SW 249 2 min 0,000 mm 0,0 UV-I 188 W/m -2,8 C -2,0 C 0,0 km/h (0 Bft) 98,00 %
30.12.2016 14:10 -2,1 C 94 % 1039,0 hPa 0,0 l/m 0,0 km/h (0 Bft) W-SW 249 2 min 0,000 mm 0,0 UV-I 146 W/m -2,9 C -2,1 C 0,0 km/h (0 Bft) 100,00 %
30.12.2016 14:12 -2,0 C 94 % 1038,9 hPa 0,0 l/m 0,0 km/h (0 Bft) W-SW 249 0 min 0,000 mm 0,0 UV-I 130 W/m -2,8 C -2,0 C 0,0 km/h (0 Bft) 100,00 %
30.12.2016 14:14 -1,9 C 95 % 1038,9 hPa 0,0 l/m 0,0 km/h (0 Bft) W-SW 250 2 min 0,000 mm 0,0 UV-I 230 W/m -2,6 C -1,9 C 0,0 km/h (0 Bft) 100,00 %
30.12.2016 14:16 -1,9 C 95 % 1038,9 hPa 0,0 l/m 0,0 km/h (0 Bft) W-SW 250 2 min 0,000 mm 0,0 UV-I 170 W/m -2,6 C -1,9 C 0,0 km/h (0 Bft) 100,00 %
30.12.2016 14:18 -2,0 C 94 % 1038,9 hPa 0,0 l/m 0,0 km/h (0 Bft) W-SW 250 0 min 0,000 mm 0,0 UV-I 122 W/m -2,8 C -2,0 C 0,0 km/h (0 Bft) 100,00 %
30.12.2016 14:20 -2,1 C 94 % 1038,9 hPa 0,0 l/m 0,0 km/h (0 Bft) W-SW 250 0 min 0,000 mm 0,0 UV-I 123 W/m -2,9 C -2,1 C 0,0 km/h (0 Bft) 100,00 %
30.12.2016 14:22 -2,1 C 94 % 1039,0 hPa 0,0 l/m 0,0 km/h (0 Bft) W-SW 250 2 min 0,000 mm 0,0 UV-I 132 W/m -2,9 C -2,1 C 0,0 km/h (0 Bft) 100,00 %
30.12.2016 14:24 -2,0 C 94 % 1039,0 hPa 0,0 l/m 0,0 km/h (0 Bft) W-SW 250 2 min 0,000 mm 0,0 UV-I 125 W/m -2,8 C -2,0 C 0,0 km/h (0 Bft) 100,00 %
30.12.2016 14:26 -1,9 C 94 % 1039,0 hPa 0,0 l/m 0,0 km/h (0 Bft) W-SW 250 2 min 0,000 mm 0,0 UV-I 137 W/m -2,7 C -1,9 C 0,0 km/h (0 Bft) 100,00 %
30.12.2016 14:28 -2,1 C 94 % 1039,0 hPa 0,0 l/m 0,0 km/h (0 Bft) W-SW 250 2 min 0,000 mm 0,0 UV-I 156 W/m -2,9 C -2,1 C 0,0 km/h (0 Bft) 100,00 %
30.12.2016 14:30 -2,0 C 94 % 1039,0 hPa 0,0 l/m 0,0 km/h (0 Bft) W-NW 282 2 min 0,000 mm 0,0 UV-I 199 W/m -2,8 C -2,0 C 0,0 km/h (0 Bft) 97,87 %
30.12.2016 14:32 -1,9 C 94 % 1039,0 hPa 0,0 l/m 0,0 km/h (0 Bft) W-NW 282 2 min 0,000 mm 0,0 UV-I 154 W/m -2,7 C -1,9 C 0,0 km/h (0 Bft) 100,00 %
30.12.2016 14:34 -1,9 C 94 % 1039,0 hPa 0,0 l/m 0,0 km/h (0 Bft) W-NW 282 2 min 0,000 mm 0,0 UV-I 120 W/m -2,7 C -1,9 C 0,0 km/h (0 Bft) 100,00 %
30.12.2016 14:36 -1,9 C 94 % 1039,0 hPa 0,0 l/m 0,0 km/h (0 Bft) W-NW 282 2 min 0,000 mm 0,0 UV-I 115 W/m -2,7 C -1,9 C 0,0 km/h (0 Bft) 100,00 %
30.12.2016 14:38 -1,8 C 94 % 1039,0 hPa 0,0 l/m 0,0 km/h (0 Bft) W-NW 282 2 min 0,000 mm 0,0 UV-I 135 W/m -2,6 C -1,8 C 0,0 km/h (0 Bft) 100,00 %
30.12.2016 14:40 -1,9 C 94 % 1039,0 hPa 0,0 l/m 0,0 km/h (0 Bft) W-NW 282 2 min 0,000 mm 0,0 UV-I 155 W/m -2,7 C -1,9 C 0,0 km/h (0 Bft) 97,87 %
30.12.2016 14:42 -1,9 C 94 % 1039,0 hPa 0,0 l/m 0,0 km/h (0 Bft) W-NW 282 2 min 0,000 mm 0,0 UV-I 143 W/m -2,7 C -1,9 C 0,0 km/h (0 Bft) 100,00 %
30.12.2016 14:44 -1,9 C 94 % 1039,0 hPa 0,0 l/m 0,0 km/h (0 Bft) W-NW 282 2 min 0,000 mm 0,0 UV-I 149 W/m -2,7 C -1,9 C 0,0 km/h (0 Bft) 100,00 %
30.12.2016 14:46 -1,9 C 93 % 1039,0 hPa 0,0 l/m 0,0 km/h (0 Bft) W-NW 283 2 min 0,000 mm 0,0 UV-I 154 W/m -2,9 C -1,9 C 0,0 km/h (0 Bft) 100,00 %
30.12.2016 14:48 -2,0 C 93 % 1039,0 hPa 0,0 l/m 0,0 km/h (0 Bft) W-NW 283 2 min 0,000 mm 0,0 UV-I 155 W/m -3,0 C -2,0 C 0,0 km/h (0 Bft) 97,96 %
30.12.2016 14:50 -2,0 C 94 % 1038,9 hPa 0,0 l/m 0,0 km/h (0 Bft) W-NW 283 2 min 0,000 mm 0,0 UV-I 151 W/m -2,8 C -2,0 C 0,0 km/h (0 Bft) 100,00 %
30.12.2016 14:52 -2,0 C 93 % 1038,9 hPa 0,0 l/m 0,0 km/h (0 Bft) W-NW 283 2 min 0,000 mm 0,0 UV-I 148 W/m -3,0 C -2,0 C 0,0 km/h (0 Bft) 100,00 %
30.12.2016 14:54 -2,0 C 93 % 1038,8 hPa 0,0 l/m 0,0 km/h (0 Bft) W-NW 283 2 min 0,000 mm 0,0 UV-I 148 W/m -3,0 C -2,0 C 0,0 km/h (0 Bft) 100,00 %
30.12.2016 14:56 -2,0 C 93 % 1038,9 hPa 0,0 l/m 0,0 km/h (0 Bft) W-NW 283 2 min 0,000 mm 0,0 UV-I 145 W/m -3,0 C -2,0 C 0,0 km/h (0 Bft) 100,00 %
30.12.2016 14:58 -1,9 C 94 % 1038,9 hPa 0,0 l/m 0,0 km/h (0 Bft) W-NW 283 2 min 0,000 mm 0,0 UV-I 140 W/m -2,7 C -1,9 C 0,0 km/h (0 Bft) 97,96 %
30.12.2016 15:00 -1,9 C 94 % 1038,9 hPa 0,0 l/m 0,0 km/h (0 Bft) W-NW 283 2 min 0,000 mm 0,0 UV-I 136 W/m -2,7 C -1,9 C 0,0 km/h (0 Bft) 100,00 %
30.12.2016 15:02 -1,8 C 93 % 1039,0 hPa 0,0 l/m 0,0 km/h (0 Bft) W-NW 283 2 min 0,051 mm 0,0 UV-I 134 W/m -2,8 C -1,8 C 0,0 km/h (0 Bft) 98,00 %
30.12.2016 15:04 -1,8 C 93 % 1039,0 hPa 0,0 l/m 0,0 km/h (0 Bft) W-NW 283 2 min 0,000 mm 0,0 UV-I 129 W/m -2,8 C -1,8 C 0,0 km/h (0 Bft) 97,87 %
30.12.2016 15:06 -1,8 C 93 % 1038,9 hPa 0,0 l/m 0,0 km/h (0 Bft) W-NW 283 2 min 0,000 mm 0,0 UV-I 123 W/m -2,8 C -1,8 C 0,0 km/h (0 Bft) 100,00 %
30.12.2016 15:08 -1,8 C 93 % 1038,9 hPa 0,0 l/m 0,0 km/h (0 Bft) W-NW 283 2 min 0,000 mm 0,0 UV-I 117 W/m -2,8 C -1,8 C 0,0 km/h (0 Bft) 97,87 %
30.12.2016 15:10 -1,8 C 93 % 1038,9 hPa 0,0 l/m 0,0 km/h (0 Bft) W-NW 283 2 min 0,000 mm 0,0 UV-I 116 W/m -2,8 C -1,8 C 0,0 km/h (0 Bft) 97,87 %
30.12.2016 15:12 -1,7 C 93 % 1038,9 hPa 0,0 l/m 0,0 km/h (0 Bft) O-SO 116 2 min 0,000 mm 0,0 UV-I 114 W/m -2,7 C -1,7 C 0,0 km/h (0 Bft) 97,87 %
30.12.2016 15:14 -1,7 C 94 % 1038,9 hPa 0,0 l/m 0,0 km/h (0 Bft) O-SO 116 2 min 0,000 mm 0,0 UV-I 113 W/m -2,5 C -1,7 C 0,0 km/h (0 Bft) 97,87 %
30.12.2016 15:16 -1,6 C 94 % 1038,9 hPa 0,0 l/m 0,0 km/h (0 Bft) O-SO 116 2 min 0,000 mm 0,0 UV-I 109 W/m -2,4 C -1,6 C 0,0 km/h (0 Bft) 97,87 %
30.12.2016 15:18 -1,6 C 94 % 1038,9 hPa 0,0 l/m 0,0 km/h (0 Bft) O-SO 116 2 min 0,000 mm 0,0 UV-I 105 W/m -2,4 C -1,6 C 0,0 km/h (0 Bft) 97,37 %
30.12.2016 15:20 -1,7 C 93 % 1038,8 hPa 0,0 l/m 0,0 km/h (0 Bft) O-SO 116 2 min 0,000 mm 0,0 UV-I 101 W/m -2,7 C -1,7 C 0,0 km/h (0 Bft) 97,87 %
30.12.2016 15:22 -1,6 C 94 % 1038,8 hPa 0,0 l/m 0,0 km/h (0 Bft) O-SO 116 2 min 0,000 mm 0,0 UV-I 97 W/m -2,4 C -1,6 C 0,0 km/h (0 Bft) 95,74 %
30.12.2016 15:24 -1,6 C 94 % 1038,8 hPa 0,0 l/m 0,0 km/h (0 Bft) O-SO 116 2 min 0,000 mm 0,0 UV-I 92 W/m -2,4 C -1,6 C 0,0 km/h (0 Bft) 97,87 %
30.12.2016 15:26 -1,5 C 94 % 1038,8 hPa 0,0 l/m 0,0 km/h (0 Bft) O-SO 116 2 min 0,000 mm 0,0 UV-I 88 W/m -2,3 C -1,5 C 0,0 km/h (0 Bft) 95,74 %
30.12.2016 15:28 -1,5 C 94 % 1038,7 hPa 0,0 l/m 0,0 km/h (0 Bft) O-SO 117 2 min 0,000 mm 0,0 UV-I 84 W/m -2,3 C -1,5 C 0,0 km/h (0 Bft) 97,87 %
30.12.2016 15:30 -1,5 C 93 % 1038,6 hPa 0,0 l/m 0,0 km/h (0 Bft) SO 126 2 min 0,000 mm 0,0 UV-I 80 W/m -2,5 C -1,5 C 0,0 km/h (0 Bft) 97,87 %
30.12.2016 15:32 -1,6 C 93 % 1038,7 hPa 0,0 l/m 0,0 km/h (0 Bft) SO 126 2 min 0,000 mm 0,0 UV-I 77 W/m -2,6 C -1,6 C 0,0 km/h (0 Bft) 95,74 %
30.12.2016 15:34 -1,6 C 93 % 1038,6 hPa 0,0 l/m 0,0 km/h (0 Bft) SO 126 2 min 0,000 mm 0,0 UV-I 74 W/m -2,6 C -1,6 C 0,0 km/h (0 Bft) 95,74 %
30.12.2016 15:36 -1,6 C 93 % 1038,6 hPa 0,0 l/m 0,0 km/h (0 Bft) SO 126 2 min 0,000 mm 0,0 UV-I 70 W/m -2,6 C -1,6 C 0,0 km/h (0 Bft) 97,87 %
30.12.2016 15:38 -1,6 C 93 % 1038,6 hPa 0,0 l/m 0,0 km/h (0 Bft) SO 126 2 min 0,000 mm 0,0 UV-I 67 W/m -2,6 C -1,6 C 0,0 km/h (0 Bft) 93,75 %
30.12.2016 15:40 -1,6 C 93 % 1038,6 hPa 0,0 l/m 0,0 km/h (0 Bft) SO 126 2 min 0,000 mm 0,0 UV-I 63 W/m -2,6 C -1,6 C 0,0 km/h (0 Bft) 97,87 %
30.12.2016 15:42 -1,6 C 93 % 1038,6 hPa 0,0 l/m 0,0 km/h (0 Bft) SO 126 2 min 0,000 mm 0,0 UV-I 59 W/m -2,6 C -1,6 C 0,0 km/h (0 Bft) 97,87 %
30.12.2016 15:44 -1,6 C 93 % 1038,6 hPa 0,0 l/m 0,0 km/h (0 Bft) SO 126 2 min 0,000 mm 0,0 UV-I 54 W/m -2,6 C -1,6 C 0,0 km/h (0 Bft) 95,74 %
30.12.2016 15:46 -1,7 C 93 % 1038,6 hPa 0,0 l/m 0,0 km/h (0 Bft) SO 126 2 min 0,000 mm 0,0 UV-I 51 W/m -2,7 C -1,7 C 0,0 km/h (0 Bft) 97,87 %
30.12.2016 15:48 -1,7 C 93 % 1038,7 hPa 0,0 l/m 0,0 km/h (0 Bft) SO 126 2 min 0,000 mm 0,0 UV-I 48 W/m -2,7 C -1,7 C 0,0 km/h (0 Bft) 97,87 %
30.12.2016 15:50 -1,7 C 93 % 1038,7 hPa 0,0 l/m 0,0 km/h (0 Bft) SO 126 2 min 0,000 mm 0,0 UV-I 45 W/m -2,7 C -1,7 C 0,0 km/h (0 Bft) 96,00 %
30.12.2016 15:52 -1,6 C 94 % 1038,6 hPa 0,0 l/m 0,0 km/h (0 Bft) SO 126 2 min 0,000 mm 0,0 UV-I 41 W/m -2,4 C -1,6 C 0,0 km/h (0 Bft) 96,00 %
30.12.2016 15:54 -1,7 C 93 % 1038,6 hPa 0,0 l/m 0,0 km/h (0 Bft) SO 126 2 min 0,000 mm 0,0 UV-I 39 W/m -2,7 C -1,7 C 0,0 km/h (0 Bft) 93,62 %
30.12.2016 15:56 -1,7 C 93 % 1038,6 hPa 0,0 l/m 0,0 km/h (0 Bft) SO 126 2 min 0,000 mm 0,0 UV-I 36 W/m -2,7 C -1,7 C 0,0 km/h (0 Bft) 95,74 %
30.12.2016 15:58 -1,7 C 93 % 1038,7 hPa 0,0 l/m 0,0 km/h (0 Bft) SO 126 2 min 0,000 mm 0,0 UV-I 33 W/m -2,7 C -1,7 C 0,0 km/h (0 Bft) 95,74 %
30.12.2016 16:00 -1,8 C 93 % 1038,7 hPa 0,0 l/m 0,0 km/h (0 Bft) SO 126 2 min 0,025 mm 0,0 UV-I 29 W/m -2,8 C -1,8 C 0,0 km/h (0 Bft) 97,14 %
30.12.2016 16:02 -1,8 C 94 % 1038,6 hPa 0,0 l/m 0,0 km/h (0 Bft) SO 126 2 min 0,000 mm 0,0 UV-I 26 W/m -2,6 C -1,8 C 0,0 km/h (0 Bft) 97,87 %
30.12.2016 16:04 -1,8 C 94 % 1038,6 hPa 0,0 l/m 0,0 km/h (0 Bft) SO 126 2 min 0,000 mm 0,0 UV-I 23 W/m -2,6 C -1,8 C 0,0 km/h (0 Bft) 97,87 %
30.12.2016 16:06 -1,8 C 94 % 1038,6 hPa 0,0 l/m 0,0 km/h (0 Bft) SO 126 2 min 0,000 mm 0,0 UV-I 20 W/m -2,6 C -1,8 C 0,0 km/h (0 Bft) 97,87 %
30.12.2016 16:08 -1,8 C 94 % 1038,6 hPa 0,0 l/m 0,0 km/h (0 Bft) SO 126 0 min 0,000 mm 0,0 UV-I 18 W/m -2,6 C -1,8 C 0,0 km/h (0 Bft) 97,87 %
30.12.2016 16:10 -1,9 C 94 % 1038,6 hPa 0,0 l/m 0,0 km/h (0 Bft) SO 126 0 min 0,000 mm 0,0 UV-I 16 W/m -2,7 C -1,9 C 0,0 km/h (0 Bft) 97,87 %
30.12.2016 16:12 -2,0 C 94 % 1038,6 hPa 0,0 l/m 0,0 km/h (0 Bft) SO 126 0 min 0,000 mm 0,0 UV-I 13 W/m -2,8 C -2,0 C 0,0 km/h (0 Bft) 97,87 %
30.12.2016 16:14 -2,1 C 94 % 1038,6 hPa 0,0 l/m 0,0 km/h (0 Bft) SO 126 0 min 0,000 mm 0,0 UV-I 11 W/m -2,9 C -2,1 C 0,0 km/h (0 Bft) 95,74 %
30.12.2016 16:16 -2,2 C 94 % 1038,6 hPa 0,0 l/m 0,0 km/h (0 Bft) SO 126 0 min 0,000 mm 0,0 UV-I 11 W/m -3,0 C -2,2 C 0,0 km/h (0 Bft) 97,92 %
30.12.2016 16:18 -2,2 C 94 % 1038,6 hPa 0,0 l/m 0,0 km/h (0 Bft) SO 126 0 min 0,000 mm 0,0 UV-I 10 W/m -3,0 C -2,2 C 0,0 km/h (0 Bft) 97,87 %
30.12.2016 16:20 -2,3 C 94 % 1038,6 hPa 0,0 l/m 0,0 km/h (0 Bft) SO 126 0 min 0,000 mm 0,0 UV-I 9 W/m -3,1 C -2,3 C 0,0 km/h (0 Bft) 95,74 %
30.12.2016 16:22 -2,4 C 94 % 1038,6 hPa 0,0 l/m 0,0 km/h (0 Bft) SO 126 0 min 0,000 mm 0,0 UV-I 9 W/m -3,2 C -2,4 C 0,0 km/h (0 Bft) 95,74 %
30.12.2016 16:24 -2,4 C 94 % 1038,6 hPa 0,0 l/m 0,0 km/h (0 Bft) SO 126 0 min 0,000 mm 0,0 UV-I 7 W/m -3,2 C -2,4 C 0,0 km/h (0 Bft) 98,00 %
30.12.2016 16:26 -2,5 C 95 % 1038,6 hPa 0,0 l/m 0,0 km/h (0 Bft) SO 126 0 min 0,000 mm 0,0 UV-I 7 W/m -3,2 C -2,5 C 0,0 km/h (0 Bft) 97,87 %
30.12.2016 16:28 -2,6 C 95 % 1038,6 hPa 0,0 l/m 0,0 km/h (0 Bft) SO 126 0 min 0,000 mm 0,0 UV-I 7 W/m -3,3 C -2,6 C 0,0 km/h (0 Bft) 97,87 %
30.12.2016 16:30 -2,6 C 95 % 1038,6 hPa 0,0 l/m 0,0 km/h (0 Bft) SO 126 0 min 0,000 mm 0,0 UV-I 5 W/m -3,3 C -2,6 C 0,0 km/h (0 Bft) 93,62 %
30.12.2016 16:32 -2,6 C 95 % 1038,7 hPa 0,0 l/m 0,0 km/h (0 Bft) SO 126 0 min 0,000 mm 0,0 UV-I 5 W/m -3,3 C -2,6 C 0,0 km/h (0 Bft) 97,87 %
30.12.2016 16:34 -2,5 C 95 % 1038,7 hPa 0,0 l/m 0,0 km/h (0 Bft) SO 126 0 min 0,000 mm 0,0 UV-I 5 W/m -3,2 C -2,5 C 0,0 km/h (0 Bft) 95,74 %
30.12.2016 16:36 -2,4 C 95 % 1038,7 hPa 0,0 l/m 0,0 km/h (0 Bft) SO 126 0 min 0,000 mm 0,0 UV-I 5 W/m -3,1 C -2,4 C 0,0 km/h (0 Bft) 97,87 %
30.12.2016 16:38 -2,5 C 95 % 1038,8 hPa 0,0 l/m 0,0 km/h (0 Bft) SO 126 0 min 0,000 mm 0,0 UV-I 1 W/m -3,2 C -2,5 C 0,0 km/h (0 Bft) 98,00 %
30.12.2016 16:40 -2,5 C 95 % 1038,8 hPa 0,0 l/m 0,0 km/h (0 Bft) SO 126 0 min 0,000 mm 0,0 UV-I 0 W/m -3,2 C -2,5 C 0,0 km/h (0 Bft) 100,00 %
30.12.2016 16:42 -2,4 C 95 % 1038,8 hPa 0,0 l/m 0,0 km/h (0 Bft) SO 126 0 min 0,000 mm 0,0 UV-I 0 W/m -3,1 C -2,4 C 0,0 km/h (0 Bft) 100,00 %
30.12.2016 16:44 -2,5 C 95 % 1038,8 hPa 0,0 l/m 0,0 km/h (0 Bft) SO 126 0 min 0,000 mm 0,0 UV-I 0 W/m -3,2 C -2,5 C 0,0 km/h (0 Bft) 97,14 %
30.12.2016 16:46 -2,5 C 95 % 1038,8 hPa 0,0 l/m 0,0 km/h (0 Bft) SO 126 0 min 0,000 mm 0,0 UV-I 0 W/m -3,2 C -2,5 C 0,0 km/h (0 Bft) 100,00 %
30.12.2016 16:48 -2,4 C 95 % 1038,8 hPa 0,0 l/m 0,0 km/h (0 Bft) SO 126 0 min 0,000 mm 0,0 UV-I 0 W/m -3,1 C -2,4 C 0,0 km/h (0 Bft) 95,74 %
30.12.2016 16:50 -2,6 C 95 % 1038,8 hPa 0,0 l/m 0,0 km/h (0 Bft) SO 126 0 min 0,000 mm 0,0 UV-I 0 W/m -3,3 C -2,6 C 0,0 km/h (0 Bft) 97,87 %
30.12.2016 16:52 -2,7 C 95 % 1038,8 hPa 0,0 l/m 0,0 km/h (0 Bft) SO 126 0 min 0,000 mm 0,0 UV-I 0 W/m -3,4 C -2,7 C 0,0 km/h (0 Bft) 97,87 %
30.12.2016 16:54 -2,7 C 95 % 1038,9 hPa 0,0 l/m 0,0 km/h (0 Bft) SO 126 0 min 0,000 mm 0,0 UV-I 0 W/m -3,4 C -2,7 C 0,0 km/h (0 Bft) 100,00 %
30.12.2016 16:56 -2,7 C 95 % 1038,8 hPa 0,0 l/m 0,0 km/h (0 Bft) SO 126 0 min 0,000 mm 0,0 UV-I 0 W/m -3,4 C -2,7 C 0,0 km/h (0 Bft) 100,00 %
30.12.2016 16:58 -2,7 C 95 % 1038,8 hPa 0,0 l/m 0,0 km/h (0 Bft) SO 126 0 min 0,000 mm 0,0 UV-I 0 W/m -3,4 C -2,7 C 0,0 km/h (0 Bft) 94,00 %
30.12.2016 17:00 -2,8 C 95 % 1038,8 hPa 0,0 l/m 0,0 km/h (0 Bft) SO 126 0 min 0,000 mm 0,0 UV-I 0 W/m -3,5 C -2,8 C 0,0 km/h (0 Bft) 100,00 %
30.12.2016 17:02 -2,9 C 95 % 1038,8 hPa 0,0 l/m 0,0 km/h (0 Bft) SO 126 0 min 0,000 mm 0,0 UV-I 0 W/m -3,6 C -2,9 C 0,0 km/h (0 Bft) 97,87 %
30.12.2016 17:04 -2,9 C 95 % 1038,8 hPa 0,0 l/m 0,0 km/h (0 Bft) SO 126 0 min 0,000 mm 0,0 UV-I 0 W/m -3,6 C -2,9 C 0,0 km/h (0 Bft) 97,87 %
30.12.2016 17:06 -2,9 C 95 % 1038,7 hPa 0,0 l/m 0,0 km/h (0 Bft) SO 126 0 min 0,000 mm 0,0 UV-I 0 W/m -3,6 C -2,9 C 0,0 km/h (0 Bft) 100,00 %
30.12.2016 17:08 -2,8 C 96 % 1038,7 hPa 0,0 l/m 0,0 km/h (0 Bft) SO 126 0 min 0,000 mm 0,0 UV-I 0 W/m -3,3 C -2,8 C 0,0 km/h (0 Bft) 100,00 %
30.12.2016 17:10 -2,9 C 96 % 1038,7 hPa 0,0 l/m 0,0 km/h (0 Bft) SO 126 0 min 0,000 mm 0,0 UV-I 0 W/m -3,4 C -2,9 C 0,0 km/h (0 Bft) 100,00 %
30.12.2016 17:12 -2,9 C 96 % 1038,7 hPa 0,0 l/m 0,0 km/h (0 Bft) SO 126 0 min 0,000 mm 0,0 UV-I 0 W/m -3,4 C -2,9 C 0,0 km/h (0 Bft) 100,00 %
30.12.2016 17:14 -2,9 C 96 % 1038,8 hPa 0,0 l/m 0,0 km/h (0 Bft) SO 126 0 min 0,000 mm 0,0 UV-I 0 W/m -3,4 C -2,9 C 0,0 km/h (0 Bft) 100,00 %
30.12.2016 17:16 -2,9 C 96 % 1038,8 hPa 0,0 l/m 0,0 km/h (0 Bft) SO 126 0 min 0,000 mm 0,0 UV-I 0 W/m -3,4 C -2,9 C 0,0 km/h (0 Bft) 100,00 %
30.12.2016 17:18 -2,9 C 96 % 1038,8 hPa 0,0 l/m 0,0 km/h (0 Bft) SO 126 0 min 0,000 mm 0,0 UV-I 0 W/m -3,4 C -2,9 C 0,0 km/h (0 Bft) 100,00 %
30.12.2016 17:20 -2,9 C 96 % 1038,8 hPa 0,0 l/m 0,0 km/h (0 Bft) SO 126 0 min 0,000 mm 0,0 UV-I 0 W/m -3,4 C -2,9 C 0,0 km/h (0 Bft) 97,87 %
30.12.2016 17:22 -2,9 C 96 % 1038,8 hPa 0,0 l/m 0,0 km/h (0 Bft) SO 126 0 min 0,000 mm 0,0 UV-I 0 W/m -3,4 C -2,9 C 0,0 km/h (0 Bft) 97,87 %
30.12.2016 17:24 -2,9 C 96 % 1038,7 hPa 0,0 l/m 0,0 km/h (0 Bft) SO 126 0 min 0,000 mm 0,0 UV-I 0 W/m -3,4 C -2,9 C 0,0 km/h (0 Bft) 100,00 %
30.12.2016 17:26 -2,9 C 96 % 1038,7 hPa 0,0 l/m 0,0 km/h (0 Bft) SO 126 0 min 0,000 mm 0,0 UV-I 0 W/m -3,4 C -2,9 C 0,0 km/h (0 Bft) 97,87 %
30.12.2016 17:28 -2,9 C 96 % 1038,7 hPa 0,0 l/m 0,0 km/h (0 Bft) O-SO 108 0 min 0,000 mm 0,0 UV-I 0 W/m -3,4 C -2,9 C 0,0 km/h (0 Bft) 100,00 %
30.12.2016 17:30 -2,8 C 96 % 1038,6 hPa 0,0 l/m 0,0 km/h (0 Bft) O-SO 108 0 min 0,000 mm 0,0 UV-I 0 W/m -3,3 C -2,8 C 0,0 km/h (0 Bft) 97,87 %
30.12.2016 17:32 -2,8 C 96 % 1038,6 hPa 0,0 l/m 0,0 km/h (0 Bft) O-SO 108 0 min 0,000 mm 0,0 UV-I 0 W/m -3,3 C -2,8 C 0,0 km/h (0 Bft) 100,00 %
30.12.2016 17:34 -2,9 C 96 % 1038,6 hPa 0,0 l/m 0,0 km/h (0 Bft) O-SO 108 0 min 0,000 mm 0,0 UV-I 0 W/m -3,4 C -2,9 C 0,0 km/h (0 Bft) 98,00 %
30.12.2016 17:36 -2,9 C 96 % 1038,7 hPa 0,0 l/m 0,0 km/h (0 Bft) O-SO 108 0 min 0,000 mm 0,0 UV-I 0 W/m -3,4 C -2,9 C 0,0 km/h (0 Bft) 100,00 %
30.12.2016 17:38 -3,0 C 96 % 1038,7 hPa 0,0 l/m 0,0 km/h (0 Bft) O-SO 108 0 min 0,000 mm 0,0 UV-I 0 W/m -3,5 C -3,0 C 0,0 km/h (0 Bft) 98,00 %
30.12.2016 17:40 -3,1 C 96 % 1038,6 hPa 0,0 l/m 0,0 km/h (0 Bft) O-SO 108 0 min 0,000 mm 0,0 UV-I 0 W/m -3,6 C -3,1 C 0,0 km/h (0 Bft) 97,44 %
30.12.2016 17:42 -3,1 C 96 % 1038,6 hPa 0,0 l/m 0,0 km/h (0 Bft) O-SO 108 0 min 0,000 mm 0,0 UV-I 0 W/m -3,6 C -3,1 C 0,0 km/h (0 Bft) 98,00 %
30.12.2016 17:44 -3,1 C 96 % 1038,6 hPa 0,0 l/m 0,0 km/h (0 Bft) O-SO 108 0 min 0,000 mm 0,0 UV-I 0 W/m -3,6 C -3,1 C 0,0 km/h (0 Bft) 100,00 %
30.12.2016 17:46 -3,1 C 96 % 1038,7 hPa 0,0 l/m 0,0 km/h (0 Bft) O-SO 108 0 min 0,000 mm 0,0 UV-I 0 W/m -3,6 C -3,1 C 0,0 km/h (0 Bft) 100,00 %
30.12.2016 17:48 -3,2 C 96 % 1038,7 hPa 0,0 l/m 0,0 km/h (0 Bft) O-SO 108 0 min 0,000 mm 0,0 UV-I 0 W/m -3,7 C -3,2 C 0,0 km/h (0 Bft) 97,87 %
30.12.2016 17:50 -3,2 C 96 % 1038,7 hPa 0,0 l/m 0,0 km/h (0 Bft) O-SO 108 0 min 0,000 mm 0,0 UV-I 0 W/m -3,7 C -3,2 C 0,0 km/h (0 Bft) 97,87 %
30.12.2016 17:52 -3,2 C 96 % 1038,7 hPa 0,0 l/m 0,0 km/h (0 Bft) O-SO 108 0 min 0,000 mm 0,0 UV-I 0 W/m -3,7 C -3,2 C 0,0 km/h (0 Bft) 96,00 %
30.12.2016 17:54 -3,2 C 96 % 1038,6 hPa 0,0 l/m 0,0 km/h (0 Bft) O-SO 108 0 min 0,000 mm 0,0 UV-I 0 W/m -3,7 C -3,2 C 0,0 km/h (0 Bft) 100,00 %
30.12.2016 17:56 -3,3 C 96 % 1038,6 hPa 0,0 l/m 0,0 km/h (0 Bft) O-SO 108 0 min 0,000 mm 0,0 UV-I 0 W/m -3,8 C -3,3 C 0,0 km/h (0 Bft) 100,00 %
30.12.2016 17:58 -3,3 C 96 % 1038,6 hPa 0,0 l/m 0,0 km/h (0 Bft) O-SO 108 0 min 0,000 mm 0,0 UV-I 0 W/m -3,8 C -3,3 C 0,0 km/h (0 Bft) 100,00 %
30.12.2016 18:00 -3,4 C 96 % 1038,6 hPa 0,0 l/m 0,0 km/h (0 Bft) O-SO 108 0 min 0,000 mm 0,0 UV-I 0 W/m -3,9 C -3,4 C 0,0 km/h (0 Bft) 100,00 %
30.12.2016 18:02 -3,4 C 96 % 1038,5 hPa 0,0 l/m 0,0 km/h (0 Bft) O-SO 108 0 min 0,000 mm 0,0 UV-I 0 W/m -3,9 C -3,4 C 0,0 km/h (0 Bft) 100,00 %
30.12.2016 18:04 -3,5 C 96 % 1038,6 hPa 0,0 l/m 0,0 km/h (0 Bft) O-SO 108 0 min 0,000 mm 0,0 UV-I 0 W/m -4,0 C -3,5 C 0,0 km/h (0 Bft) 100,00 %
30.12.2016 18:06 -3,5 C 96 % 1038,5 hPa 0,0 l/m 0,0 km/h (0 Bft) O-SO 108 0 min 0,000 mm 0,0 UV-I 0 W/m -4,0 C -3,5 C 0,0 km/h (0 Bft) 100,00 %
30.12.2016 18:08 -3,5 C 96 % 1038,5 hPa 0,0 l/m 0,0 km/h (0 Bft) O-SO 108 0 min 0,000 mm 0,0 UV-I 0 W/m -4,0 C -3,5 C 0,0 km/h (0 Bft) 100,00 %
30.12.2016 18:10 -3,6 C 96 % 1038,5 hPa 0,0 l/m 0,0 km/h (0 Bft) O-SO 108 0 min 0,000 mm 0,0 UV-I 0 W/m -4,1 C -3,6 C 0,0 km/h (0 Bft) 97,87 %
30.12.2016 18:12 -3,6 C 96 % 1038,6 hPa 0,0 l/m 0,0 km/h (0 Bft) O-SO 108 0 min 0,000 mm 0,0 UV-I 0 W/m -4,1 C -3,6 C 0,0 km/h (0 Bft) 100,00 %
30.12.2016 18:14 -3,7 C 96 % 1038,6 hPa 0,0 l/m 0,0 km/h (0 Bft) O-SO 108 0 min 0,000 mm 0,0 UV-I 0 W/m -4,2 C -3,7 C 0,0 km/h (0 Bft) 94,87 %
30.12.2016 18:16 -3,7 C 96 % 1038,5 hPa 0,0 l/m 0,0 km/h (0 Bft) O-SO 108 0 min 0,000 mm 0,0 UV-I 0 W/m -4,2 C -3,7 C 0,0 km/h (0 Bft) 100,00 %
30.12.2016 18:18 -3,8 C 96 % 1038,5 hPa 0,0 l/m 0,0 km/h (0 Bft) O-SO 108 0 min 0,000 mm 0,0 UV-I 0 W/m -4,3 C -3,8 C 0,0 km/h (0 Bft) 97,87 %
30.12.2016 18:20 -3,8 C 96 % 1038,5 hPa 0,0 l/m 0,0 km/h (0 Bft) O-SO 108 0 min 0,000 mm 0,0 UV-I 0 W/m -4,3 C -3,8 C 0,0 km/h (0 Bft) 97,87 %
30.12.2016 18:22 -3,8 C 96 % 1038,6 hPa 0,0 l/m 0,0 km/h (0 Bft) O-SO 108 0 min 0,000 mm 0,0 UV-I 0 W/m -4,3 C -3,8 C 0,0 km/h (0 Bft) 96,23 %
30.12.2016 18:24 -3,8 C 96 % 1038,5 hPa 0,0 l/m 0,0 km/h (0 Bft) O-SO 108 0 min 0,000 mm 0,0 UV-I 0 W/m -4,3 C -3,8 C 0,0 km/h (0 Bft) 95,74 %
30.12.2016 18:26 -3,7 C 96 % 1038,5 hPa 0,0 l/m 0,0 km/h (0 Bft) O-SO 108 0 min 0,000 mm 0,0 UV-I 0 W/m -4,2 C -3,7 C 0,0 km/h (0 Bft) 97,87 %
30.12.2016 18:28 -3,6 C 96 % 1038,5 hPa 0,0 l/m 0,0 km/h (0 Bft) O-SO 108 0 min 0,000 mm 0,0 UV-I 0 W/m -4,1 C -3,6 C 0,0 km/h (0 Bft) 97,87 %
30.12.2016 18:30 -3,6 C 96 % 1038,5 hPa 0,0 l/m 0,0 km/h (0 Bft) O-SO 108 0 min 0,000 mm 0,0 UV-I 0 W/m -4,1 C -3,6 C 0,0 km/h (0 Bft) 95,74 %
30.12.2016 18:32 -3,6 C 96 % 1038,5 hPa 0,0 l/m 0,0 km/h (0 Bft) O-SO 108 0 min 0,000 mm 0,0 UV-I 0 W/m -4,1 C -3,6 C 0,0 km/h (0 Bft) 93,62 %
30.12.2016 18:34 -3,6 C 96 % 1038,4 hPa 0,0 l/m 0,0 km/h (0 Bft) O-SO 108 0 min 0,000 mm 0,0 UV-I 0 W/m -4,1 C -3,6 C 0,0 km/h (0 Bft) 93,62 %
30.12.2016 18:36 -3,6 C 96 % 1038,4 hPa 0,0 l/m 0,0 km/h (0 Bft) O-SO 108 0 min 0,000 mm 0,0 UV-I 0 W/m -4,1 C -3,6 C 0,0 km/h (0 Bft) 97,87 %
30.12.2016 18:38 -3,6 C 96 % 1038,4 hPa 0,0 l/m 0,0 km/h (0 Bft) O-SO 108 0 min 0,000 mm 0,0 UV-I 0 W/m -4,1 C -3,6 C 0,0 km/h (0 Bft) 97,87 %
30.12.2016 18:40 -3,6 C 96 % 1038,4 hPa 0,0 l/m 0,0 km/h (0 Bft) O-SO 108 0 min 0,000 mm 0,0 UV-I 0 W/m -4,1 C -3,6 C 0,0 km/h (0 Bft) 95,74 %
30.12.2016 18:42 -3,7 C 96 % 1038,4 hPa 0,0 l/m 0,0 km/h (0 Bft) O-SO 108 0 min 0,000 mm 0,0 UV-I 0 W/m -4,2 C -3,7 C 0,0 km/h (0 Bft) 94,59 %
30.12.2016 18:44 -3,7 C 96 % 1038,4 hPa 0,0 l/m 0,0 km/h (0 Bft) O-SO 108 0 min 0,000 mm 0,0 UV-I 0 W/m -4,2 C -3,7 C 0,0 km/h (0 Bft) 95,74 %
30.12.2016 18:46 -3,7 C 96 % 1038,4 hPa 0,0 l/m 0,0 km/h (0 Bft) O-SO 108 0 min 0,000 mm 0,0 UV-I 0 W/m -4,2 C -3,7 C 0,0 km/h (0 Bft) 97,87 %
30.12.2016 18:48 -3,8 C 96 % 1038,4 hPa 0,0 l/m 0,0 km/h (0 Bft) O-SO 108 0 min 0,000 mm 0,0 UV-I 0 W/m -4,3 C -3,8 C 0,0 km/h (0 Bft) 97,87 %
30.12.2016 18:50 -3,8 C 96 % 1038,3 hPa 0,0 l/m 0,0 km/h (0 Bft) O-SO 108 0 min 0,000 mm 0,0 UV-I 0 W/m -4,3 C -3,8 C 0,0 km/h (0 Bft) 95,74 %
30.12.2016 18:52 -3,8 C 96 % 1038,3 hPa 0,0 l/m 0,0 km/h (0 Bft) O-SO 108 0 min 0,000 mm 0,0 UV-I 0 W/m -4,3 C -3,8 C 0,0 km/h (0 Bft) 97,96 %
30.12.2016 18:54 -3,9 C 96 % 1038,2 hPa 0,0 l/m 0,0 km/h (0 Bft) O-SO 108 0 min 0,000 mm 0,0 UV-I 0 W/m -4,4 C -3,9 C 0,0 km/h (0 Bft) 95,74 %
30.12.2016 18:56 -4,0 C 96 % 1038,3 hPa 0,0 l/m 0,0 km/h (0 Bft) O-SO 108 0 min 0,000 mm 0,0 UV-I 0 W/m -4,5 C -4,0 C 0,0 km/h (0 Bft) 97,87 %
30.12.2016 18:58 -4,1 C 96 % 1038,3 hPa 0,0 l/m 0,0 km/h (0 Bft) O-SO 108 0 min 0,000 mm 0,0 UV-I 0 W/m -4,6 C -4,1 C 0,0 km/h (0 Bft) 97,92 %
30.12.2016 19:00 -4,1 C 96 % 1038,2 hPa 0,0 l/m 0,0 km/h (0 Bft) O-SO 108 0 min 0,000 mm 0,0 UV-I 0 W/m -4,6 C -4,1 C 0,0 km/h (0 Bft) 100,00 %
30.12.2016 19:02 -4,1 C 96 % 1038,1 hPa 0,0 l/m 0,0 km/h (0 Bft) O-SO 108 0 min 0,000 mm 0,0 UV-I 0 W/m -4,6 C -4,1 C 0,0 km/h (0 Bft) 95,92 %
30.12.2016 19:04 -4,1 C 96 % 1038,1 hPa 0,0 l/m 0,0 km/h (0 Bft) O-SO 108 0 min 0,000 mm 0,0 UV-I 0 W/m -4,6 C -4,1 C 0,0 km/h (0 Bft) 100,00 %
30.12.2016 19:06 -4,1 C 96 % 1038,2 hPa 0,0 l/m 0,0 km/h (0 Bft) O-SO 108 0 min 0,000 mm 0,0 UV-I 0 W/m -4,6 C -4,1 C 0,0 km/h (0 Bft) 98,00 %
30.12.2016 19:08 -4,1 C 96 % 1038,1 hPa 0,0 l/m 0,0 km/h (0 Bft) O-SO 108 0 min 0,000 mm 0,0 UV-I 0 W/m -4,6 C -4,1 C 0,0 km/h (0 Bft) 100,00 %
30.12.2016 19:10 -4,1 C 96 % 1038,1 hPa 0,0 l/m 0,0 km/h (0 Bft) O-SO 108 0 min 0,000 mm 0,0 UV-I 0 W/m -4,6 C -4,1 C 0,0 km/h (0 Bft) 100,00 %
30.12.2016 19:12 -4,1 C 96 % 1038,2 hPa 0,0 l/m 0,0 km/h (0 Bft) O-SO 108 0 min 0,000 mm 0,0 UV-I 0 W/m -4,6 C -4,1 C 0,0 km/h (0 Bft) 97,87 %
30.12.2016 19:14 -4,2 C 96 % 1038,2 hPa 0,0 l/m 0,0 km/h (0 Bft) O-SO 108 0 min 0,000 mm 0,0 UV-I 0 W/m -4,7 C -4,2 C 0,0 km/h (0 Bft) 100,00 %
30.12.2016 19:16 -4,2 C 96 % 1038,1 hPa 0,0 l/m 0,0 km/h (0 Bft) O-SO 108 0 min 0,000 mm 0,0 UV-I 0 W/m -4,7 C -4,2 C 0,0 km/h (0 Bft) 100,00 %
30.12.2016 19:18 -4,2 C 96 % 1038,1 hPa 0,0 l/m 0,0 km/h (0 Bft) O-SO 108 0 min 0,000 mm 0,0 UV-I 0 W/m -4,7 C -4,2 C 0,0 km/h (0 Bft) 100,00 %
30.12.2016 19:20 -4,2 C 96 % 1038,1 hPa 0,0 l/m 0,0 km/h (0 Bft) O-SO 108 0 min 0,000 mm 0,0 UV-I 0 W/m -4,7 C -4,2 C 0,0 km/h (0 Bft) 100,00 %
30.12.2016 19:22 -4,2 C 96 % 1038,1 hPa 0,0 l/m 0,0 km/h (0 Bft) O-SO 108 0 min 0,000 mm 0,0 UV-I 0 W/m -4,7 C -4,2 C 0,0 km/h (0 Bft) 98,00 %
30.12.2016 19:24 -4,2 C 96 % 1038,1 hPa 0,0 l/m 0,0 km/h (0 Bft) O-SO 108 0 min 0,000 mm 0,0 UV-I 0 W/m -4,7 C -4,2 C 0,0 km/h (0 Bft) 100,00 %
30.12.2016 19:26 -4,2 C 96 % 1038,1 hPa 0,0 l/m 0,0 km/h (0 Bft) O-SO 108 0 min 0,000 mm 0,0 UV-I 0 W/m -4,7 C -4,2 C 0,0 km/h (0 Bft) 97,87 %
30.12.2016 19:28 -4,2 C 96 % 1038,1 hPa 0,0 l/m 0,0 km/h (0 Bft) O-SO 108 0 min 0,000 mm 0,0 UV-I 0 W/m -4,7 C -4,2 C 0,0 km/h (0 Bft) 100,00 %
30.12.2016 19:30 -4,2 C 96 % 1038,2 hPa 0,0 l/m 0,0 km/h (0 Bft) O-SO 108 0 min 0,000 mm 0,0 UV-I 0 W/m -4,7 C -4,2 C 0,0 km/h (0 Bft) 100,00 %
30.12.2016 19:32 -4,3 C 96 % 1038,2 hPa 0,0 l/m 0,0 km/h (0 Bft) O-SO 108 0 min 0,000 mm 0,0 UV-I 0 W/m -4,8 C -4,3 C 0,0 km/h (0 Bft) 100,00 %
30.12.2016 19:34 -4,3 C 96 % 1038,2 hPa 0,0 l/m 0,0 km/h (0 Bft) O-SO 108 0 min 0,000 mm 0,0 UV-I 0 W/m -4,8 C -4,3 C 0,0 km/h (0 Bft) 100,00 %
30.12.2016 19:36 -4,3 C 96 % 1038,2 hPa 0,0 l/m 0,0 km/h (0 Bft) O-SO 108 0 min 0,000 mm 0,0 UV-I 0 W/m -4,8 C -4,3 C 0,0 km/h (0 Bft) 100,00 %
30.12.2016 19:38 -4,3 C 96 % 1038,2 hPa 0,0 l/m 0,0 km/h (0 Bft) O-SO 108 0 min 0,000 mm 0,0 UV-I 0 W/m -4,8 C -4,3 C 0,0 km/h (0 Bft) 100,00 %
30.12.2016 19:40 -4,3 C 96 % 1038,2 hPa 0,0 l/m 0,0 km/h (0 Bft) O-SO 108 0 min 0,000 mm 0,0 UV-I 0 W/m -4,8 C -4,3 C 0,0 km/h (0 Bft) 100,00 %
30.12.2016 19:42 -4,3 C 96 % 1038,3 hPa 0,0 l/m 0,0 km/h (0 Bft) O-SO 108 0 min 0,000 mm 0,0 UV-I 0 W/m -4,8 C -4,3 C 0,0 km/h (0 Bft) 100,00 %
30.12.2016 19:44 -4,3 C 96 % 1038,4 hPa 0,0 l/m 0,0 km/h (0 Bft) O-SO 108 0 min 0,000 mm 0,0 UV-I 0 W/m -4,8 C -4,3 C 0,0 km/h (0 Bft) 100,00 %
30.12.2016 19:46 -4,3 C 96 % 1038,3 hPa 0,0 l/m 0,0 km/h (0 Bft) O-SO 108 0 min 0,000 mm 0,0 UV-I 0 W/m -4,8 C -4,3 C 0,0 km/h (0 Bft) 100,00 %
30.12.2016 19:48 -4,4 C 96 % 1038,3 hPa 0,0 l/m 0,0 km/h (0 Bft) O-SO 108 0 min 0,000 mm 0,0 UV-I 0 W/m -4,9 C -4,4 C 0,0 km/h (0 Bft) 97,87 %
30.12.2016 19:50 -4,4 C 96 % 1038,3 hPa 0,0 l/m 0,0 km/h (0 Bft) O-SO 108 0 min 0,000 mm 0,0 UV-I 0 W/m -4,9 C -4,4 C 0,0 km/h (0 Bft) 97,87 %
30.12.2016 19:52 -4,5 C 96 % 1038,4 hPa 0,0 l/m 0,0 km/h (0 Bft) O-SO 108 0 min 0,000 mm 0,0 UV-I 0 W/m -5,0 C -4,5 C 0,0 km/h (0 Bft) 100,00 %
30.12.2016 19:54 -4,5 C 96 % 1038,4 hPa 0,0 l/m 0,0 km/h (0 Bft) O-SO 107 0 min 0,000 mm 0,0 UV-I 0 W/m -5,0 C -4,5 C 0,0 km/h (0 Bft) 100,00 %
30.12.2016 19:56 -4,4 C 96 % 1038,4 hPa 0,0 l/m 0,0 km/h (0 Bft) O-SO 103 0 min 0,000 mm 0,0 UV-I 0 W/m -4,9 C -4,4 C 0,0 km/h (0 Bft) 100,00 %
30.12.2016 19:58 -4,3 C 96 % 1038,4 hPa 0,0 l/m 0,0 km/h (0 Bft) O 100 0 min 0,000 mm 0,0 UV-I 0 W/m -4,8 C -4,3 C 0,0 km/h (0 Bft) 100,00 %
30.12.2016 20:00 -4,2 C 97 % 1038,3 hPa 0,0 l/m 0,0 km/h (0 Bft) O 100 0 min 0,000 mm 0,0 UV-I 0 W/m -4,6 C -4,2 C 0,0 km/h (0 Bft) 100,00 %
30.12.2016 20:02 -4,3 C 96 % 1038,3 hPa 0,0 l/m 0,0 km/h (0 Bft) O 100 0 min 0,000 mm 0,0 UV-I 0 W/m -4,8 C -4,3 C 0,0 km/h (0 Bft) 100,00 %
30.12.2016 20:04 -4,3 C 96 % 1038,3 hPa 0,0 l/m 0,0 km/h (0 Bft) O 100 0 min 0,000 mm 0,0 UV-I 0 W/m -4,8 C -4,3 C 0,0 km/h (0 Bft) 97,14 %
30.12.2016 20:06 -4,3 C 96 % 1038,4 hPa 0,0 l/m 0,0 km/h (0 Bft) O 100 0 min 0,000 mm 0,0 UV-I 0 W/m -4,8 C -4,3 C 0,0 km/h (0 Bft) 98,11 %
30.12.2016 20:08 -4,4 C 96 % 1038,4 hPa 0,0 l/m 0,0 km/h (0 Bft) O 99 0 min 0,000 mm 0,0 UV-I 0 W/m -4,9 C -4,4 C 0,0 km/h (0 Bft) 100,00 %
30.12.2016 20:10 -4,4 C 96 % 1038,3 hPa 0,0 l/m 0,0 km/h (0 Bft) O 100 0 min 0,000 mm 0,0 UV-I 0 W/m -4,9 C -4,4 C 0,0 km/h (0 Bft) 100,00 %
30.12.2016 20:12 -4,4 C 96 % 1038,4 hPa 0,0 l/m 0,0 km/h (0 Bft) O 100 0 min 0,000 mm 0,0 UV-I 0 W/m -4,9 C -4,4 C 0,0 km/h (0 Bft) 100,00 %
30.12.2016 20:14 -4,5 C 96 % 1038,4 hPa 0,0 l/m 0,0 km/h (0 Bft) O 100 0 min 0,000 mm 0,0 UV-I 0 W/m -5,0 C -4,5 C 0,0 km/h (0 Bft) 97,87 %
30.12.2016 20:16 -4,6 C 96 % 1038,5 hPa 0,0 l/m 0,0 km/h (0 Bft) O 100 0 min 0,000 mm 0,0 UV-I 0 W/m -5,1 C -4,6 C 0,0 km/h (0 Bft) 100,00 %
30.12.2016 20:18 -4,6 C 96 % 1038,5 hPa 0,0 l/m 0,0 km/h (0 Bft) O 100 0 min 0,000 mm 0,0 UV-I 0 W/m -5,1 C -4,6 C 0,0 km/h (0 Bft) 95,74 %
30.12.2016 20:20 -4,6 C 96 % 1038,4 hPa 0,0 l/m 0,0 km/h (0 Bft) O 100 0 min 0,000 mm 0,0 UV-I 0 W/m -5,1 C -4,6 C 0,0 km/h (0 Bft) 100,00 %
30.12.2016 20:22 -4,6 C 96 % 1038,4 hPa 0,0 l/m 0,0 km/h (0 Bft) O 100 0 min 0,000 mm 0,0 UV-I 0 W/m -5,1 C -4,6 C 0,0 km/h (0 Bft) 97,44 %
30.12.2016 20:24 -4,6 C 96 % 1038,5 hPa 0,0 l/m 0,0 km/h (0 Bft) O 100 0 min 0,000 mm 0,0 UV-I 0 W/m -5,1 C -4,6 C 0,0 km/h (0 Bft) 100,00 %
30.12.2016 20:26 -4,6 C 96 % 1038,5 hPa 0,0 l/m 0,0 km/h (0 Bft) O 100 0 min 0,000 mm 0,0 UV-I 0 W/m -5,1 C -4,6 C 0,0 km/h (0 Bft) 100,00 %
30.12.2016 20:28 -4,6 C 96 % 1038,6 hPa 0,0 l/m 0,0 km/h (0 Bft) O 100 0 min 0,000 mm 0,0 UV-I 0 W/m -5,1 C -4,6 C 0,0 km/h (0 Bft) 100,00 %
30.12.2016 20:30 -4,6 C 96 % 1038,6 hPa 0,0 l/m 0,0 km/h (0 Bft) O 99 0 min 0,000 mm 0,0 UV-I 0 W/m -5,1 C -4,6 C 0,0 km/h (0 Bft) 95,74 %
30.12.2016 20:32 -4,6 C 96 % 1038,6 hPa 0,0 l/m 0,0 km/h (0 Bft) O 99 0 min 0,000 mm 0,0 UV-I 0 W/m -5,1 C -4,6 C 0,0 km/h (0 Bft) 97,87 %
30.12.2016 20:34 -4,6 C 96 % 1038,6 hPa 0,0 l/m 0,0 km/h (0 Bft) O 99 0 min 0,000 mm 0,0 UV-I 0 W/m -5,1 C -4,6 C 0,0 km/h (0 Bft) 95,74 %
30.12.2016 20:36 -4,7 C 96 % 1038,7 hPa 0,0 l/m 0,0 km/h (0 Bft) O 99 0 min 0,000 mm 0,0 UV-I 0 W/m -5,2 C -4,7 C 0,0 km/h (0 Bft) 95,74 %
30.12.2016 20:38 -4,7 C 96 % 1038,7 hPa 0,0 l/m 0,0 km/h (0 Bft) O 99 0 min 0,000 mm 0,0 UV-I 0 W/m -5,2 C -4,7 C 0,0 km/h (0 Bft) 95,74 %
30.12.2016 20:40 -4,7 C 96 % 1038,7 hPa 0,0 l/m 0,0 km/h (0 Bft) O-SO 105 0 min 0,000 mm 0,0 UV-I 0 W/m -5,2 C -4,7 C 0,0 km/h (0 Bft) 95,74 %
30.12.2016 20:42 -4,6 C 96 % 1038,7 hPa 0,0 l/m 0,0 km/h (0 Bft) O-SO 106 0 min 0,000 mm 0,0 UV-I 0 W/m -5,1 C -4,6 C 0,0 km/h (0 Bft) 97,87 %
30.12.2016 20:44 -4,5 C 96 % 1038,7 hPa 0,0 l/m 0,0 km/h (0 Bft) O-SO 106 0 min 0,000 mm 0,0 UV-I 0 W/m -5,0 C -4,5 C 0,0 km/h (0 Bft) 95,74 %
30.12.2016 20:46 -4,5 C 96 % 1038,7 hPa 0,0 l/m 0,0 km/h (0 Bft) O-SO 106 0 min 0,000 mm 0,0 UV-I 0 W/m -5,0 C -4,5 C 0,0 km/h (0 Bft) 97,87 %
30.12.2016 20:48 -4,6 C 96 % 1038,7 hPa 0,0 l/m 0,0 km/h (0 Bft) O-SO 106 0 min 0,000 mm 0,0 UV-I 0 W/m -5,1 C -4,6 C 0,0 km/h (0 Bft) 97,87 %
30.12.2016 20:50 -4,6 C 96 % 1038,8 hPa 0,0 l/m 0,0 km/h (0 Bft) O-SO 106 0 min 0,000 mm 0,0 UV-I 0 W/m -5,1 C -4,6 C 0,0 km/h (0 Bft) 93,62 %
30.12.2016 20:52 -4,7 C 96 % 1038,8 hPa 0,0 l/m 0,0 km/h (0 Bft) O-SO 106 0 min 0,000 mm 0,0 UV-I 0 W/m -5,2 C -4,7 C 0,0 km/h (0 Bft) 96,00 %
30.12.2016 20:54 -4,7 C 96 % 1038,8 hPa 0,0 l/m 0,0 km/h (0 Bft) O-SO 106 0 min 0,000 mm 0,0 UV-I 0 W/m -5,2 C -4,7 C 0,0 km/h (0 Bft) 98,00 %
30.12.2016 20:56 -4,7 C 96 % 1038,7 hPa 0,0 l/m 0,0 km/h (0 Bft) O-SO 106 0 min 0,000 mm 0,0 UV-I 0 W/m -5,2 C -4,7 C 0,0 km/h (0 Bft) 97,87 %
30.12.2016 20:58 -4,7 C 96 % 1038,7 hPa 0,0 l/m 0,0 km/h (0 Bft) O-SO 106 0 min 0,000 mm 0,0 UV-I 0 W/m -5,2 C -4,7 C 0,0 km/h (0 Bft) 97,87 %
30.12.2016 21:00 -4,8 C 96 % 1038,7 hPa 0,0 l/m 0,0 km/h (0 Bft) O-SO 106 0 min 0,000 mm 0,0 UV-I 0 W/m -5,3 C -4,8 C 0,0 km/h (0 Bft) 95,83 %
30.12.2016 21:02 -4,8 C 96 % 1038,7 hPa 0,0 l/m 0,0 km/h (0 Bft) O-SO 106 0 min 0,000 mm 0,0 UV-I 0 W/m -5,3 C -4,8 C 0,0 km/h (0 Bft) 95,65 %
30.12.2016 21:04 -4,8 C 96 % 1038,8 hPa 0,0 l/m 0,0 km/h (0 Bft) O-SO 106 0 min 0,000 mm 0,0 UV-I 0 W/m -5,3 C -4,8 C 0,0 km/h (0 Bft) 95,83 %
30.12.2016 21:06 -4,7 C 96 % 1038,8 hPa 0,0 l/m 0,0 km/h (0 Bft) O-SO 106 0 min 0,000 mm 0,0 UV-I 0 W/m -5,2 C -4,7 C 0,0 km/h (0 Bft) 100,00 %
30.12.2016 21:08 -4,7 C 96 % 1038,8 hPa 0,0 l/m 0,0 km/h (0 Bft) O-SO 106 0 min 0,000 mm 0,0 UV-I 0 W/m -5,2 C -4,7 C 0,0 km/h (0 Bft) 95,74 %
30.12.2016 21:10 -4,7 C 96 % 1038,8 hPa 0,0 l/m 0,0 km/h (0 Bft) O-SO 106 0 min 0,000 mm 0,0 UV-I 0 W/m -5,2 C -4,7 C 0,0 km/h (0 Bft) 97,87 %
30.12.2016 21:12 -4,7 C 96 % 1038,8 hPa 0,0 l/m 0,0 km/h (0 Bft) O-SO 106 0 min 0,000 mm 0,0 UV-I 0 W/m -5,2 C -4,7 C 0,0 km/h (0 Bft) 97,87 %
30.12.2016 21:14 -4,8 C 96 % 1038,7 hPa 0,0 l/m 0,0 km/h (0 Bft) O-SO 106 0 min 0,000 mm 0,0 UV-I 0 W/m -5,3 C -4,8 C 0,0 km/h (0 Bft) 97,87 %
30.12.2016 21:16 -4,8 C 96 % 1038,7 hPa 0,0 l/m 0,0 km/h (0 Bft) O-SO 106 0 min 0,000 mm 0,0 UV-I 0 W/m -5,3 C -4,8 C 0,0 km/h (0 Bft) 97,87 %
30.12.2016 21:18 -4,8 C 96 % 1038,7 hPa 0,0 l/m 0,0 km/h (0 Bft) O-SO 106 0 min 0,000 mm 0,0 UV-I 0 W/m -5,3 C -4,8 C 0,0 km/h (0 Bft) 100,00 %
30.12.2016 21:20 -4,9 C 96 % 1038,7 hPa 0,0 l/m 0,0 km/h (0 Bft) O-SO 106 0 min 0,000 mm 0,0 UV-I 0 W/m -5,4 C -4,9 C 0,0 km/h (0 Bft) 97,87 %
30.12.2016 21:22 -5,0 C 96 % 1038,7 hPa 0,0 l/m 0,0 km/h (0 Bft) O-SO 106 0 min 0,000 mm 0,0 UV-I 0 W/m -5,5 C -5,0 C 0,0 km/h (0 Bft) 100,00 %
30.12.2016 21:24 -5,0 C 96 % 1038,7 hPa 0,0 l/m 0,0 km/h (0 Bft) O-SO 106 0 min 0,000 mm 0,0 UV-I 0 W/m -5,5 C -5,0 C 0,0 km/h (0 Bft) 97,87 %
30.12.2016 21:26 -5,0 C 96 % 1038,7 hPa 0,0 l/m 0,0 km/h (0 Bft) O-SO 106 0 min 0,000 mm 0,0 UV-I 0 W/m -5,5 C -5,0 C 0,0 km/h (0 Bft) 100,00 %
30.12.2016 21:28 -5,0 C 96 % 1038,7 hPa 0,0 l/m 0,0 km/h (0 Bft) O-SO 106 0 min 0,000 mm 0,0 UV-I 0 W/m -5,5 C -5,0 C 0,0 km/h (0 Bft) 100,00 %
30.12.2016 21:30 -5,1 C 96 % 1038,7 hPa 0,0 l/m 0,0 km/h (0 Bft) O-SO 105 0 min 0,000 mm 0,0 UV-I 0 W/m -5,6 C -5,1 C 0,0 km/h (0 Bft) 97,87 %
30.12.2016 21:32 -5,1 C 96 % 1038,7 hPa 0,0 l/m 0,0 km/h (0 Bft) O-SO 105 0 min 0,000 mm 0,0 UV-I 0 W/m -5,6 C -5,1 C 0,0 km/h (0 Bft) 100,00 %
30.12.2016 21:34 -5,2 C 96 % 1038,8 hPa 0,0 l/m 0,0 km/h (0 Bft) O-SO 105 0 min 0,000 mm 0,0 UV-I 0 W/m -5,7 C -5,2 C 0,0 km/h (0 Bft) 100,00 %
30.12.2016 21:36 -5,2 C 96 % 1038,8 hPa 0,0 l/m 0,0 km/h (0 Bft) O-NO 69 0 min 0,000 mm 0,0 UV-I 0 W/m -5,7 C -5,2 C 0,0 km/h (0 Bft) 98,00 %
30.12.2016 21:38 -5,2 C 96 % 1038,8 hPa 0,0 l/m 0,0 km/h (0 Bft) O-NO 69 0 min 0,000 mm 0,0 UV-I 0 W/m -5,7 C -5,2 C 0,0 km/h (0 Bft) 100,00 %
30.12.2016 21:40 -5,2 C 96 % 1038,8 hPa 0,0 l/m 0,0 km/h (0 Bft) O-NO 69 0 min 0,000 mm 0,0 UV-I 0 W/m -5,7 C -5,2 C 0,0 km/h (0 Bft) 100,00 %
30.12.2016 21:42 -5,2 C 96 % 1038,8 hPa 0,0 l/m 0,0 km/h (0 Bft) O-NO 69 0 min 0,000 mm 0,0 UV-I 0 W/m -5,7 C -5,2 C 0,0 km/h (0 Bft) 100,00 %
30.12.2016 21:44 -5,2 C 96 % 1038,7 hPa 0,0 l/m 0,0 km/h (0 Bft) O-NO 69 0 min 0,000 mm 0,0 UV-I 0 W/m -5,7 C -5,2 C 0,0 km/h (0 Bft) 97,22 %
30.12.2016 21:46 -5,2 C 96 % 1038,7 hPa 0,0 l/m 0,0 km/h (0 Bft) O-NO 69 0 min 0,000 mm 0,0 UV-I 0 W/m -5,7 C -5,2 C 0,0 km/h (0 Bft) 100,00 %
30.12.2016 21:48 -5,2 C 96 % 1038,7 hPa 0,0 l/m 0,0 km/h (0 Bft) O-NO 69 0 min 0,000 mm 0,0 UV-I 0 W/m -5,7 C -5,2 C 0,0 km/h (0 Bft) 97,87 %
30.12.2016 21:50 -5,3 C 96 % 1038,7 hPa 0,0 l/m 0,0 km/h (0 Bft) O-NO 69 0 min 0,000 mm 0,0 UV-I 0 W/m -5,8 C -5,3 C 0,0 km/h (0 Bft) 98,00 %
30.12.2016 21:52 -5,3 C 96 % 1038,7 hPa 0,0 l/m 0,0 km/h (0 Bft) O-NO 69 0 min 0,000 mm 0,0 UV-I 0 W/m -5,8 C -5,3 C 0,0 km/h (0 Bft) 100,00 %
30.12.2016 21:54 -5,3 C 96 % 1038,7 hPa 0,0 l/m 0,0 km/h (0 Bft) O-NO 69 0 min 0,000 mm 0,0 UV-I 0 W/m -5,8 C -5,3 C 0,0 km/h (0 Bft) 95,74 %
30.12.2016 21:56 -5,4 C 96 % 1038,7 hPa 0,0 l/m 0,0 km/h (0 Bft) O-NO 69 0 min 0,000 mm 0,0 UV-I 0 W/m -5,9 C -5,4 C 0,0 km/h (0 Bft) 100,00 %
30.12.2016 21:58 -5,4 C 96 % 1038,7 hPa 0,0 l/m 0,0 km/h (0 Bft) O-NO 69 0 min 0,000 mm 0,0 UV-I 0 W/m -5,9 C -5,4 C 0,0 km/h (0 Bft) 100,00 %
30.12.2016 22:00 -5,4 C 96 % 1038,7 hPa 0,0 l/m 0,0 km/h (0 Bft) O-NO 69 0 min 0,000 mm 0,0 UV-I 0 W/m -5,9 C -5,4 C 0,0 km/h (0 Bft) 97,87 %
30.12.2016 22:02 -5,4 C 96 % 1038,7 hPa 0,0 l/m 0,0 km/h (0 Bft) O-NO 69 0 min 0,000 mm 0,0 UV-I 0 W/m -5,9 C -5,4 C 0,0 km/h (0 Bft) 100,00 %
30.12.2016 22:04 -5,4 C 96 % 1038,6 hPa 0,0 l/m 0,0 km/h (0 Bft) O 85 0 min 0,000 mm 0,0 UV-I 0 W/m -5,9 C -5,4 C 0,0 km/h (0 Bft) 100,00 %
30.12.2016 22:06 -5,4 C 96 % 1038,6 hPa 0,0 l/m 0,0 km/h (0 Bft) O 86 0 min 0,000 mm 0,0 UV-I 0 W/m -5,9 C -5,4 C 0,0 km/h (0 Bft) 100,00 %
30.12.2016 22:08 -5,5 C 96 % 1038,7 hPa 0,0 l/m 0,0 km/h (0 Bft) O 86 0 min 0,000 mm 0,0 UV-I 0 W/m -6,0 C -5,5 C 0,0 km/h (0 Bft) 97,87 %
30.12.2016 22:10 -5,6 C 96 % 1038,6 hPa 0,0 l/m 0,0 km/h (0 Bft) O 86 0 min 0,000 mm 0,0 UV-I 0 W/m -6,1 C -5,6 C 0,0 km/h (0 Bft) 100,00 %
30.12.2016 22:12 -5,6 C 96 % 1038,6 hPa 0,0 l/m 0,0 km/h (0 Bft) S 178 0 min 0,000 mm 0,0 UV-I 0 W/m -6,1 C -5,6 C 0,0 km/h (0 Bft) 95,74 %
30.12.2016 22:14 -5,7 C 96 % 1038,6 hPa 0,0 l/m 0,0 km/h (0 Bft) S 186 0 min 0,000 mm 0,0 UV-I 0 W/m -6,2 C -5,7 C 0,0 km/h (0 Bft) 100,00 %
30.12.2016 22:16 -5,6 C 96 % 1038,6 hPa 0,0 l/m 0,0 km/h (0 Bft) S 186 0 min 0,000 mm 0,0 UV-I 0 W/m -6,1 C -5,6 C 0,0 km/h (0 Bft) 97,87 %
30.12.2016 22:18 -5,7 C 96 % 1038,6 hPa 0,0 l/m 0,0 km/h (0 Bft) S 186 0 min 0,000 mm 0,0 UV-I 0 W/m -6,2 C -5,7 C 0,0 km/h (0 Bft) 97,87 %
30.12.2016 22:20 -5,7 C 96 % 1038,6 hPa 0,0 l/m 0,0 km/h (0 Bft) S 186 0 min 0,000 mm 0,0 UV-I 0 W/m -6,2 C -5,7 C 0,0 km/h (0 Bft) 100,00 %
30.12.2016 22:22 -5,7 C 96 % 1038,6 hPa 0,0 l/m 0,0 km/h (0 Bft) S 186 0 min 0,000 mm 0,0 UV-I 0 W/m -6,2 C -5,7 C 0,0 km/h (0 Bft) 96,77 %
30.12.2016 22:24 -5,7 C 96 % 1038,7 hPa 0,0 l/m 0,0 km/h (0 Bft) S 186 0 min 0,000 mm 0,0 UV-I 0 W/m -6,2 C -5,7 C 0,0 km/h (0 Bft) 100,00 %
30.12.2016 22:26 -5,6 C 96 % 1038,7 hPa 0,0 l/m 0,0 km/h (0 Bft) S 186 0 min 0,000 mm 0,0 UV-I 0 W/m -6,1 C -5,6 C 0,0 km/h (0 Bft) 95,74 %
30.12.2016 22:28 -5,6 C 96 % 1038,7 hPa 0,0 l/m 0,0 km/h (0 Bft) S 186 0 min 0,000 mm 0,0 UV-I 0 W/m -6,1 C -5,6 C 0,0 km/h (0 Bft) 100,00 %
30.12.2016 22:30 -5,5 C 96 % 1038,7 hPa 0,0 l/m 0,0 km/h (0 Bft) S 186 0 min 0,000 mm 0,0 UV-I 0 W/m -6,0 C -5,5 C 0,0 km/h (0 Bft) 100,00 %
30.12.2016 22:32 -5,5 C 96 % 1038,7 hPa 0,0 l/m 0,0 km/h (0 Bft) S 186 0 min 0,000 mm 0,0 UV-I 0 W/m -6,0 C -5,5 C 0,0 km/h (0 Bft) 97,87 %
30.12.2016 22:34 -5,5 C 96 % 1038,7 hPa 0,0 l/m 0,0 km/h (0 Bft) S 186 0 min 0,000 mm 0,0 UV-I 0 W/m -6,0 C -5,5 C 0,0 km/h (0 Bft) 98,00 %
30.12.2016 22:36 -5,5 C 96 % 1038,8 hPa 0,0 l/m 0,0 km/h (0 Bft) S 186 0 min 0,000 mm 0,0 UV-I 0 W/m -6,0 C -5,5 C 0,0 km/h (0 Bft) 100,00 %
30.12.2016 22:38 -5,5 C 96 % 1038,8 hPa 0,0 l/m 0,0 km/h (0 Bft) S 186 0 min 0,000 mm 0,0 UV-I 0 W/m -6,0 C -5,5 C 0,0 km/h (0 Bft) 97,87 %
30.12.2016 22:40 -5,4 C 96 % 1038,8 hPa 0,0 l/m 0,0 km/h (0 Bft) S 186 0 min 0,000 mm 0,0 UV-I 0 W/m -5,9 C -5,4 C 0,0 km/h (0 Bft) 94,74 %
30.12.2016 22:42 -5,4 C 96 % 1038,7 hPa 0,0 l/m 0,0 km/h (0 Bft) S 186 0 min 0,000 mm 0,0 UV-I 0 W/m -5,9 C -5,4 C 0,0 km/h (0 Bft) 97,87 %
30.12.2016 22:44 -5,4 C 96 % 1038,8 hPa 0,0 l/m 0,0 km/h (0 Bft) O-SO 105 0 min 0,000 mm 0,0 UV-I 0 W/m -5,9 C -5,4 C 0,0 km/h (0 Bft) 95,74 %
30.12.2016 22:46 -5,4 C 96 % 1038,9 hPa 0,0 l/m 0,0 km/h (0 Bft) NO 53 0 min 0,000 mm 0,0 UV-I 0 W/m -5,9 C -5,4 C 0,0 km/h (0 Bft) 95,92 %
30.12.2016 22:48 -5,4 C 96 % 1038,9 hPa 0,0 l/m 0,0 km/h (0 Bft) NO 55 0 min 0,000 mm 0,0 UV-I 0 W/m -5,9 C -5,4 C 0,0 km/h (0 Bft) 97,87 %
30.12.2016 22:50 -5,4 C 96 % 1038,9 hPa 0,0 l/m 0,0 km/h (0 Bft) O-NO 57 0 min 0,000 mm 0,0 UV-I 0 W/m -5,9 C -5,4 C 0,0 km/h (0 Bft) 97,87 %
30.12.2016 22:52 -5,4 C 96 % 1038,9 hPa 0,0 l/m 0,0 km/h (0 Bft) O-NO 57 0 min 0,000 mm 0,0 UV-I 0 W/m -5,9 C -5,4 C 0,0 km/h (0 Bft) 95,74 %
30.12.2016 22:54 -5,3 C 96 % 1038,9 hPa 0,0 l/m 0,0 km/h (0 Bft) O-NO 57 0 min 0,000 mm 0,0 UV-I 0 W/m -5,8 C -5,3 C 0,0 km/h (0 Bft) 95,74 %
30.12.2016 22:56 -5,3 C 96 % 1038,8 hPa 0,0 l/m 0,0 km/h (0 Bft) O-NO 57 0 min 0,000 mm 0,0 UV-I 0 W/m -5,8 C -5,3 C 0,0 km/h (0 Bft) 95,74 %
30.12.2016 22:58 -5,3 C 96 % 1038,9 hPa 0,0 l/m 0,0 km/h (0 Bft) O-NO 57 0 min 0,000 mm 0,0 UV-I 0 W/m -5,8 C -5,3 C 0,0 km/h (0 Bft) 95,74 %
30.12.2016 23:00 -5,2 C 96 % 1038,9 hPa 0,0 l/m 0,0 km/h (0 Bft) O-NO 57 0 min 0,000 mm 0,0 UV-I 0 W/m -5,7 C -5,2 C 0,0 km/h (0 Bft) 95,74 %
30.12.2016 23:02 -5,2 C 96 % 1038,9 hPa 0,0 l/m 0,0 km/h (0 Bft) O-NO 57 0 min 0,000 mm 0,0 UV-I 0 W/m -5,7 C -5,2 C 0,0 km/h (0 Bft) 93,75 %
30.12.2016 23:05 -5,2 C 96 % 1038,9 hPa 0,0 l/m 0,0 km/h (0 Bft) O-NO 57 0 min 0,000 mm 0,0 UV-I 0 W/m -5,7 C -5,2 C 0,0 km/h (0 Bft) 97,14 %
30.12.2016 23:06 -5,2 C 96 % 1038,9 hPa 0,0 l/m 0,0 km/h (0 Bft) O-NO 57 0 min 0,000 mm 0,0 UV-I 0 W/m -5,7 C -5,2 C 0,0 km/h (0 Bft) 100,00 %
30.12.2016 23:08 -5,2 C 96 % 1038,9 hPa 0,0 l/m 0,0 km/h (0 Bft) O-NO 57 0 min 0,000 mm 0,0 UV-I 0 W/m -5,7 C -5,2 C 0,0 km/h (0 Bft) 91,49 %
30.12.2016 23:10 -5,1 C 96 % 1038,9 hPa 0,0 l/m 0,0 km/h (0 Bft) O-NO 57 0 min 0,000 mm 0,0 UV-I 0 W/m -5,6 C -5,1 C 0,0 km/h (0 Bft) 95,74 %
30.12.2016 23:12 -5,1 C 96 % 1038,8 hPa 0,0 l/m 0,0 km/h (0 Bft) O-NO 57 0 min 0,000 mm 0,0 UV-I 0 W/m -5,6 C -5,1 C 0,0 km/h (0 Bft) 97,87 %
30.12.2016 23:14 -5,1 C 96 % 1038,7 hPa 0,0 l/m 0,0 km/h (0 Bft) O-NO 57 0 min 0,000 mm 0,0 UV-I 0 W/m -5,6 C -5,1 C 0,0 km/h (0 Bft) 96,00 %
30.12.2016 23:17 -5,0 C 96 % 1038,8 hPa 0,0 l/m 0,0 km/h (0 Bft) O-NO 57 0 min 0,000 mm 0,0 UV-I 0 W/m -5,5 C -5,0 C 0,0 km/h (0 Bft) 98,57 %
30.12.2016 23:18 -5,0 C 96 % 1038,8 hPa 0,0 l/m 0,0 km/h (0 Bft) O-NO 57 0 min 0,000 mm 0,0 UV-I 0 W/m -5,5 C -5,0 C 0,0 km/h (0 Bft) 100,00 %
30.12.2016 23:20 -5,0 C 96 % 1038,8 hPa 0,0 l/m 0,0 km/h (0 Bft) O-NO 57 0 min 0,000 mm 0,0 UV-I 0 W/m -5,5 C -5,0 C 0,0 km/h (0 Bft) 100,00 %
30.12.2016 23:22 -5,0 C 96 % 1038,7 hPa 0,0 l/m 0,0 km/h (0 Bft) O-NO 57 0 min 0,000 mm 0,0 UV-I 0 W/m -5,5 C -5,0 C 0,0 km/h (0 Bft) 100,00 %
30.12.2016 23:25 -5,0 C 96 % 1038,7 hPa 0,0 l/m 0,0 km/h (0 Bft) O-NO 57 0 min 0,000 mm 0,0 UV-I 0 W/m -5,5 C -5,0 C 0,0 km/h (0 Bft) 100,00 %
30.12.2016 23:26 -5,0 C 96 % 1038,7 hPa 0,0 l/m 0,0 km/h (0 Bft) O-NO 57 0 min 0,000 mm 0,0 UV-I 0 W/m -5,5 C -5,0 C 0,0 km/h (0 Bft) 100,00 %
30.12.2016 23:30 -5,0 C 96 % 1038,7 hPa 0,0 l/m 0,0 km/h (0 Bft) O-NO 57 0 min 0,000 mm 0,0 UV-I 0 W/m -5,5 C -5,0 C 0,0 km/h (0 Bft) 100,00 %
30.12.2016 23:31 -5,0 C 96 % 1038,7 hPa 0,0 l/m 0,0 km/h (0 Bft) O-NO 57 0 min 0,000 mm 0,0 UV-I 0 W/m -5,5 C -5,0 C 0,0 km/h (0 Bft) 100,00 %
30.12.2016 23:32 -5,0 C 96 % 1038,7 hPa 0,0 l/m 0,0 km/h (0 Bft) O-NO 57 0 min 0,000 mm 0,0 UV-I 0 W/m -5,5 C -5,0 C 0,0 km/h (0 Bft) 100,00 %
30.12.2016 23:34 -4,9 C 96 % 1038,6 hPa 0,0 l/m 0,0 km/h (0 Bft) O-NO 57 0 min 0,000 mm 0,0 UV-I 0 W/m -5,4 C -4,9 C 0,0 km/h (0 Bft) 98,00 %
30.12.2016 23:36 -4,9 C 96 % 1038,5 hPa 0,0 l/m 0,0 km/h (0 Bft) O-NO 57 0 min 0,000 mm 0,0 UV-I 0 W/m -5,4 C -4,9 C 0,0 km/h (0 Bft) 100,00 %
30.12.2016 23:39 -4,9 C 96 % 1038,5 hPa 0,0 l/m 0,0 km/h (0 Bft) O-NO 57 0 min 0,000 mm 0,0 UV-I 0 W/m -5,4 C -4,9 C 0,0 km/h (0 Bft) 98,59 %
30.12.2016 23:40 -4,9 C 96 % 1038,5 hPa 0,0 l/m 0,0 km/h (0 Bft) O-NO 57 0 min 0,000 mm 0,0 UV-I 0 W/m -5,4 C -4,9 C 0,0 km/h (0 Bft) 100,00 %
30.12.2016 23:42 -4,9 C 96 % 1038,5 hPa 0,0 l/m 0,0 km/h (0 Bft) NO 56 0 min 0,000 mm 0,0 UV-I 0 W/m -5,4 C -4,9 C 0,0 km/h (0 Bft) 100,00 %
30.12.2016 23:44 -4,9 C 96 % 1038,5 hPa 0,0 l/m 0,0 km/h (0 Bft) NO 56 0 min 0,000 mm 0,0 UV-I 0 W/m -5,4 C -4,9 C 0,0 km/h (0 Bft) 96,55 %
30.12.2016 23:46 -4,9 C 96 % 1038,5 hPa 0,0 l/m 0,0 km/h (0 Bft) NO 56 0 min 0,000 mm 0,0 UV-I 0 W/m -5,4 C -4,9 C 0,0 km/h (0 Bft) 100,00 %
30.12.2016 23:49 -4,9 C 96 % 1038,5 hPa 0,0 l/m 0,0 km/h (0 Bft) NO 56 0 min 0,000 mm 0,0 UV-I 0 W/m -5,4 C -4,9 C 0,0 km/h (0 Bft) 100,00 %
30.12.2016 23:50 -4,9 C 96 % 1038,5 hPa 0,0 l/m 0,0 km/h (0 Bft) NO 56 0 min 0,000 mm 0,0 UV-I 0 W/m -5,4 C -4,9 C 0,0 km/h (0 Bft) 100,00 %
30.12.2016 23:52 -4,9 C 96 % 1038,5 hPa 0,0 l/m 0,0 km/h (0 Bft) NO 56 0 min 0,000 mm 0,0 UV-I 0 W/m -5,4 C -4,9 C 0,0 km/h (0 Bft) 100,00 %
30.12.2016 23:54 -5,0 C 96 % 1038,5 hPa 0,0 l/m 0,0 km/h (0 Bft) NO 56 0 min 0,000 mm 0,0 UV-I 0 W/m -5,5 C -5,0 C 0,0 km/h (0 Bft) 97,87 %
30.12.2016 23:56 -5,0 C 96 % 1038,4 hPa 0,0 l/m 0,0 km/h (0 Bft) NO 56 0 min 0,000 mm 0,0 UV-I 0 W/m -5,5 C -5,0 C 0,0 km/h (0 Bft) 97,87 %
30.12.2016 23:58 -5,0 C 96 % 1038,5 hPa 0,0 l/m 0,0 km/h (0 Bft) NO 56 0 min 0,000 mm 0,0 UV-I 0 W/m -5,5 C -5,0 C 0,0 km/h (0 Bft) 100,00 %
_ Min-Zeit 22:14 14:46 19:02 - 06:32 - - - - - - 22:14 04:28 06:32 11:36
Minimum _ -5,7 C 93 % 1038,1 hPa - 0,0 km/h (0 Bft) - - - - - - -6,2 C -7,5 C 0,0 km/h (0 Bft) 91,49 %
_ Max-Zeit 15:26 00:00 00:34 00:00 04:28 - - 11:30 12:00 12:26 14:00 15:26 15:26 00:06 00:00
Maximum _ -1,5 C 97 % 1041,1 hPa 0,0 l/m 10,3 km/h
O-NO (2 Bft)
- - 2 min 0,051 mm 0,2 UV-I 328 W/m -2,3 C -1,5 C 16,1 km/h
O-NO (3 Bft)
100,00 %
Durchschnitt _ -3,6 C 96 % 1039,6 hPa #0,0 l/m 1,9 km/h (1 Bft) O-NO - #2:46 h #0,279 mm 0,2 UV-I 95 W/m -4,1 C -3,7 C 3,4 km/h (1 Bft) 98,33 %